[[{"header":{"parameterUnit":"m.s-1","parameterCategory":1,"la1":30.6,"la2":29.2853,"lo1":-89.7004,"lo2":-87.6739,"dx":0.0162,"dy":0.0183,"nx":112,"ny":82,"refTime":"2023-02-03T06:00:00:Z","depth":0,"parameterNumber":2,"parameterNumberName":"U-component_of_WINDS"},"data":[0.0,0.0,0.0,0.0,0.0,0.0,0.0,0.0,0.0,0.0,0.0,0.0,0.0,0.0,0.0,0.0,0.0,0.0,0.0,0.0,0.0,0.0,0.0,0.0,0.0,0.0,0.0,0.0,0.0,0.0,0.0,0.0,0.0,0.0,0.0,0.0,0.0,0.0,0.0,0.0,0.0,0.0,0.0,0.0,0.0,0.0,0.0,0.0,0.0,0.0,0.0,0.0,0.0,0.0,0.0,0.0,0.0,0.0,0.0,0.0,0.0,0.0,0.0,0.0,0.0,0.0,0.0,0.0,0.0,0.0,0.0,0.0,0.0,0.0,0.0,0.0,0.0,0.0,0.0,0.0,0.0,0.0,0.0,0.0,0.0,0.0,0.0,0.0,0.0,0.0,-2.7144,-2.701,-2.6969,-2.6969,-2.6969,-2.6969,-2.6629,-2.5872,0.0,0.0,0.0,0.0,0.0,0.0,0.0,0.0,0.0,0.0,0.0,0.0,0.0,0.0,0.0,0.0,0.0,0.0,0.0,0.0,0.0,0.0,0.0,0.0,0.0,0.0,0.0,0.0,0.0,0.0,0.0,0.0,0.0,0.0,0.0,0.0,0.0,0.0,0.0,0.0,0.0,0.0,0.0,0.0,0.0,0.0,0.0,0.0,0.0,0.0,0.0,0.0,0.0,0.0,0.0,0.0,0.0,0.0,0.0,0.0,0.0,0.0,0.0,0.0,0.0,0.0,0.0,0.0,0.0,0.0,0.0,0.0,0.0,0.0,0.0,0.0,0.0,0.0,0.0,0.0,0.0,0.0,0.0,0.0,0.0,0.0,0.0,0.0,0.0,0.0,0.0,0.0,0.0,0.0,0.0,0.0,0.0,0.0,0.0,0.0,0.0,0.0,0.0,0.0,-2.6887,-2.608,-2.5986,-2.5986,-2.5986,-2.5986,-2.5944,-2.5819,0.0,0.0,0.0,0.0,0.0,0.0,0.0,0.0,0.0,0.0,0.0,0.0,0.0,0.0,0.0,0.0,0.0,0.0,0.0,0.0,0.0,0.0,0.0,0.0,0.0,0.0,0.0,0.0,0.0,0.0,0.0,0.0,0.0,0.0,0.0,0.0,0.0,0.0,0.0,0.0,0.0,0.0,0.0,0.0,0.0,0.0,0.0,0.0,0.0,0.0,0.0,0.0,0.0,0.0,0.0,0.0,0.0,0.0,0.0,0.0,0.0,0.0,0.0,0.0,0.0,0.0,0.0,0.0,0.0,0.0,0.0,0.0,0.0,0.0,0.0,0.0,0.0,0.0,0.0,0.0,0.0,0.0,0.0,0.0,0.0,0.0,0.0,0.0,0.0,0.0,0.0,0.0,0.0,0.0,0.0,0.0,0.0,0.0,0.0,0.0,0.0,0.0,0.0,-2.5743,-2.5579,-2.5115,-2.5084,-2.5084,-2.5084,-2.5306,-2.5229,-2.473,-2.5818,0.0,0.0,0.0,0.0,0.0,0.0,0.0,0.0,0.0,0.0,0.0,0.0,0.0,0.0,0.0,0.0,0.0,0.0,0.0,0.0,0.0,0.0,0.0,0.0,0.0,0.0,0.0,0.0,0.0,0.0,0.0,0.0,0.0,0.0,0.0,0.0,0.0,0.0,0.0,0.0,0.0,0.0,0.0,0.0,0.0,0.0,0.0,0.0,0.0,0.0,0.0,0.0,0.0,0.0,0.0,0.0,0.0,0.0,0.0,0.0,0.0,0.0,0.0,0.0,0.0,0.0,0.0,0.0,0.0,0.0,0.0,0.0,0.0,0.0,0.0,0.0,0.0,0.0,0.0,0.0,0.0,0.0,0.0,0.0,0.0,0.0,0.0,0.0,0.0,0.0,0.0,0.0,0.0,0.0,0.0,0.0,0.0,0.0,0.0,0.0,0.0,0.0,-2.4807,-2.4472,-2.4472,-2.4472,-2.4472,-2.4472,-2.4778,-2.467,-2.3981,-2.4967,0.0,0.0,0.0,0.0,0.0,0.0,0.0,0.0,0.0,0.0,0.0,0.0,0.0,0.0,0.0,0.0,0.0,0.0,0.0,0.0,0.0,0.0,0.0,0.0,0.0,0.0,0.0,0.0,0.0,0.0,0.0,0.0,0.0,0.0,0.0,0.0,0.0,0.0,0.0,0.0,0.0,0.0,0.0,0.0,0.0,0.0,0.0,0.0,0.0,0.0,0.0,0.0,0.0,0.0,0.0,0.0,0.0,0.0,0.0,0.0,0.0,0.0,0.0,0.0,0.0,0.0,0.0,0.0,0.0,0.0,0.0,0.0,0.0,0.0,0.0,0.0,0.0,0.0,0.0,0.0,0.0,0.0,0.0,0.0,0.0,0.0,0.0,0.0,0.0,0.0,0.0,0.0,0.0,0.0,0.0,0.0,0.0,0.0,0.0,0.0,0.0,0.0,-2.4967,-2.4418,-2.4418,-2.4418,-2.4418,-2.4418,-2.4438,-2.4411,-2.4375,-2.4607,0.0,0.0,0.0,0.0,0.0,0.0,0.0,0.0,0.0,0.0,0.0,0.0,0.0,0.0,0.0,0.0,0.0,0.0,0.0,0.0,0.0,0.0,0.0,0.0,0.0,0.0,0.0,0.0,0.0,0.0,0.0,0.0,0.0,0.0,0.0,0.0,0.0,0.0,0.0,0.0,0.0,0.0,0.0,0.0,0.0,0.0,0.0,0.0,0.0,0.0,0.0,0.0,0.0,0.0,0.0,0.0,0.0,0.0,0.0,0.0,0.0,0.0,0.0,0.0,0.0,0.0,0.0,0.0,0.0,0.0,0.0,0.0,0.0,0.0,0.0,0.0,0.0,0.0,0.0,0.0,0.0,0.0,0.0,0.0,0.0,0.0,0.0,0.0,0.0,0.0,0.0,0.0,0.0,0.0,0.0,0.0,0.0,0.0,0.0,0.0,0.0,0.0,-2.4812,-2.4414,0.0,-2.4414,-2.4414,-2.4414,-2.4668,-2.4824,-2.4824,0.0,0.0,0.0,0.0,0.0,0.0,0.0,0.0,0.0,0.0,0.0,0.0,0.0,0.0,0.0,0.0,0.0,0.0,0.0,0.0,0.0,0.0,0.0,0.0,0.0,0.0,0.0,0.0,0.0,0.0,0.0,0.0,0.0,0.0,0.0,0.0,0.0,0.0,0.0,0.0,0.0,0.0,0.0,0.0,0.0,0.0,0.0,0.0,0.0,0.0,0.0,0.0,0.0,0.0,0.0,0.0,0.0,0.0,0.0,0.0,0.0,0.0,0.0,0.0,0.0,0.0,0.0,0.0,0.0,0.0,0.0,0.0,0.0,0.0,0.0,0.0,0.0,0.0,0.0,0.0,0.0,0.0,0.0,0.0,0.0,0.0,0.0,0.0,0.0,0.0,0.0,0.0,0.0,0.0,0.0,0.0,0.0,0.0,0.0,0.0,0.0,0.0,-2.5283,-2.5019,-2.4787,0.0,-2.4787,-2.4787,-2.4787,-2.5107,-2.5283,-2.5283,0.0,0.0,0.0,0.0,0.0,0.0,0.0,0.0,0.0,0.0,0.0,0.0,0.0,0.0,0.0,0.0,0.0,0.0,0.0,0.0,0.0,0.0,0.0,0.0,0.0,0.0,0.0,0.0,0.0,0.0,0.0,0.0,0.0,0.0,0.0,0.0,0.0,0.0,0.0,0.0,0.0,0.0,0.0,0.0,0.0,0.0,0.0,0.0,0.0,0.0,0.0,0.0,0.0,0.0,0.0,0.0,0.0,0.0,0.0,0.0,0.0,0.0,0.0,0.0,0.0,0.0,0.0,0.0,0.0,0.0,0.0,0.0,0.0,0.0,0.0,0.0,0.0,0.0,0.0,0.0,0.0,0.0,0.0,0.0,0.0,0.0,0.0,0.0,0.0,0.0,0.0,0.0,0.0,0.0,0.0,0.0,0.0,0.0,0.0,0.0,0.0,0.0,-2.5693,-2.5693,-2.5693,-2.5693,-2.5693,-2.5693,-2.5693,-2.5693,-2.5693,0.0,0.0,0.0,0.0,0.0,0.0,0.0,0.0,0.0,0.0,0.0,0.0,0.0,0.0,0.0,0.0,0.0,0.0,0.0,0.0,0.0,0.0,0.0,0.0,0.0,0.0,0.0,0.0,0.0,0.0,0.0,0.0,0.0,0.0,0.0,0.0,0.0,0.0,0.0,0.0,0.0,0.0,0.0,0.0,0.0,0.0,0.0,0.0,0.0,0.0,0.0,0.0,0.0,0.0,0.0,0.0,0.0,0.0,0.0,0.0,0.0,0.0,0.0,0.0,0.0,0.0,0.0,0.0,0.0,0.0,0.0,0.0,0.0,0.0,0.0,0.0,0.0,0.0,0.0,0.0,0.0,0.0,0.0,0.0,0.0,0.0,0.0,0.0,0.0,0.0,0.0,0.0,0.0,0.0,0.0,0.0,0.0,0.0,0.0,0.0,0.0,0.0,0.0,-2.5693,-2.5693,-2.5693,-2.5693,-2.5693,-2.5693,-2.5693,-2.5693,-2.5693,-2.5693,0.0,0.0,0.0,0.0,0.0,0.0,0.0,0.0,0.0,0.0,0.0,0.0,0.0,0.0,0.0,0.0,0.0,0.0,0.0,0.0,0.0,0.0,0.0,0.0,0.0,0.0,0.0,0.0,0.0,0.0,0.0,0.0,0.0,0.0,0.0,0.0,0.0,0.0,0.0,0.0,0.0,0.0,0.0,0.0,0.0,0.0,0.0,0.0,0.0,0.0,0.0,0.0,0.0,0.0,0.0,0.0,0.0,0.0,0.0,0.0,0.0,0.0,0.0,0.0,0.0,0.0,0.0,0.0,0.0,0.0,0.0,0.0,0.0,0.0,0.0,0.0,0.0,0.0,0.0,0.0,0.0,0.0,0.0,0.0,0.0,0.0,0.0,0.0,0.0,0.0,0.0,0.0,0.0,0.0,0.0,0.0,0.0,0.0,0.0,0.0,0.0,0.0,-2.5693,-2.5693,-2.5693,-2.5693,-2.5693,-2.5538,-2.5118,-2.5069,-2.4864,-2.4461,0.0,0.0,0.0,0.0,0.0,0.0,0.0,0.0,0.0,0.0,0.0,0.0,0.0,0.0,0.0,0.0,0.0,0.0,0.0,0.0,0.0,0.0,0.0,0.0,0.0,0.0,0.0,0.0,0.0,0.0,0.0,0.0,0.0,0.0,0.0,0.0,0.0,0.0,0.0,0.0,0.0,0.0,0.0,0.0,0.0,0.0,0.0,0.0,0.0,0.0,0.0,0.0,0.0,0.0,0.0,0.0,0.0,0.0,0.0,0.0,0.0,0.0,0.0,0.0,0.0,0.0,0.0,0.0,0.0,0.0,0.0,0.0,0.0,0.0,0.0,0.0,0.0,0.0,0.0,0.0,0.0,0.0,0.0,0.0,0.0,0.0,0.0,0.0,0.0,0.0,0.0,0.0,0.0,0.0,0.0,0.0,0.0,0.0,0.0,0.0,0.0,0.0,-2.5528,-2.5479,-2.5382,-2.5382,-2.5382,-2.502,-2.4038,-2.3939,-2.3543,-2.2534,0.0,0.0,0.0,0.0,0.0,0.0,0.0,0.0,0.0,0.0,0.0,0.0,0.0,0.0,0.0,0.0,0.0,0.0,0.0,0.0,0.0,0.0,0.0,0.0,0.0,0.0,0.0,0.0,0.0,0.0,0.0,0.0,0.0,0.0,0.0,0.0,0.0,0.0,0.0,0.0,0.0,0.0,0.0,0.0,0.0,0.0,0.0,0.0,0.0,0.0,0.0,0.0,0.0,0.0,0.0,0.0,0.0,0.0,0.0,0.0,-2.2344,0.0,0.0,0.0,0.0,0.0,0.0,0.0,0.0,0.0,0.0,0.0,0.0,0.0,0.0,0.0,0.0,0.0,0.0,0.0,0.0,0.0,0.0,0.0,0.0,0.0,0.0,0.0,0.0,0.0,0.0,0.0,0.0,0.0,0.0,0.0,0.0,0.0,0.0,0.0,0.0,0.0,-2.4452,-2.3701,-2.3194,-2.3194,-2.3194,-2.3094,-2.2835,-2.2835,-2.2735,-2.2484,-2.2685,0.0,0.0,0.0,0.0,0.0,0.0,0.0,0.0,0.0,0.0,0.0,0.0,0.0,0.0,0.0,0.0,0.0,0.0,0.0,0.0,0.0,0.0,0.0,0.0,0.0,0.0,0.0,0.0,0.0,0.0,0.0,0.0,0.0,0.0,0.0,0.0,0.0,0.0,0.0,0.0,0.0,0.0,0.0,0.0,0.0,0.0,0.0,0.0,0.0,0.0,0.0,0.0,0.0,0.0,0.0,0.0,0.0,0.0,0.0,0.0,-2.2896,0.0,0.0,0.0,0.0,0.0,0.0,0.0,0.0,0.0,0.0,0.0,0.0,0.0,0.0,0.0,0.0,0.0,0.0,0.0,0.0,0.0,0.0,0.0,0.0,0.0,0.0,0.0,0.0,0.0,0.0,0.0,0.0,0.0,0.0,0.0,0.0,0.0,0.0,0.0,0.0,-2.4088,-2.3135,-2.2484,-2.2484,-2.2484,-2.2282,-2.1785,-2.1735,-2.1532,-2.0979,-2.1438,0.0,0.0,0.0,0.0,0.0,0.0,0.0,0.0,0.0,0.0,0.0,0.0,0.0,0.0,0.0,0.0,0.0,0.0,0.0,0.0,0.0,0.0,0.0,0.0,0.0,0.0,0.0,0.0,0.0,0.0,0.0,0.0,0.0,0.0,0.0,0.0,0.0,0.0,0.0,0.0,0.0,0.0,0.0,0.0,0.0,0.0,0.0,0.0,0.0,0.0,0.0,0.0,0.0,-2.2549,-2.2691,-2.3091,-2.3091,-2.3091,-2.3091,-2.3091,-2.3091,-2.3091,-2.3091,0.0,0.0,0.0,0.0,0.0,0.0,0.0,0.0,0.0,0.0,0.0,0.0,0.0,0.0,0.0,0.0,0.0,0.0,0.0,0.0,0.0,0.0,0.0,0.0,-2.2484,-2.2994,-2.4775,0.0,0.0,0.0,0.0,0.0,0.0,0.0,0.0,0.0,0.0,0.0,-2.3543,-2.2593,-2.1937,-2.1937,-2.1937,-2.1582,-2.068,-2.0637,-2.0233,-1.9376,-2.013,-2.0637,0.0,0.0,0.0,0.0,0.0,0.0,0.0,0.0,0.0,0.0,0.0,0.0,0.0,0.0,0.0,0.0,0.0,0.0,0.0,0.0,0.0,0.0,0.0,0.0,0.0,0.0,0.0,0.0,0.0,0.0,0.0,0.0,-2.0605,-2.0605,0.0,0.0,0.0,0.0,0.0,0.0,0.0,0.0,0.0,0.0,0.0,0.0,0.0,-2.1357,-2.1797,-2.1797,-2.2227,-2.3013,-2.2685,-2.2691,-2.3091,-2.3091,-2.3091,-2.3091,-2.3091,0.0,-2.3091,-2.3091,0.0,0.0,0.0,0.0,0.0,0.0,0.0,0.0,0.0,0.0,0.0,0.0,0.0,0.0,0.0,0.0,0.0,0.0,0.0,0.0,0.0,0.0,-2.2685,-2.2534,-2.2484,-2.2584,0.0,-2.2793,-2.2743,-2.2894,-2.2793,0.0,0.0,0.0,0.0,0.0,0.0,0.0,-2.1336,-2.0388,-1.9732,-1.9732,-1.9732,-1.968,-1.9532,-1.9524,-1.9428,-1.9331,-1.9428,-1.9524,-1.9524,-1.9524,0.0,0.0,0.0,0.0,0.0,0.0,0.0,0.0,0.0,0.0,0.0,0.0,0.0,0.0,0.0,0.0,0.0,0.0,0.0,0.0,0.0,0.0,0.0,0.0,0.0,0.0,0.0,0.0,0.0,-2.0605,-2.0605,-2.0605,-2.0605,-2.0605,0.0,0.0,0.0,0.0,0.0,0.0,0.0,0.0,0.0,-2.1339,-2.1494,-2.1807,-2.2236,-2.2471,-2.29,-2.3506,-2.3555,-2.3682,-2.3812,-2.3812,-2.3812,-2.3812,-2.3812,-2.3812,-2.3773,-2.3296,-2.3091,-2.3091,0.0,0.0,0.0,0.0,-2.3393,-2.3832,-2.4014,-2.415,-2.4277,-2.4418,0.0,0.0,0.0,0.0,0.0,0.0,0.0,0.0,0.0,0.0,-2.1438,-2.0834,-2.068,-2.068,-2.068,-2.068,-2.1038,0.0,-2.1988,-2.1785,-2.2391,0.0,0.0,0.0,0.0,-2.0885,-2.0885,-1.9983,-1.9279,-1.9279,-1.9279,-1.9279,-1.9279,-1.9279,-1.9279,-1.9279,-1.9279,-1.9279,-1.9279,-1.9279,-1.9279,0.0,0.0,0.0,0.0,0.0,0.0,0.0,0.0,0.0,0.0,0.0,0.0,0.0,0.0,0.0,0.0,0.0,0.0,0.0,0.0,0.0,0.0,0.0,0.0,0.0,0.0,0.0,0.0,-2.0605,-2.0605,-2.0605,-2.0605,-2.0605,0.0,0.0,0.0,0.0,0.0,0.0,-2.1377,-2.1356,-2.1602,-2.2031,-2.2148,-2.2412,-2.2842,-2.3208,-2.3633,-2.3955,-2.4268,-2.4414,-2.4414,-2.4414,-2.4414,-2.4414,-2.4414,-2.4414,-2.4365,-2.3686,-2.3422,-2.3422,-2.3422,-2.3422,-2.3422,-2.3102,-2.3451,-2.3913,-2.3482,-2.3436,-2.3511,-2.3322,-2.2906,-2.2484,-2.2484,0.0,0.0,0.0,0.0,-2.1887,-2.1089,-2.068,-2.0285,-1.948,-1.9279,-1.9279,-1.9279,-1.9279,-1.9776,0.0,-2.1038,-2.0731,-2.154,0.0,0.0,0.0,0.0,-2.0483,-2.0483,-1.9776,-1.9279,-1.9279,-1.9279,-1.9279,-1.9279,-1.9279,-1.9279,-1.9279,-1.9279,-1.9279,-1.9279,-1.9279,-1.9279,-1.9279,0.0,0.0,0.0,0.0,0.0,0.0,0.0,0.0,0.0,0.0,0.0,0.0,0.0,0.0,0.0,0.0,0.0,0.0,0.0,0.0,0.0,0.0,0.0,0.0,0.0,0.0,0.0,0.0,0.0,-2.0605,-2.0605,0.0,0.0,0.0,0.0,-2.1132,-2.1161,-2.1387,-2.1836,-2.1846,-2.2041,-2.2471,-2.2818,-2.3237,-2.3721,-2.4141,-2.4365,-2.4385,-2.4404,-2.4414,-2.4414,-2.4414,-2.4414,-2.4414,-2.4414,-2.4414,-2.4414,-2.4365,-2.4355,-2.4355,-2.4355,-2.4355,-2.4208,-2.3215,-2.2859,-2.28,-2.2201,-2.2016,-2.207,-2.2455,-2.2525,-2.2484,-2.2484,-2.2484,0.0,0.0,-2.1785,-2.0987,-2.0936,-2.013,-1.9383,-1.9324,-1.9279,-1.9279,-1.9279,-1.9279,-1.9324,0.0,-1.9428,-1.9376,-1.9428,0.0,-1.948,-1.948,-1.9428,-1.9376,-1.9376,-1.9324,-1.9279,-1.9279,-1.9279,-1.9279,-1.9279,-1.9279,-1.9279,-1.9279,-1.9279,-1.9279,-1.9279,-1.9279,-1.9279,-1.9279,-1.9279,0.0,0.0,0.0,0.0,0.0,0.0,0.0,0.0,0.0,0.0,0.0,0.0,0.0,0.0,0.0,0.0,0.0,0.0,0.0,0.0,0.0,0.0,0.0,0.0,0.0,0.0,0.0,0.0,-2.0605,-2.082,0.0,-2.0996,-2.125,-2.1484,-2.1641,-2.165,-2.1963,-2.2656,-2.2652,-2.3018,-2.3721,-2.3842,-2.4033,-2.4189,-2.4619,-2.498,-2.5226,-2.5547,-2.583,-2.6094,-2.6094,-2.6094,-2.6074,-2.5801,-2.5684,-2.5664,-2.5381,-2.4497,-2.3317,-2.2604,-2.2746,-2.3224,-2.2179,-2.2387,-2.3108,-2.2226,-2.1603,-2.1174,-2.0649,-2.0431,-2.0431,-2.0431,-2.0431,-2.0431,-2.0431,-2.0181,-1.9932,-2.0151,-1.9896,-1.9691,-1.9842,-1.9894,-1.9894,-1.9894,-1.9894,-1.9894,-1.9894,-1.9557,-1.9279,-1.9279,-1.9279,-1.9279,-1.9279,-1.9279,-1.9279,-1.9279,-1.9279,-1.9279,-1.9279,-1.9279,-1.9279,-1.9279,-1.9279,-1.9279,-1.9279,-1.9279,-1.9279,-1.9279,-1.9279,-1.9279,-1.9279,-1.9279,-1.9279,0.0,0.0,0.0,0.0,0.0,0.0,0.0,0.0,0.0,0.0,0.0,0.0,0.0,0.0,0.0,0.0,0.0,0.0,0.0,0.0,0.0,0.0,0.0,0.0,0.0,0.0,-2.0712,-2.0417,-2.1012,-2.1455,-2.1455,-2.1846,-2.2158,-2.2347,-2.2441,-2.2832,-2.3491,-2.352,-2.3896,-2.4609,-2.4785,-2.4884,-2.5078,-2.5508,-2.5869,-2.6122,-2.6035,-2.6101,-2.6368,-2.5999,-2.5792,-2.5834,-2.592,-2.5755,-2.5381,-2.5092,-2.3999,-2.2444,-2.2231,-2.2619,-2.3051,-2.165,-2.1839,-2.2629,-2.1659,-2.1044,-2.0571,-1.9858,-1.9601,-1.9601,-1.9601,-1.9601,-1.9601,-1.9601,-1.9601,-1.9645,-1.9864,-1.9923,-1.9974,-2.0186,-2.0183,-2.0183,-2.0183,-2.0183,-2.0183,-2.0183,-1.9894,-1.9601,-1.9601,-1.9601,-1.9601,-1.9601,-1.9601,-1.9601,-1.9601,-1.9601,-1.9601,-1.9601,-1.9506,-1.9492,-1.9492,-1.9397,-1.9279,-1.9279,-1.9279,-1.9279,-1.9279,-1.9279,-1.9279,-1.9279,-1.9279,-1.9279,-1.9279,0.0,0.0,0.0,0.0,0.0,0.0,0.0,0.0,0.0,0.0,0.0,0.0,0.0,0.0,0.0,0.0,0.0,0.0,0.0,0.0,0.0,0.0,0.0,-1.9231,-2.04,-2.0859,-2.0079,-2.1139,-2.1924,-2.1882,-2.2272,-2.2744,-2.3174,-2.3584,-2.3994,-2.4414,-2.4453,-2.4658,-2.5145,-2.5489,-2.5927,-2.6406,-2.6756,-2.697,-2.7031,-2.5844,-2.5255,-2.5274,-2.4132,-2.3604,-2.3657,-2.4682,-2.4525,-2.3534,-2.3561,-2.2925,-2.2015,-2.341,-2.3976,-2.3777,-2.1674,-2.1079,-2.127,-2.0446,-2.0183,-2.0183,-2.0183,-2.0183,-2.0183,-2.0183,-2.0183,-2.0183,-2.0183,-2.0183,-2.0183,-2.019,-2.0197,-2.0197,-2.0212,-2.0212,-2.0212,-2.0212,-2.0212,-2.0212,-2.0212,-2.0212,-2.0205,-2.0183,-2.0183,-2.0183,-2.0183,-2.0183,0.0,-2.0183,-2.0183,-2.0183,-2.0183,-1.9959,-1.983,-1.983,-1.9484,-1.9301,-1.9346,-1.9346,-1.9286,-1.9279,-1.9279,-1.9279,-1.9279,-1.9279,-1.9279,-1.9279,0.0,0.0,0.0,0.0,0.0,0.0,0.0,0.0,0.0,0.0,0.0,0.0,0.0,0.0,0.0,0.0,0.0,0.0,0.0,0.0,0.0,0.0,-1.8909,-2.0436,-2.045,-2.0548,-2.1281,-2.2175,-2.2438,-2.1689,-2.3003,-2.3618,-2.2981,-2.3748,-2.4434,-2.4863,-2.5195,-2.5576,-2.6006,-2.5594,-2.5818,-2.6846,-2.6096,-2.6305,-2.749,-2.7159,-2.7146,-2.7391,-2.6241,-2.5703,-2.5631,-2.4791,-2.4231,-2.3892,-2.3627,-2.3358,-2.2917,-2.1711,-2.1738,-2.2258,-2.091,-2.045,-2.0485,-2.0255,-2.0183,-2.0183,-2.0183,-2.0183,-2.0183,-2.0183,-2.0183,-2.0183,-2.0183,-2.0183,-2.0234,-2.0475,-2.0533,-2.0591,-2.0889,-2.094,-2.094,-2.094,-2.094,-2.094,-2.094,-2.094,-2.0794,-2.0263,-2.0183,-2.0183,-2.0183,-2.0183,0.0,-2.0183,-2.0183,-2.0183,-2.0183,-2.0157,-2.0106,-2.0106,-2.0025,-1.9872,-1.9645,-1.9683,-1.9573,-1.9286,-1.9279,-1.9279,-1.9279,-1.9279,-1.9279,0.0,0.0,0.0,0.0,0.0,0.0,0.0,0.0,0.0,0.0,0.0,0.0,0.0,0.0,0.0,0.0,0.0,0.0,0.0,0.0,0.0,0.0,-1.8027,-1.8361,-2.0434,-2.031,-2.0305,-2.1151,-2.1891,-2.2245,-2.2053,-2.3243,-2.3579,-2.2524,-2.3705,-2.4649,-2.4955,-2.5305,-2.5597,-2.5895,-2.5613,-2.5617,-2.5774,-2.5782,-2.6259,-2.7222,-2.7222,-2.7346,-2.7466,-2.5799,-2.5029,-2.4965,-2.4073,-2.3321,-2.2926,-2.3154,-2.2964,0.0,0.0,0.0,0.0,0.0,-2.0387,-2.0402,-2.0596,-2.0647,-2.0647,-2.0647,-2.0647,-2.0647,-2.0647,-2.0647,-2.0647,-2.0647,-2.0647,-2.0684,-2.0874,-2.0925,-2.0976,-2.1167,-2.1211,-2.1211,-2.1211,-2.1211,-2.1211,-2.1211,-2.1211,0.0,-2.0713,-2.0647,-2.0647,-2.0647,-2.0647,-2.0647,-2.0647,-2.0647,-2.0647,-2.0647,-2.0467,-2.0387,-2.0387,-2.0256,0.0,0.0,0.0,-1.9872,-1.9681,-1.955,0.0,0.0,0.0,-1.9279,-1.9279,-1.9279,0.0,0.0,-1.9262,-1.9172,0.0,0.0,0.0,0.0,0.0,0.0,0.0,0.0,0.0,0.0,0.0,0.0,0.0,0.0,0.0,0.0,-1.7297,-1.7258,-1.9534,-1.9891,-2.0108,-2.046,-2.0947,-2.167,-2.263,-2.3123,-2.3046,-2.2113,-2.3684,-2.4674,-2.465,0.0,0.0,0.0,0.0,-2.512,-2.4185,-2.5457,-2.6191,-2.63,-2.63,-2.63,-2.6245,-2.403,-2.2974,-2.2974,-2.2869,-2.2207,-2.1268,-2.2369,-2.215,-2.1266,-2.1587,-2.172,-2.1651,-2.0996,-2.0779,-2.0823,-2.1108,0.0,0.0,-2.1211,-2.1211,-2.1211,-2.1211,-2.1211,-2.1211,-2.1211,-2.1211,-2.1211,-2.1211,-2.1211,-2.1211,-2.1211,-2.1211,-2.1211,-2.1211,-2.1211,-2.1211,-2.1211,-2.1211,-2.1211,-2.1211,-2.1211,-2.1211,-2.1211,-2.1211,-2.1211,-2.1211,-2.1211,-2.1211,-2.1211,0.0,0.0,-2.0779,-2.0453,-2.0278,-2.0241,-2.0205,-2.0183,-2.0183,-1.9967,-1.9874,-1.9874,-1.9528,-1.9381,-1.9381,-1.9381,-1.9381,-1.9381,-1.915,-1.886,0.0,0.0,0.0,0.0,0.0,0.0,0.0,0.0,0.0,0.0,0.0,0.0,0.0,0.0,0.0,-1.707,-1.7159,-1.7368,-1.8138,-1.8698,-1.9571,-2.0906,-2.1454,-2.1833,-2.2068,-2.2691,-2.2988,-2.2792,-2.4237,-2.4704,-2.3782,-2.5056,-2.5316,-2.4328,-2.3841,-2.3859,-2.456,-2.3989,-2.4133,-2.5067,0.0,0.0,-2.5003,-2.364,-2.2974,-2.2926,-2.1979,-2.1432,-2.1211,-2.1432,-2.1432,-2.1196,-2.1292,-2.1296,-2.1304,-2.1143,-2.1115,-2.1123,-2.1189,-2.1211,-2.1211,-2.1211,-2.1211,-2.1211,-2.1211,-2.1211,0.0,-2.1211,-2.1211,-2.1211,-2.1211,-2.1211,-2.1211,-2.1211,-2.1211,-2.1211,-2.1211,-2.1211,-2.1211,-2.1211,-2.1211,-2.1211,-2.1211,-2.1211,-2.1211,-2.1211,-2.1211,-2.1211,-2.1211,-2.1211,-2.1211,-2.1211,-2.1152,-2.1115,-2.1115,-2.1057,-2.0911,-2.0647,-2.0329,-2.0183,-2.0183,-2.0179,-2.0142,-2.0142,-2.0084,-2.0055,-2.0055,-2.0055,-2.0055,-2.0047,-1.9738,-1.9614,0.0,0.0,0.0,0.0,0.0,0.0,0.0,0.0,0.0,0.0,0.0,-1.5767,0.0,0.0,-1.6543,-1.7011,-1.7362,-1.7743,-1.8233,-1.8584,-1.932,-2.0655,-2.0658,-2.0897,-2.1582,-2.1971,-2.205,-2.1655,-2.2938,-2.3522,-2.3046,-2.3947,-2.4141,-2.3591,-2.3215,-2.2974,-2.2966,-2.2974,-2.3311,-2.3855,-2.445,-2.4727,-2.4671,-2.3519,-2.2974,-2.2918,-2.171,-2.1211,-2.1211,-2.1211,-2.1211,-2.1211,-2.1211,-2.1211,-2.1211,-2.1211,-2.1211,-2.1211,-2.1211,-2.1211,-2.1211,-2.1211,-2.1211,-2.1211,-2.1211,-2.1211,-2.1211,-2.1211,-2.1211,-2.1211,-2.1211,-2.1211,-2.1211,-2.1211,-2.1211,-2.1211,-2.1211,-2.1211,-2.1211,-2.1211,-2.1211,-2.1211,-2.1211,-2.1211,-2.1211,-2.1211,-2.1211,-2.1211,-2.1211,-2.1211,-2.1211,-2.1211,-2.1211,-2.1211,-2.1211,-2.1211,-2.1137,-2.0976,-2.0808,-2.072,-2.072,-2.0567,-2.0424,-2.0424,-2.0263,-2.0183,-2.0183,-2.0183,-2.0183,-2.0183,-2.0237,-2.0095,0.0,0.0,0.0,0.0,0.0,0.0,0.0,0.0,-1.658,-1.6844,-1.6404,-1.6118,-1.6484,-1.6815,-1.7069,-1.7457,-1.7794,-1.8189,-1.8716,-1.884,-1.9255,-2.0155,-1.9767,-1.9934,-2.1281,-2.1333,-2.1102,-2.0624,-2.1758,-2.2387,-2.2229,-2.2711,-2.2869,-2.2644,-2.2644,-2.2207,-2.1211,-2.215,-2.2644,-2.2644,-2.3575,-2.4014,-2.4014,-2.3087,-2.2644,-2.2595,-2.1596,-2.1211,-2.1211,-2.1211,-2.1211,-2.1211,-2.1211,-2.1211,-2.1211,-2.1211,-2.1211,-2.1211,-2.1211,-2.1211,-2.1211,-2.1211,-2.1211,-2.1211,-2.1211,-2.1211,-2.1211,-2.1211,-2.1211,-2.1211,-2.1211,-2.1211,-2.1211,-2.1211,-2.1211,-2.1211,-2.1211,-2.1211,-2.1211,-2.1211,-2.1211,-2.1211,-2.1211,-2.1211,-2.1211,-2.1211,-2.1211,-2.1211,-2.1211,-2.1211,-2.1211,-2.1211,-2.1211,-2.1211,-2.1211,-2.1211,-2.1211,-2.1211,-2.1211,-2.1211,-2.1211,-2.0955,-2.0815,-2.0815,-2.0504,-2.0373,-2.0373,-2.0373,-2.0373,-2.0373,-2.0691,-2.0521,-1.7279,-1.7279,-1.7279,-1.7279,-1.7279,-1.7279,0.0,0.0,-1.6859,-1.6895,-1.6609,-1.6506,-1.7106,-1.7252,-1.7479,-1.8094,-1.8467,-1.8701,-1.8774,-1.9038,-1.9382,-1.9827,-1.9788,-2.0189,-2.1304,-2.1023,-2.1118,-2.201,-2.2609,-2.2484,-2.1373,-2.2402,-2.2482,-2.1432,-2.1375,-2.1318,-2.1211,-2.1318,-2.1375,-2.1375,-2.1539,-2.1596,-2.1596,-2.1489,-2.1375,-2.1375,-2.1268,-2.1211,-2.1211,-2.1211,-2.1211,-2.1211,-2.1211,-2.1211,-2.1211,-2.1211,-2.1211,-2.1211,-2.1211,-2.1211,-2.1211,-2.1211,-2.1211,-2.1211,-2.1211,-2.1211,-2.1211,-2.1211,-2.1211,-2.1211,-2.1211,-2.1211,-2.1211,-2.1211,-2.1211,-2.1211,-2.1211,-2.1211,-2.1211,-2.1211,-2.1211,-2.1211,-2.1211,-2.1211,-2.1211,-2.1211,-2.1211,-2.1211,-2.1211,-2.1211,-2.1211,-2.1211,-2.1211,-2.1211,-2.1211,-2.1211,-2.1211,-2.1211,-2.1211,-2.1211,-2.1211,-2.1174,-2.1159,-2.1159,-2.1123,-2.1101,-2.1101,-2.1101,-2.1101,-2.1101,-2.1137,-2.0927,-1.7279,-1.7279,-1.7279,0.0,-1.7279,-1.7279,-1.7279,-1.7084,-1.6954,-1.7091,-1.7018,-1.7069,-1.753,-1.7765,-1.805,0.0,-1.8701,-1.8855,-1.9045,-1.9404,-1.9661,-1.9801,-2.0091,-2.0482,-2.0959,-2.0837,-2.0962,-2.1598,-2.1847,-2.1702,-2.1211,-2.1653,-2.171,-2.1211,-2.1211,-2.1211,-2.1211,-2.1211,-2.1211,-2.1211,-2.1211,-2.1211,-2.1211,-2.1211,-2.1211,-2.1211,-2.1211,-2.1211,-2.1211,-2.1211,-2.1211,-2.1211,-2.1211,-2.1211,-2.1211,-2.1211,-2.1211,-2.1211,-2.1211,-2.1211,-2.1211,-2.1211,-2.1211,-2.1211,-2.1211,-2.1211,-2.1211,-2.1211,-2.1211,-2.1211,-2.1211,-2.1211,-2.1211,-2.1211,-2.1211,-2.1211,-2.1211,-2.1211,-2.1211,-2.1211,-2.1211,-2.1211,-2.1211,-2.1211,-2.1211,-2.1211,-2.1211,-2.1211,-2.1211,-2.1211,-2.1211,-2.1211,-2.1211,-2.1211,-2.1211,-2.1211,-2.1211,-2.1211,-2.1211,-2.1211,-2.1211,-2.1211,-2.1211,-2.1211,-2.1211,-2.1211,-2.1211,-2.1211,-2.1211,-2.1211,-2.1211,-2.1137,-1.7279,0.0,0.0,-1.7279,-1.7279,-1.7279,-1.7279,-1.715,-1.7055,-1.7282,-1.7352,-1.756,-1.7889,-1.8218,-1.854,-1.8869,-1.8921,-1.9038,-1.9367,-1.9669,-1.9881,-2.0011,-2.0435,-2.0757,-2.0852,-2.0859,-2.0955,-2.1196,-2.1211,-2.1211,-2.1211,-2.1211,-2.1211,-2.1211,-2.1211,-2.1211,-2.1211,-2.1211,-2.1211,-2.1211,-2.1211,-2.1211,-2.1211,-2.1211,-2.1211,-2.1211,-2.1211,-2.1211,-2.1211,-2.1211,-2.1211,-2.1211,-2.1211,-2.1211,-2.1211,-2.1211,-2.1211,-2.1211,-2.1211,-2.1211,-2.1211,-2.1211,-2.1211,-2.1211,-2.1211,-2.1211,-2.1211,-2.1211,-2.1211,-2.1211,-2.1211,-2.1211,-2.1211,-2.1211,-2.1211,-2.1211,-2.1211,-2.1211,-2.1211,-2.1211,-2.1211,-2.1211,-2.1211,-2.1211,-2.1211,-2.1211,-2.1211,-2.1211,-2.1211,-2.1211,-2.1211,-2.1211,-2.1211,-2.1211,-2.1211,-2.1211,-2.1211,-2.1211,-2.1211,-2.1211,-2.1211,-2.1211,-2.1211,-2.1211,-2.1211,-2.1211,-2.1211,-2.1211,-2.1211,-2.1211,-2.1211,-2.1211,0.0,0.0,-1.7279,-1.7279,-1.7279,-1.7279,-1.7279,-1.7271,-1.7271,-1.7279,-1.7582,-1.7904,-1.8225,-1.8555,-1.8884,-1.9206,-1.9257,-1.9426,-1.9757,-1.9808,-1.9996,-2.0618,-2.0713,-2.0852,0.0,-2.1196,-2.1196,-2.1211,-2.1211,-2.1211,-2.1211,-2.1211,-2.1211,-2.1211,-2.1211,-2.1211,-2.1211,-2.1211,-2.1211,-2.1211,-2.1211,-2.1211,-2.1211,-2.1211,-2.1211,-2.1211,-2.1211,-2.1211,-2.1211,-2.1211,-2.1211,-2.1211,-2.1211,-2.1211,-2.1211,-2.1211,-2.1211,-2.1211,-2.1211,-2.1211,-2.1211,-2.1211,-2.1211,-2.1211,-2.1211,-2.1211,-2.1211,-2.1211,-2.1211,-2.1211,-2.1211,-2.1211,-2.1211,-2.1211,-2.1211,-2.1211,-2.1211,-2.1211,-2.1211,-2.1211,-2.1211,-2.1211,-2.1211,-2.1211,-2.1211,-2.1211,-2.1211,-2.1211,-2.1211,-2.1211,-2.1211,-2.1211,-2.1211,-2.1211,-2.1211,-2.1211,-2.1211,-2.1211,-2.1211,-2.1211,-2.1211,-2.1211,-2.1211,-2.1211,-2.1211,-2.1211,-2.1211,-2.1211,-2.1211,-2.1211,-2.1211,-2.1211,0.0,0.0,-1.7279,-1.7279,-1.7279,-1.7279,-1.7279,-1.7279,-1.7279,-1.7279,-1.7757,-1.8174,-1.8284,-1.8745,-1.9147,-1.9257,-1.9279,-1.9441,-1.9771,-1.9945,-2.0237,-2.0669,-2.0911,0.0,0.0,0.0,0.0,-2.1211,-2.1211,-2.1211,-2.1211,-2.1211,-2.1211,-2.1211,-2.1211,-2.1211,-2.1211,-2.1211,-2.1211,-2.1211,-2.1211,-2.1211,-2.1211,-2.1211,-2.1211,-2.1211,-2.1211,-2.1211,-2.1211,-2.1211,-2.1211,-2.1211,-2.1211,-2.1211,-2.1211,-2.1211,-2.1211,-2.1211,-2.1211,-2.1211,-2.1211,-2.1211,-2.1211,-2.1211,-2.1211,-2.1211,-2.1211,-2.1211,-2.1211,-2.1211,-2.1211,-2.1211,-2.1211,-2.1211,-2.1211,-2.1211,-2.1211,-2.1211,-2.1211,-2.1211,-2.1211,-2.1211,-2.1211,-2.1211,-2.1211,-2.1211,-2.1211,-2.1211,-2.1211,-2.1211,-2.1211,-2.1211,-2.1211,-2.1211,-2.1211,-2.1211,-2.1211,-2.1211,-2.1211,-2.1211,-2.1211,-2.1211,-2.1211,-2.1211,-2.1211,-2.1211,-2.1211,-2.1211,-2.1211,-2.1211,-2.1211,-2.1211,0.0,-1.7279,-1.7279,-1.7279,-1.7279,-1.7279,-1.7279,-1.7279,-1.7279,-1.7279,-1.7757,-1.8167,-1.8284,-1.8738,-1.914,-1.9257,-1.9279,-1.9425,-1.9872,-2.0106,-2.0343,-2.0845,-2.1086,-2.1211,0.0,0.0,0.0,-2.1211,-2.1211,-2.1211,-2.1211,-2.1211,-2.1211,-2.1211,-2.1211,-2.1211,-2.1211,-2.1211,-2.1211,-2.1211,-2.1211,-2.1211,-2.1211,-2.1211,-2.1211,-2.1211,-2.1211,-2.1211,-2.1211,-2.1211,-2.1211,-2.1211,-2.1211,-2.1211,-2.1211,-2.1211,-2.1211,-2.1211,-2.1211,-2.1211,-2.1211,-2.1211,-2.1211,-2.1211,-2.1211,-2.1211,-2.1211,-2.1211,-2.1211,-2.1211,-2.1211,-2.1211,-2.1211,-2.1211,-2.1211,-2.1211,-2.1211,-2.1211,-2.1211,-2.1211,-2.1211,-2.1211,-2.1211,-2.1211,-2.1211,-2.1211,-2.1211,-2.1211,-2.1211,-2.1211,-2.1211,-2.1211,-2.1211,-2.1211,-2.1211,-2.1211,-2.1211,-2.1211,-2.1211,-2.1211,-2.1211,-2.1211,-2.1211,-2.1211,-2.1211,-2.1211,-2.1211,-2.1211,-2.1211,-2.1211,-2.1211,-2.1211,-1.7279,-1.7279,-1.7286,-1.7301,-1.7355,-1.7355,-1.7355,-1.7355,-1.7301,-1.7286,-1.7589,-1.7918,0.0,0.0,-1.8891,-1.9272,-1.9279,-1.9499,-2.0142,-2.0183,-2.0424,0.0,0.0,0.0,0.0,0.0,0.0,-2.1211,0.0,-2.1211,-2.1211,-2.1211,-2.1211,-2.1211,-2.1211,-2.1211,-2.1211,-2.1211,-2.1211,-2.1211,-2.1211,-2.1211,-2.1211,-2.1211,-2.1211,-2.1211,-2.1211,-2.1211,-2.1211,-2.1211,-2.1211,-2.1211,-2.1211,-2.1211,-2.1211,-2.1211,-2.1211,-2.1211,-2.1211,-2.1211,-2.1211,-2.1211,-2.1211,-2.1211,-2.1211,-2.1211,-2.1211,-2.1211,-2.1211,-2.1211,-2.1211,-2.1211,-2.1211,-2.1211,-2.1211,-2.1211,-2.1211,-2.1211,-2.1211,-2.1211,-2.1211,-2.1211,-2.1211,-2.1211,-2.1211,-2.1211,-2.1211,-2.1211,-2.1211,-2.1211,-2.1211,-2.1211,-2.1211,-2.1211,-2.1211,-2.1211,-2.1211,-2.1211,-2.1211,-2.1211,-2.1211,-2.1211,-2.1211,-2.1211,-2.1211,-2.1211,-2.1211,-2.1211,-2.1211,-2.1211,-2.1225,-2.1233,-1.7279,-1.7279,-1.7337,-1.7625,-1.7691,-1.7691,-1.7691,-1.7691,-1.7618,-1.733,-1.7589,-1.7918,0.0,0.0,0.0,-1.9272,-1.9279,0.0,-2.0142,-2.0183,0.0,-2.113,0.0,-2.1211,-2.1211,-2.1211,0.0,0.0,-2.1211,-2.1211,-2.1211,-2.1211,-2.1211,-2.1211,-2.1211,-2.1211,-2.1211,-2.1211,-2.1211,-2.1211,-2.1211,-2.1211,-2.1211,-2.1211,-2.1211,-2.1211,-2.1211,-2.1211,-2.1211,-2.1211,-2.1211,-2.1211,-2.1211,-2.1211,-2.1211,-2.1211,-2.1211,-2.1211,-2.1211,-2.1211,-2.1211,-2.1211,-2.1211,-2.1211,-2.1211,-2.1211,-2.1211,-2.1211,-2.1211,-2.1211,-2.1211,-2.1211,-2.1211,-2.1211,-2.1211,-2.1211,-2.1211,-2.1211,-2.1211,-2.1211,-2.1211,-2.1211,-2.1211,-2.1211,-2.1211,-2.1211,-2.1211,-2.1211,-2.1211,-2.1211,-2.1211,-2.1211,-2.1211,-2.1211,-2.1211,-2.1211,-2.1211,-2.1211,-2.1211,-2.1211,-2.1211,-2.1211,-2.1211,-2.1211,-2.1211,-2.1211,-2.1211,-2.1211,-2.1211,-2.1218,-2.1459,-2.1569,-1.7279,-1.7388,-1.7541,-1.7772,-1.7816,-1.7816,-1.7816,-1.7706,-1.7552,-1.7315,-1.7425,0.0,-1.8028,0.0,0.0,0.0,0.0,0.0,-2.0142,-2.0183,-2.0424,0.0,-2.1211,0.0,-2.1211,-2.1211,-2.1211,0.0,-2.1211,-2.1211,-2.1211,-2.1211,-2.1211,-2.1211,-2.1211,-2.1211,-2.1211,-2.1211,-2.1211,-2.1211,-2.1211,-2.1211,-2.1211,-2.1211,-2.1211,-2.1211,0.0,-2.1211,-2.1211,-2.1211,-2.1211,-2.1211,-2.1211,-2.1211,-2.1211,-2.1211,-2.1211,-2.1211,-2.1211,-2.1211,-2.1211,-2.1211,-2.1211,-2.1211,-2.1211,-2.1211,-2.1211,-2.1211,-2.1211,-2.1211,-2.1211,-2.1211,-2.1211,-2.1211,-2.1211,-2.1211,-2.1211,-2.1211,-2.1211,-2.1211,-2.1211,-2.1211,-2.1211,-2.1211,-2.1211,-2.1211,-2.1211,-2.1211,-2.1211,-2.1211,-2.1211,-2.1211,-2.1211,-2.1211,-2.1211,-2.1211,-2.1211,-2.1211,-2.1211,-2.1211,-2.1211,-2.1211,-2.1211,-2.1211,-2.1211,-2.1276,-2.1423,-2.1423,-2.1496,-2.1642,-2.1825,-2.1913,-1.7279,-1.752,-1.7816,-1.7816,-1.7845,-1.7867,-1.7823,-1.7596,-1.733,-1.7286,0.0,-1.7381,-1.7757,-1.8079,-1.8408,-1.8738,0.0,-1.9499,-2.0142,-2.0183,-2.0424,-2.113,-2.1211,-2.1211,-2.1211,-2.1211,-2.1211,-2.1211,-2.1211,-2.1211,-2.1211,-2.1211,-2.1211,-2.1211,-2.1211,-2.1211,-2.1211,-2.1211,-2.1211,-2.1211,-2.1211,-2.1211,-2.1211,-2.1211,-2.1211,-2.1211,-2.1211,-2.1211,-2.1211,-2.1211,-2.1211,-2.1211,-2.1211,-2.1211,-2.1211,-2.1211,-2.1211,-2.1211,-2.1211,-2.1211,-2.1211,-2.1211,-2.1211,-2.1211,-2.1211,-2.1211,-2.1211,-2.1211,-2.1211,-2.1211,-2.1211,-2.1211,-2.1211,-2.1211,-2.1211,-2.1211,-2.1211,-2.1211,-2.1211,-2.1211,-2.1211,-2.1211,-2.1211,-2.1211,-2.1211,-2.1211,-2.1211,-2.1211,-2.1211,-2.1211,-2.1211,-2.1211,-2.1211,-2.1211,-2.1211,-2.1211,-2.1211,-2.1211,-2.1211,-2.1211,-2.1211,-2.1247,-2.1276,-2.1276,-2.1313,-2.1481,-2.1759,-2.1759,-2.1906,-2.2184,-2.2228,-2.2242,-1.7279,-1.752,-1.7816,-1.7816,-1.8021,-1.8145,-1.7874,-1.7772,0.0,0.0,-1.7279,-1.7381,-1.7757,-1.8079,-1.8408,-1.8738,0.0,0.0,0.0,0.0,-2.0424,0.0,0.0,0.0,0.0,0.0,0.0,0.0,0.0,-2.1211,-2.1211,-2.1211,-2.1211,-2.1211,-2.1211,-2.1211,-2.1211,-2.1211,-2.1211,-2.1211,-2.1211,-2.1211,-2.1211,-2.1211,-2.1211,-2.1211,-2.1211,0.0,-2.1211,-2.1211,-2.1211,-2.1211,-2.1211,-2.1211,-2.1211,-2.1211,-2.1211,-2.1211,-2.1211,-2.1211,-2.1211,-2.1211,-2.1211,-2.1211,-2.1211,-2.1211,-2.1211,-2.1211,-2.1211,-2.1211,-2.1211,-2.1211,-2.1211,-2.1211,-2.1211,-2.1211,-2.1211,-2.1211,-2.1211,-2.1211,-2.1211,-2.1211,-2.1211,-2.1211,-2.1211,-2.1211,-2.1211,-2.1211,-2.1211,-2.1211,-2.1211,-2.1211,-2.1211,-2.1211,-2.1211,-2.1211,-2.1211,-2.1211,-2.1211,-2.1211,-2.1211,-2.1467,-2.1613,-2.1613,-2.1876,-2.2045,-2.2096,-2.2096,-2.2125,-2.2191,-2.2432,-2.255,-1.7279,-1.752,-1.7816,-1.7816,-1.7933,-1.8006,-1.7852,0.0,0.0,0.0,-1.7279,-1.733,-1.753,0.0,0.0,0.0,0.0,0.0,0.0,0.0,0.0,0.0,0.0,0.0,0.0,0.0,0.0,0.0,0.0,-2.1211,-2.1211,-2.1211,-2.1211,-2.1211,-2.1211,-2.1211,-2.1211,-2.1211,-2.1211,-2.1211,-2.1211,-2.1211,-2.1211,-2.1211,-2.1211,-2.1211,-2.1211,-2.1211,-2.1211,-2.1211,-2.1211,-2.1211,-2.1211,-2.1211,-2.1211,-2.1211,-2.1211,-2.1211,-2.1211,-2.1211,-2.1211,-2.1211,-2.1211,-2.1211,-2.1211,-2.1211,-2.1211,-2.1211,-2.1211,-2.1211,-2.1211,-2.1211,-2.1211,-2.1211,-2.1211,-2.1211,-2.1211,-2.1211,-2.1211,-2.1211,-2.1211,-2.1211,-2.1211,-2.1211,-2.1211,-2.1211,-2.1211,-2.1211,-2.1211,-2.1211,-2.1211,-2.1211,-2.1211,-2.1211,-2.1211,-2.1211,-2.1284,-2.1452,-2.1459,-2.154,-2.1708,-2.1869,-2.195,-2.195,-2.2103,-2.2257,-2.241,-2.241,-2.2498,-2.2667,-2.2813,-2.2871,-1.7264,-1.752,-1.7801,-1.7728,-1.7765,-1.7794,-1.7728,-1.7508,0.0,0.0,-1.7279,-1.7279,-1.7279,0.0,-1.7918,0.0,0.0,0.0,0.0,0.0,0.0,0.0,0.0,0.0,0.0,0.0,0.0,0.0,0.0,0.0,-2.1211,-2.1211,-2.1211,-2.1211,-2.1211,-2.1211,-2.1211,-2.1211,-2.1211,-2.1211,-2.1211,-2.1211,-2.1211,-2.1211,-2.1211,-2.1211,-2.1211,-2.1211,-2.1211,-2.1211,-2.1211,-2.1211,-2.1211,-2.1211,-2.1211,-2.1211,-2.1211,-2.1211,-2.1211,-2.1211,-2.1211,-2.1211,-2.1211,-2.1211,-2.1211,-2.1211,-2.1211,-2.1211,-2.1211,-2.1211,-2.1211,-2.1211,-2.1211,-2.1211,-2.1211,-2.1211,-2.1211,-2.1211,-2.1211,-2.1211,-2.1211,-2.1233,-2.1306,-2.1313,-2.1342,-2.1408,-2.1415,-2.1415,-2.1415,-2.1415,-2.1415,-2.1415,-2.1298,-2.124,-2.1306,-2.1313,-2.1452,-2.1781,-2.1803,-2.1913,-2.2169,-2.2242,-2.2279,-2.2279,-2.2345,-2.2498,-2.2725,-2.2725,-2.2857,-2.3106,-2.3106,-2.3106,-1.7252,-1.752,-1.7743,-1.7395,-1.7549,-1.7735,-1.7443,0.0,0.0,-1.7279,-1.7279,-1.7279,-1.7279,-1.7549,-1.7918,0.0,0.0,-1.903,0.0,0.0,0.0,0.0,0.0,0.0,0.0,0.0,0.0,0.0,0.0,0.0,-2.1211,-2.1211,-2.1211,-2.1211,-2.1211,-2.1211,-2.1211,-2.1211,-2.1211,-2.1211,-2.1211,-2.1211,-2.1211,-2.1211,-2.1211,-2.1211,-2.1211,-2.1211,0.0,-2.1211,-2.1211,-2.1211,-2.1211,-2.1211,-2.1211,-2.1211,-2.1211,-2.1211,-2.1211,-2.1211,-2.1211,-2.1211,-2.1211,-2.1211,-2.1211,-2.1211,-2.1211,-2.1211,-2.1211,-2.1211,-2.1211,-2.1211,-2.1211,-2.1211,-2.1211,-2.1211,-2.1211,-2.1211,-2.1211,-2.1211,-2.1211,-2.1306,-2.1598,-2.165,-2.1752,-2.2052,-2.2096,-2.2096,-2.2096,-2.2096,-2.2096,-2.2096,-2.1562,-2.1328,-2.1628,-2.165,-2.1789,-2.2118,-2.214,-2.2154,-2.2184,-2.244,-2.2579,-2.2579,-2.2871,-2.304,-2.3062,-2.3062,-2.3084,-2.3106,-2.3106,-2.3106,-1.7011,-1.7282,-1.7494,-1.7315,-1.7381,-1.7439,-1.7308,0.0,-1.7279,-1.7279,-1.7279,-1.7279,-1.7279,-1.7388,-1.7691,0.0,0.0,0.0,0.0,0.0,0.0,0.0,0.0,0.0,0.0,0.0,0.0,0.0,0.0,0.0,-2.1211,-2.1211,-2.1211,-2.1211,-2.1211,-2.1211,-2.1211,-2.1211,-2.1211,-2.1211,-2.1211,-2.1211,-2.1211,-2.1211,-2.1211,-2.1211,-2.1211,-2.1211,0.0,-2.1211,-2.1211,-2.1211,-2.1211,-2.1211,-2.1211,-2.1211,-2.1211,-2.1211,-2.1211,-2.1211,-2.1211,-2.1211,-2.1211,-2.1211,-2.1211,-2.1211,-2.1211,-2.1211,-2.1211,-2.1211,-2.1211,-2.1357,-2.1503,-2.1503,-2.165,-2.1796,-2.1796,-2.1796,-2.1796,-2.1796,-2.1796,-2.184,-2.1972,-2.1986,-2.2037,-2.2162,-2.2184,-2.2184,-2.2184,-2.2184,-2.2184,-2.2184,-2.195,-2.1847,-2.1979,-2.1986,-2.2125,-2.2425,-2.2447,-2.2535,-2.2732,-2.2857,-2.2915,-2.2915,-2.3047,-2.3106,-2.3106,-2.3106,-2.3106,-2.3106,-2.3106,-2.3106,-1.6851,-1.7018,-1.7208,-1.7257,-1.7279,-1.7279,0.0,0.0,-1.7279,-1.7279,-1.7279,-1.7279,-1.7279,-1.7279,-1.7545,0.0,0.0,-1.8613,-1.9491,0.0,0.0,0.0,0.0,0.0,0.0,0.0,0.0,0.0,0.0,0.0,-2.1211,-2.1211,-2.1211,-2.1211,-2.1211,-2.1211,-2.1211,-2.1211,-2.1211,-2.1211,-2.1211,-2.1211,-2.1211,-2.1211,-2.1211,-2.1211,-2.1211,-2.1211,0.0,-2.1211,-2.1211,-2.1211,-2.1211,-2.1211,-2.1211,-2.1211,-2.1211,-2.1211,-2.1211,-2.1211,-2.1211,-2.1211,-2.1211,-2.1211,-2.1211,-2.1211,-2.1211,-2.1211,-2.1211,-2.1233,-2.1328,-2.1525,-2.1723,-2.1818,-2.2015,-2.2184,-2.2184,-2.2184,-2.2184,-2.2184,-2.2184,-2.2213,-2.2301,-2.2315,-2.2345,-2.244,-2.2454,-2.2454,-2.2454,-2.2454,-2.2454,-2.2454,-2.2454,-2.2418,-2.2323,-2.2315,-2.244,-2.2747,-2.2762,-2.2871,-2.3098,-2.3106,-2.3106,-2.3106,-2.3106,-2.3106,-2.3106,-2.3106,-2.3106,-2.3106,-2.3106,-2.3407,-1.6734,-1.6903,-1.6983,-1.7252,-1.7279,-1.7279,0.0,0.0,-1.7279,-1.7279,-1.7279,-1.7279,-1.7279,-1.7279,-1.7545,-1.8196,-1.8299,0.0,-1.9184,0.0,0.0,0.0,0.0,0.0,0.0,0.0,0.0,0.0,0.0,0.0,-2.1211,-2.1211,-2.1211,-2.1211,-2.1211,-2.1211,-2.1211,-2.1211,-2.1211,-2.1211,-2.1211,-2.1211,-2.1211,-2.1211,-2.1211,-2.1211,-2.1211,-2.1211,0.0,-2.1211,-2.1211,-2.1211,-2.1211,-2.1211,-2.1211,-2.1211,-2.1211,-2.1211,-2.1211,-2.1211,-2.1211,-2.1211,-2.1211,-2.1211,-2.1211,-2.1211,-2.1211,-2.1211,-2.1211,-2.1284,-2.1606,-2.1693,-2.1774,-2.2103,-2.2184,-2.2184,-2.2184,-2.2184,-2.2184,-2.2184,-2.2184,-2.2271,-2.2564,-2.2615,-2.2725,-2.3054,-2.3098,-2.3098,-2.3098,-2.3098,-2.3098,-2.3098,-2.3098,-2.2967,-2.2645,-2.2615,-2.2754,-2.3084,-2.3106,-2.3106,-2.3106,-2.3106,-2.3106,-2.3106,-2.3106,-2.3106,-2.3106,-2.3106,-2.3106,-2.3106,-2.3106,-2.4018,-1.6162,-1.6367,-1.6646,-1.6969,-1.7049,-1.7062,-1.7274,0.0,-1.7279,-1.7279,-1.7279,-1.7279,-1.7279,-1.7279,-1.7425,-1.7904,-1.8152,0.0,0.0,0.0,0.0,0.0,0.0,0.0,0.0,0.0,0.0,0.0,-2.1211,-2.1211,-2.1211,-2.1211,-2.1211,-2.1211,-2.1211,-2.1211,-2.1211,-2.1211,-2.1211,-2.1211,-2.1211,-2.1211,-2.1211,-2.1211,-2.1211,-2.1211,-2.1211,-2.1211,-2.1211,-2.1211,-2.1211,-2.1211,-2.1211,-2.1211,-2.1211,-2.1211,-2.1211,-2.1211,-2.1211,-2.1211,-2.1211,-2.1211,-2.1211,-2.1211,-2.1211,-2.1211,-2.1211,-2.1211,-2.1372,-2.1569,-2.1672,-2.2008,-2.2359,-2.2462,-2.2652,-2.2813,-2.2813,-2.2813,-2.2813,-2.2813,-2.2813,-2.2849,-2.2937,-2.2952,-2.2988,-2.3091,-2.3106,-2.3106,-2.3106,-2.3106,-2.3106,-2.3106,-2.3907,-2.4047,-2.3029,-2.2952,-2.3368,-2.4386,-2.3596,-2.3907,-2.5676,-2.4949,-2.4887,-2.5737,-2.5798,-2.5913,-2.615,-2.615,-2.6343,-2.6643,-2.6643,-2.696,0.0,-1.6052,-1.6272,-1.6639,-1.6719,0.0,0.0,0.0,-1.7179,-1.7257,-1.7279,-1.7279,-1.7279,-1.7279,-1.7425,-1.7925,-1.8167,0.0,0.0,0.0,0.0,0.0,0.0,0.0,0.0,0.0,-2.1211,-2.1211,-2.1211,-2.1211,-2.1211,-2.1211,-2.1211,-2.1211,-2.1211,-2.1211,-2.1211,-2.1211,-2.1211,-2.1211,-2.1211,-2.1211,-2.1211,-2.1211,-2.1211,-2.1211,-2.1211,-2.1211,0.0,-2.1211,-2.1211,-2.1211,-2.1211,-2.1211,-2.1211,-2.1211,-2.1211,-2.1211,-2.1211,-2.1211,-2.1211,-2.1211,-2.1211,-2.1211,-2.1211,-2.1211,-2.1233,-2.1357,-2.154,-2.1752,-2.1986,-2.233,-2.2652,-2.2776,-2.2959,-2.3106,-2.3106,-2.3106,-2.3106,-2.3106,-2.3106,-2.3106,-2.3106,-2.3106,-2.3106,-2.3106,-2.3542,-2.3845,-2.3845,-2.427,-2.4571,-2.4571,-2.5309,-2.5493,-2.4633,-2.4571,-2.4941,-2.5737,-2.5002,-2.5365,-2.7157,-2.6486,-2.6491,-2.7494,-2.7502,-2.7614,-2.7846,-2.7846,-2.8028,-2.8323,-2.8965,-2.9287,0.0,0.0,0.0,0.0,0.0,0.0,0.0,0.0,0.0,-1.726,-1.7279,-1.7279,-1.7279,-1.7279,-1.749,-1.8167,-1.8284,-1.8525,0.0,-1.9301,0.0,0.0,0.0,0.0,-2.1211,-2.1211,-2.1211,-2.1211,-2.1211,-2.1211,-2.1211,-2.1211,-2.1211,-2.1211,-2.1211,-2.1211,-2.1211,-2.1211,-2.1211,-2.1211,-2.1211,-2.1211,-2.1211,-2.1211,-2.1211,0.0,-2.1211,-2.1211,-2.1211,-2.1211,-2.1211,-2.1211,-2.1211,-2.1211,-2.1211,-2.1211,-2.1211,-2.1211,-2.1211,-2.1211,-2.1211,-2.1211,-2.1211,-2.1211,-2.1211,-2.1225,-2.1306,-2.1613,-2.173,-2.1891,-2.2469,-2.2637,-2.2732,-2.304,-2.3106,-2.3106,-2.3106,-2.3106,-2.3106,-2.3106,-2.3106,-2.3106,-2.3106,-2.3168,-2.323,-2.323,-2.4394,-2.5256,-2.5256,-2.6286,-2.7013,-2.7013,-2.7099,-2.7177,-2.7177,-2.709,-2.703,-2.7177,-2.7116,-2.7279,-2.7903,-2.785,-2.8014,-2.8565,-2.86,-2.8609,-2.8609,-2.8644,-2.8652,-2.8724,-3.0347,-3.1088,0.0,0.0,0.0,0.0,0.0,0.0,0.0,0.0,0.0,0.0,0.0,0.0,0.0,-1.7279,-1.7465,-1.7867,-1.8138,-1.8445,-1.8847,0.0,0.0,-2.0161,-2.0808,-2.1211,-2.1211,-2.1211,-2.1211,-2.1211,-2.1211,-2.1211,-2.1211,-2.1211,-2.1211,-2.1211,-2.1211,-2.1211,-2.1211,-2.1211,-2.1211,-2.1211,-2.1211,-2.1211,-2.1211,-2.1211,-2.1211,-2.1211,-2.1211,-2.1211,-2.1211,-2.1211,-2.1211,-2.1211,-2.1211,-2.1211,-2.1211,-2.1211,-2.1211,-2.1211,-2.1211,-2.1211,-2.1211,-2.1211,-2.1211,-2.1211,-2.1211,-2.1386,-2.1598,-2.1679,-2.2037,-2.244,-2.2586,-2.2806,-2.3018,-2.3091,-2.3106,-2.3106,-2.3106,-2.3106,-2.3106,-2.3106,-2.3106,-2.3106,-2.3106,-2.3969,-2.4641,-2.4641,-2.5737,-2.6529,-2.6529,-2.6831,-2.7013,-2.7013,-2.8181,-2.8965,-2.8965,-2.7782,-2.7557,-2.8877,-2.8044,-2.8535,-3.0992,-3.0116,-3.0091,-3.1275,-3.1589,-3.1751,-3.1751,-3.2064,-3.2216,-3.2216,-3.2637,-3.2811,0.0,0.0,0.0,0.0,0.0,0.0,0.0,0.0,0.0,0.0,0.0,0.0,0.0,0.0,0.0,0.0,-1.8189,0.0,0.0,0.0,0.0,-2.0387,-2.0903,-2.1211,0.0,-2.1211,-2.1211,-2.1211,-2.1211,-2.1211,-2.1211,-2.1211,-2.1211,-2.1211,-2.1211,-2.1211,-2.1211,-2.1211,-2.1211,-2.1211,-2.1211,-2.1211,-2.1211,-2.1211,-2.1211,-2.1211,-2.1211,-2.1211,-2.1211,-2.1211,-2.1211,-2.1211,-2.1211,-2.1211,-2.1211,-2.1211,-2.1211,-2.1211,-2.1211,-2.1211,-2.1211,-2.1211,-2.1211,-2.124,-2.1386,-2.1657,-2.192,-2.192,-2.2257,-2.2659,-2.2806,-2.2974,-2.3106,-2.3106,-2.3106,-2.3106,-2.3106,-2.3596,-2.4031,-2.4031,-2.4031,-2.4209,-2.4818,-2.501,-2.5317,-2.5859,-2.7065,-2.7847,-2.7847,-2.8556,-2.9034,-2.9034,-3.0074,-3.0812,-3.0812,-2.993,-2.9771,-3.0732,-3.0124,-3.0564,-3.237,-3.1807,-3.1832,-3.2734,-3.2969,-3.3086,-3.3086,-3.331,-3.3418,-3.3418,-3.3418,-3.3418,0.0,0.0,0.0,0.0,0.0,0.0,0.0,0.0,0.0,0.0,0.0,0.0,0.0,-1.7323,0.0,0.0,0.0,0.0,-1.9691,-2.0033,-2.03,-2.0684,-2.1013,0.0,-2.1211,-2.1211,-2.1211,-2.1211,-2.1211,-2.1211,-2.1211,-2.1211,-2.1211,-2.1211,-2.1211,-2.1211,-2.1211,-2.1211,-2.1211,-2.1211,-2.1211,-2.1211,-2.1211,-2.1211,-2.1211,-2.1211,0.0,0.0,-2.1211,-2.1211,-2.1211,-2.1211,-2.1211,-2.1211,-2.1211,-2.1211,-2.1211,-2.1211,-2.1211,-2.1211,-2.1211,-2.1211,-2.124,-2.1335,-2.1613,-2.1957,-2.225,-2.225,-2.2469,-2.2762,-2.304,-2.3106,-2.3106,-2.3106,-2.323,-2.3417,-2.3417,-2.4456,-2.5378,-2.5378,-2.5378,-2.5737,-2.6831,-2.6286,-2.6042,-2.7134,-2.8439,-2.9318,-2.9318,-3.0665,-3.1621,-3.1621,-3.2012,-3.2266,-3.2266,-3.2324,-3.2363,-3.2363,-3.2305,-3.2451,-3.2871,-3.2891,-3.3057,-3.3418,-3.3418,-3.3418,-3.3418,-3.3418,-3.3418,-3.3418,-3.3418,-3.3418,-1.5389,-1.5389,-1.5389,-1.5389,0.0,0.0,0.0,0.0,0.0,0.0,0.0,0.0,0.0,-1.7505,-1.7867,0.0,0.0,-1.9279,0.0,0.0,-2.03,-2.0684,0.0,-2.1211,-2.1211,-2.1211,-2.1211,-2.1211,-2.1211,-2.1211,-2.1211,-2.1211,-2.1211,-2.1211,-2.1211,-2.1211,-2.1211,-2.1211,-2.1211,-2.1211,-2.1211,-2.1211,-2.1211,-2.1211,-2.1211,-2.1211,0.0,-2.1211,-2.1211,-2.1211,-2.1211,-2.1211,-2.1211,-2.1211,-2.1211,-2.1211,-2.1211,-2.1211,-2.1211,-2.1211,-2.1211,-2.1211,-2.1393,-2.1635,-2.1679,-2.2096,-2.2557,-2.2557,-2.2784,-2.3047,-2.3098,-2.3106,-2.3106,-2.3106,-2.3969,-2.4764,-2.4764,-2.5798,-2.671,-2.671,-2.671,-2.6771,-2.6961,-2.7727,-2.8376,-2.8564,-3.0018,-3.1109,-3.1109,-3.1677,-3.207,-3.207,-3.2441,-3.2695,-3.2695,-3.3027,-3.3232,-3.3232,-3.29,-3.2891,-3.331,-3.333,-3.335,-3.3418,-3.3418,-3.3418,-3.3418,-3.3418,-3.3418,-3.3418,-3.3418,-3.3418,-1.5389,-1.5389,-1.5389,-1.5389,0.0,-1.5811,-1.6309,0.0,0.0,0.0,0.0,0.0,0.0,0.0,-1.7984,-1.8482,0.0,-1.9447,-1.9945,-2.0142,-2.0365,0.0,0.0,-2.1211,-2.1211,-2.1211,-2.1211,-2.1211,-2.1211,-2.1211,-2.1211,-2.1211,-2.1211,-2.1211,-2.1211,-2.1211,-2.1211,-2.1211,-2.1211,-2.1211,-2.1211,-2.1211,-2.1211,-2.1211,-2.1211,-2.1211,0.0,-2.1211,-2.1211,-2.1211,-2.1211,-2.1211,-2.1211,-2.1211,-2.1211,-2.1211,-2.1211,-2.1211,-2.1211,-2.1211,-2.1211,-2.1211,-2.143,-2.173,-2.1906,-2.2271,-2.2659,-2.2835,-2.2988,-2.3106,-2.3106,-2.3666,-2.4147,-2.4147,-2.5186,-2.6103,-2.6103,-2.7125,-2.8026,-2.8026,-2.8026,-2.8274,-2.9007,-2.9182,-2.949,-3.0175,-3.1214,-3.1865,-3.1865,-3.2246,-3.25,-3.25,-3.2881,-3.3135,-3.3135,-3.331,-3.3418,-3.3418,-3.3242,-3.3223,-3.3418,-3.3418,-3.3418,-3.3418,-3.3418,-3.3418,-3.3418,-3.3418,-3.3418,-3.3418,-3.3418,-3.3418,-1.5389,-1.5389,-1.5411,0.0,0.0,-1.5994,-1.6345,0.0,0.0,0.0,0.0,0.0,0.0,-1.794,0.0,-1.8811,-1.9111,-1.9499,-2.0142,-2.0183,-2.0424,-2.113,-2.1211,-2.1211,-2.1211,-2.1211,-2.1211,-2.1211,-2.1211,-2.1211,-2.1211,-2.1211,-2.1211,-2.1211,-2.1211,-2.1211,-2.1211,-2.1211,-2.1211,-2.1211,-2.1211,-2.1211,-2.1211,-2.1211,-2.1211,-2.1211,-2.1211,-2.1211,-2.1211,-2.1211,-2.1211,-2.1211,-2.1211,-2.1211,-2.1211,-2.1211,-2.1211,-2.1211,-2.1211,-2.1211,-2.1218,-2.1298,-2.1547,-2.1869,-2.2191,-2.2498,-2.2791,-2.304,-2.3355,-2.3604,-2.3604,-2.434,-2.5194,-2.5493,-2.6529,-2.7435,-2.7435,-2.8453,-2.9353,-2.9353,-2.9353,-2.9745,-3.084,-3.0498,-3.0426,-3.1531,-3.2041,-3.2314,-3.2314,-3.2685,-3.2939,-3.2939,-3.3232,-3.3418,-3.3418,-3.3418,-3.3418,-3.3418,-3.3418,-3.3418,-3.3418,-3.3418,-3.3418,-3.3418,-3.3418,-3.3418,-3.3418,-3.3418,-3.3418,-3.3418,-3.3418,-3.3418,-1.5389,-1.5389,-1.5462,-1.5804,-1.5899,0.0,-1.6345,-1.6668,0.0,-1.726,0.0,0.0,0.0,-1.8313,-1.8833,-1.9236,-1.9257,-1.9499,-2.0142,0.0,-2.0424,-2.113,-2.1211,-2.1211,-2.1211,-2.1211,-2.1211,-2.1211,-2.1211,-2.1211,-2.1211,-2.1211,-2.1211,-2.1211,-2.1211,-2.1211,-2.1211,-2.1211,-2.1211,-2.1211,-2.1211,-2.1211,-2.1211,-2.1211,-2.1211,-2.1211,-2.1211,-2.1211,-2.1211,-2.1211,-2.1211,-2.1211,-2.1211,-2.1211,-2.1211,-2.1211,-2.1211,-2.1211,-2.1211,-2.1211,-2.1262,-2.1562,-2.1884,-2.2206,-2.2506,-2.282,-2.3084,-2.3098,-2.3969,-2.4949,-2.4949,-2.501,-2.5378,-2.6589,-2.7847,-2.8742,-2.8742,-2.9785,-3.0762,-3.0762,-3.0762,-3.0889,-3.1406,-3.1375,-3.1531,-3.206,-3.248,-3.2754,-3.2754,-3.3115,-3.3379,-3.3379,-3.3408,-3.3418,-3.3418,-3.3418,-3.3418,-3.3418,-3.3418,-3.3418,-3.3418,-3.3418,-3.3418,-3.3418,-3.3418,-3.3418,-3.3418,-3.3418,-3.3418,-3.3418,-3.3418,-3.3418,-1.5389,-1.5389,-1.5462,-1.5833,-1.606,0.0,0.0,-1.6923,-1.7179,-1.7257,-1.7589,0.0,0.0,0.0,-1.9133,-1.9257,-1.9447,-1.9733,-2.0117,-2.0358,-2.0706,-2.1159,-2.1211,-2.1211,-2.1211,-2.1211,-2.1211,-2.1211,-2.1211,-2.1211,-2.1211,-2.1211,-2.1211,-2.1211,-2.1211,-2.1211,-2.1211,-2.1211,-2.1211,-2.1211,-2.1211,-2.1211,-2.1211,-2.1211,-2.1211,-2.1211,-2.1211,-2.1211,-2.1211,-2.1211,-2.1211,-2.1211,-2.1211,-2.1211,-2.1211,-2.1211,-2.1211,-2.1211,-2.1211,-2.1211,-2.1262,-2.1591,-2.1913,-2.2242,-2.2535,-2.2849,-2.3293,-2.4092,-2.4702,-2.5071,-2.5071,-2.6277,-2.7598,-2.8086,-2.9176,-3.0147,-3.0147,-3.0518,-3.0889,-3.0889,-3.1103,-3.1328,-3.1484,-3.1963,-3.2363,-3.2529,-3.292,-3.3184,-3.3184,-3.333,-3.3418,-3.3418,-3.3418,-3.3418,-3.3418,-3.3418,-3.3418,-3.3418,-3.3418,-3.3418,-3.3418,-3.3418,-3.3418,-3.3418,-3.3418,-3.3418,-3.3418,-3.3418,-3.3418,-3.3418,-3.3418,-3.3418,-1.5389,-1.5389,-1.5491,0.0,0.0,0.0,-1.6908,-1.7172,-1.7308,-1.7465,-1.7823,0.0,0.0,0.0,0.0,0.0,-1.9514,-1.9755,-2.0179,-2.0428,-2.0728,-2.1159,-2.1211,-2.1211,-2.1211,-2.1211,-2.1211,-2.1211,-2.1211,-2.1211,-2.1211,-2.1211,-2.1211,-2.1211,-2.1211,-2.1211,-2.1211,-2.1211,-2.1211,-2.1211,-2.1211,-2.1211,-2.1211,-2.1211,-2.1211,-2.1211,-2.1211,-2.1211,-2.1211,-2.1211,-2.1211,-2.1211,-2.1211,-2.1211,-2.1211,-2.1211,-2.1211,-2.1211,-2.1211,-2.1276,-2.1415,-2.1745,-2.2067,-2.2381,-2.2681,-2.3239,-2.3907,-2.4826,-2.5676,-2.6277,-2.6277,-2.7598,-2.8979,-2.9412,-3.0216,-3.0889,-3.0889,-3.0889,-3.0928,-3.1064,-3.1318,-3.1601,-3.1875,-3.2412,-3.2842,-3.2969,-3.3242,-3.3418,-3.3418,-3.3418,-3.3418,-3.3418,-3.3418,-3.3418,-3.3418,-3.3418,-3.3418,-3.3418,-3.3418,-3.3418,-3.3418,-3.3418,-3.3418,-3.3418,-3.3418,-3.3418,-3.3418,-3.3418,-3.3418,-3.3418,-3.3418,-3.3418,-1.5389,-1.5389,0.0,0.0,0.0,0.0,-1.7179,-1.7286,-1.7381,-1.7757,0.0,-1.8891,-1.9213,0.0,0.0,-1.9279,-1.9279,-1.9506,-2.0088,-2.0183,-2.0424,-2.113,-2.1211,-2.1211,-2.1211,-2.1211,-2.1211,-2.1211,-2.1211,-2.1211,-2.1211,-2.1211,-2.1211,-2.1211,-2.1211,-2.1211,-2.1211,-2.1211,-2.1211,-2.1211,-2.1211,-2.1211,-2.1211,-2.1211,-2.1211,-2.1211,-2.1211,-2.1211,-2.1211,-2.1211,-2.1211,-2.1211,-2.1211,-2.1211,-2.1211,-2.1211,-2.1211,-2.1211,-2.1211,-2.1423,-2.1752,-2.2081,-2.2381,-2.2681,-2.301,-2.4031,-2.5133,-2.5133,-2.6935,-2.892,-2.892,-2.892,-2.9226,-3.0577,-3.0889,-3.0889,-3.0889,-3.0889,-3.1016,-3.1435,-3.1523,-3.1797,-3.2646,-3.2803,-3.2939,-3.3359,-3.3418,-3.3418,-3.3418,-3.3418,-3.3418,-3.3418,-3.3418,-3.3418,-3.3418,-3.3418,-3.3418,-3.3418,-3.3418,-3.3418,-3.3418,-3.3418,-3.3418,-3.3418,-3.3418,-3.3418,-3.3418,-3.3418,-3.3418,-3.3418,-3.3418,-3.3418,-1.5389,-1.5389,0.0,-1.6206,0.0,0.0,0.0,-1.7461,0.0,0.0,0.0,-1.8891,-1.9213,0.0,0.0,-1.9279,-1.9522,-1.9681,-1.9879,-2.0289,-2.0647,-2.0845,-2.1072,-2.1211,-2.1211,-2.1211,-2.1211,-2.1211,-2.1211,-2.1211,-2.1211,-2.1211,-2.1211,-2.1211,-2.1211,-2.1211,-2.1211,-2.1211,-2.1211,-2.1211,-2.1211,-2.1211,-2.1211,-2.1211,-2.1211,-2.1211,-2.1211,-2.1211,-2.1211,-2.1211,-2.1211,-2.1211,-2.1211,-2.1211,-2.1211,-2.1211,-2.1211,-2.1211,-2.1211,-2.1423,-2.1752,-2.2081,-2.2381,-2.2865,-2.4109,-2.4764,-2.5493,-2.7297,-2.8316,-2.9107,-3.0089,-3.0333,-3.0401,-3.083,-3.0889,-3.0889,-3.0889,-3.0889,-3.1016,-3.1435,-3.1768,-3.2148,-3.2705,-3.3037,-3.3281,-3.3408,-3.3418,-3.3418,-3.3418,-3.3418,-3.3418,-3.3418,-3.3418,-3.3418,-3.3418,-3.3418,-3.3418,-3.3418,-3.3418,-3.3418,-3.3418,-3.3418,-3.3418,-3.3418,-3.3418,-3.3418,-3.3418,-3.3418,-3.3418,-3.3418,-3.3418,-3.3418,-1.5257,0.0,0.0,-1.6206,-1.6411,-1.6653,-1.7508,0.0,0.0,0.0,0.0,-1.9038,-1.9242,-1.9279,0.0,-1.9279,-1.9492,-1.9669,-1.9801,-2.0098,-2.0391,-2.0516,-2.0706,-2.0874,-2.1006,-2.1013,-2.1072,-2.1203,-2.1211,-2.1211,-2.1211,-2.1211,-2.1211,-2.1211,-2.1211,-2.1211,-2.1211,-2.1211,-2.1211,-2.1211,-2.1211,-2.1211,-2.1211,-2.1211,-2.1211,-2.1211,-2.1211,-2.1211,-2.1211,-2.1211,-2.1211,-2.1211,-2.1211,-2.1211,-2.1211,-2.1211,-2.1211,-2.1211,-2.1211,-2.1511,-2.192,-2.2118,-2.2825,-2.3764,-2.4763,-2.5798,-2.6935,-2.8444,-2.9285,-2.9903,-3.0704,-3.0889,-3.0889,-3.0889,-3.0889,-3.0889,-3.0889,-3.1025,-3.1269,-3.1689,-3.2119,-3.2549,-3.2969,-3.3252,-3.3418,-3.3418,-3.3418,-3.3418,-3.3418,-3.3418,-3.3418,-3.3418,-3.3418,-3.3418,-3.3418,-3.3418,-3.3418,-3.3418,-3.3418,-3.3418,-3.3418,-3.3418,-3.3418,-3.3418,-3.3418,-3.3418,-3.3418,-3.3418,-3.3418,-3.3418,-3.3418,-3.3418,-1.5131,0.0,0.0,-1.6206,-1.6455,0.0,-1.8021,-1.8299,-1.8401,-1.876,0.0,-1.9279,-1.9279,-1.9279,-1.9279,-1.9279,-1.9279,-1.9434,-1.9727,-1.9793,-1.9872,-2.0157,-2.0168,-2.03,-2.0591,-2.0676,-2.0808,-2.1137,-2.1167,-2.1181,-2.1211,-2.1211,-2.1211,-2.1211,-2.1211,-2.1211,-2.1211,-2.1211,-2.1211,-2.1211,-2.1211,-2.1211,-2.1211,-2.1211,-2.1211,-2.1211,-2.1211,-2.1211,-2.1211,-2.1211,-2.1211,-2.1211,-2.1211,-2.1211,-2.1211,-2.1211,-2.1211,-2.1211,-2.1211,-2.1635,-2.2244,-2.2356,-2.3626,-2.5133,-2.537,-2.7056,-2.892,-2.9039,-2.9962,-3.0889,-3.0889,-3.0889,-3.0889,-3.0889,-3.0889,-3.0898,-3.0947,-3.125,-3.166,-3.2129,-3.2529,-3.293,-3.335,-3.3418,-3.3418,-3.3418,-3.3418,-3.3418,-3.3418,-3.3418,-3.3418,-3.3418,-3.3418,-3.3418,-3.3418,-3.3418,-3.3418,-3.3418,-3.3418,-3.3418,-3.3418,-3.3418,-3.3418,-3.3418,-3.3418,-3.3418,-3.3418,-3.3418,-3.3418,-3.3418,-3.3418,-3.3418,0.0,-1.5389,0.0,0.0,-1.6748,-1.7333,-1.8123,-1.8299,-1.8467,-1.9052,-1.9228,-1.9279,-1.9279,-1.9279,-1.9279,-1.9279,-1.9279,-1.9353,-1.9419,-1.9654,-1.9837,-1.9857,-2.0084,-2.0212,-2.0278,-2.0285,-2.0479,-2.0801,-2.083,-2.094,-2.1196,-2.1211,-2.1211,-2.1211,-2.1211,-2.1211,-2.1211,-2.1211,-2.1211,-2.1211,-2.1211,-2.1211,-2.1211,-2.1211,-2.1211,-2.1211,-2.1211,-2.1211,-2.1211,-2.1211,-2.1211,-2.1211,-2.1211,-2.1211,-2.1211,-2.1211,-2.1211,-2.1211,-2.1211,-2.1635,-2.2356,-2.3389,-2.4319,-2.5493,-2.7478,-2.8444,-2.9107,-3.0147,-3.0704,-3.0889,-3.0889,-3.0889,-3.0889,-3.0889,-3.0889,-3.0986,-3.1309,-3.1455,-3.1748,-3.251,-3.2734,-3.293,-3.335,-3.3418,-3.3418,-3.3418,-3.3418,-3.3418,-3.3418,-3.3418,-3.3418,-3.3418,-3.3418,-3.3418,-3.3418,-3.3418,-3.3418,-3.3418,-3.3418,-3.3418,-3.3418,-3.3418,-3.3418,-3.3418,-3.3418,-3.3418,-3.3418,-3.3418,-3.3418,-3.3418,-3.3418,-3.3418,0.0,0.0,0.0,-1.6206,0.0,0.0,-1.7955,-1.8189,-1.8445,-1.8942,-1.9169,-1.9279,-1.9279,-1.9279,-1.9279,-1.9279,-1.9279,-1.9279,-1.9279,-1.9478,-1.958,-1.958,-1.9674,-1.9835,-1.9996,-2.0011,-2.0142,-2.0464,-2.0438,-2.0633,-2.0955,-2.0976,-2.105,-2.1203,-2.1211,-2.1211,-2.1211,-2.1211,-2.1211,-2.1211,-2.1211,-2.1211,-2.1211,-2.1211,-2.1211,-2.1211,-2.1211,-2.1211,-2.1211,-2.1211,-2.1211,-2.1211,-2.1211,-2.1211,-2.1211,-2.1211,-2.1211,-2.1211,-2.1211,-2.1635,-2.2416,-2.3677,-2.4971,-2.6346,-2.8316,-2.9353,-3.002,-3.0704,-3.0889,-3.0889,-3.0889,-3.0889,-3.0889,-3.0889,-3.0889,-3.1006,-3.1426,-3.168,-3.2021,-3.2666,-3.2959,-3.3164,-3.3379,-3.3418,-3.3418,-3.3418,-3.3418,-3.3418,-3.3418,-3.3418,-3.3418,-3.3418,-3.3418,-3.3418,-3.3418,-3.3418,-3.3418,-3.3418,-3.3418,-3.3418,-3.3418,-3.3623,-3.3633,-3.3428,-3.3418,-3.3418,-3.3418,-3.3418,-3.3418,-3.3418,-3.3418,-3.3418,0.0,0.0,-1.5716,-1.6279,-1.685,0.0,-1.7743,-1.8021,-1.8313,-1.8635,-1.9008,-1.9279,-1.9279,-1.9279,-1.9279,-1.9279,-1.9279,-1.9279,-1.9279,-1.9279,-1.9279,-1.9279,-1.9279,-1.9434,-1.9705,-1.9727,-1.9813,-2.0128,-2.015,-2.0296,-2.0625,-2.0691,-2.0852,-2.1115,-2.1181,-2.1211,-2.1211,-2.1211,-2.1211,-2.1211,-2.1211,-2.1211,-2.1211,-2.1211,-2.1211,-2.1211,-2.1211,-2.1211,-2.1211,-2.1211,-2.1211,-2.1211,-2.1211,-2.1211,-2.1211,-2.1211,-2.1211,-2.1211,-2.1211,-2.181,-2.2759,-2.4023,-2.5737,-2.7555,-2.887,-3.003,-3.0889,-3.0889,-3.0889,-3.0889,-3.0889,-3.0889,-3.0889,-3.0889,-3.0947,-3.1113,-3.1533,-3.1973,-3.2402,-3.2822,-3.3184,-3.3418,-3.3418,-3.3418,-3.3418,-3.3418,-3.3418,-3.3418,-3.3418,-3.3418,-3.3418,-3.3418,-3.3418,-3.3418,-3.3418,-3.3418,-3.3447,-3.3525,-3.3535,-3.3564,-3.3633,-3.3994,-3.4014,-3.3652,-3.3643,-3.3643,-3.3643,-3.3643,-3.3643,-3.3643,-3.3643,-3.3643,0.0,0.0,-1.6309,0.0,-1.685,-1.7366,0.0,0.0,-1.7969,0.0,-1.8847,-1.9279,-1.9279,-1.9279,-1.9279,-1.9279,-1.9279,-1.9279,-1.9279,-1.9279,-1.9279,-1.9279,-1.9279,-1.9346,-1.9338,-1.9397,-1.9477,-1.9852,-1.9828,-1.9967,-2.0227,-2.0511,-2.0742,-2.0786,-2.1064,-2.1211,-2.1211,-2.1211,-2.1211,-2.1211,-2.1211,-2.1211,-2.1211,-2.1211,-2.1211,-2.1211,-2.1211,-2.1211,-2.1211,-2.1211,-2.1211,-2.1211,-2.1211,-2.1211,-2.1211,-2.1211,-2.1211,-2.1211,-2.1211,-2.2362,-2.4082,-2.5352,-2.7035,-2.887,-3.0216,-3.0762,-3.0889,-3.0889,-3.0889,-3.0889,-3.0889,-3.0889,-3.0889,-3.0889,-3.1172,-3.1553,-3.1982,-3.2412,-3.2832,-3.3252,-3.3379,-3.3418,-3.3418,-3.3418,-3.3418,-3.3418,-3.3418,-3.3418,-3.3418,-3.3418,-3.3418,-3.3418,-3.3418,-3.3418,-3.3418,-3.3418,-3.3584,-3.3965,-3.3984,-3.415,-3.4512,-3.459,-3.459,-3.4531,-3.4531,-3.4531,-3.4531,-3.4531,-3.4531,-3.4531,-3.4531,-3.4531,-1.5215,-1.5682,-1.6155,0.0,0.0,0.0,0.0,0.0,-1.7852,-1.7999,-1.8401,-1.8789,-1.8972,-1.9155,-1.9279,-1.9279,-1.9279,-1.9279,-1.9279,-1.9279,-1.9279,-1.9279,-1.9279,-1.9279,-1.9279,-1.9279,-1.9338,-1.9529,-1.9544,-1.963,-1.9952,-2.0106,-2.0347,-2.0713,-2.0859,-2.102,-2.1211,-2.1211,-2.1211,-2.1211,-2.1211,-2.1211,-2.1211,-2.1211,-2.1211,-2.1211,-2.1211,-2.1211,-2.1211,-2.1211,-2.1211,-2.1211,-2.1211,-2.1211,-2.1211,-2.1211,-2.1211,-2.1211,-2.1211,-2.2356,-2.3877,-2.4653,-2.6594,-2.8695,-2.9524,-3.0274,-3.0889,-3.0889,-3.0889,-3.0889,-3.0889,-3.0889,-3.0889,-3.0889,-3.1396,-3.1934,-3.219,-3.25,-3.292,-3.334,-3.3418,-3.3418,-3.3418,-3.3418,-3.3418,-3.3418,-3.3418,-3.3418,-3.3418,-3.3418,-3.3418,-3.3418,-3.3418,-3.3418,-3.3418,-3.3643,-3.3867,-3.4062,-3.4297,-3.4512,-3.4687,-3.4951,-3.5088,-3.5088,-3.4834,-3.4697,-3.4697,-3.4697,-3.4697,-3.4697,-3.4697,-3.4697,0.0,0.0,0.0,0.0,0.0,0.0,0.0,0.0,-1.7691,0.0,-1.7955,-1.8255,-1.8496,-1.8877,-1.9177,-1.9264,-1.9279,-1.9279,-1.9279,-1.9279,-1.9279,-1.9279,-1.9279,-1.9279,-1.9279,-1.9279,-1.9279,-1.9279,-1.9279,-1.9434,-1.9676,-1.9771,-1.9981,-2.0464,-2.064,-2.0837,-2.1086,-2.1167,-2.1211,-2.1211,-2.1211,-2.1211,-2.1211,-2.1211,-2.1211,-2.1211,-2.1211,-2.1211,-2.1211,-2.1211,-2.1211,-2.1211,-2.1211,-2.1211,-2.1211,-2.1211,-2.1211,-2.1268,-2.1539,-2.2486,-2.3669,-2.4713,-2.6539,-2.8465,-2.9164,-3.0089,-3.0889,-3.0889,-3.0889,-3.0889,-3.0889,-3.0889,-3.0889,-3.0889,-3.1553,-3.2287,-3.2441,-3.2734,-3.3047,-3.3359,-3.3418,-3.3418,-3.3418,-3.3418,-3.3418,-3.3418,-3.3418,-3.3418,-3.3418,-3.3418,-3.3418,-3.3418,-3.3418,-3.3467,-3.3574,-3.3887,-3.417,-3.4394,-3.4697,-3.4922,-3.5029,-3.5371,-3.5557,-3.5557,-3.5215,-3.5029,-3.5029,-3.5029,-3.5029,-3.5029,-3.5029,-3.5029,0.0,0.0,0.0,0.0,0.0,0.0,0.0,0.0,0.0,0.0,-1.7611,-1.7845,-1.7867,-1.8386,-1.8913,-1.9228,-1.9279,-1.9279,-1.9279,-1.9279,-1.9279,-1.9279,-1.9279,-1.9279,-1.9279,-1.9279,-1.9279,-1.9279,-1.9279,-1.9286,-1.9353,-1.9647,-1.983,-1.9867,-2.0406,-2.0728,-2.075,-2.1057,-2.1211,-2.1211,-2.1211,-2.1211,-2.1211,-2.1211,-2.1211,-2.1211,-2.1211,-2.1211,-2.1211,-2.1211,-2.1211,-2.1211,-2.1211,-2.1211,-2.1211,-2.1211,-2.1211,-2.1375,-2.2482,-2.3205,-2.4056,-2.6729,-2.7985,-2.8688,-3.0325,-3.083,-3.0889,-3.0889,-3.0889,-3.0889,-3.0889,-3.0889,-3.0889,-3.0889,-3.1553,-3.2383,-3.3184,-3.3379,-3.3389,-3.3418,-3.3418,-3.3418,-3.3418,-3.3418,-3.3418,-3.3418,-3.3418,-3.3418,-3.3418,-3.3418,-3.3418,-3.3418,-3.3418,-3.3584,-3.4004,-3.4062,-3.4434,-3.5273,-3.5342,-3.5537,-3.5937,-3.5976,-3.5986,-3.5986,-3.5957,-3.5947,-3.5947,-3.5947,-3.5947,-3.5947,-3.5947,-3.5947,0.0,0.0,0.0,0.0,0.0,0.0,0.0,0.0,0.0,-1.7235,-1.7421,-1.752,-1.7772,-1.8174,-1.8584,-1.8913,-1.8964,-1.9038,-1.925,-1.9279,-1.9279,-1.9279,-1.9279,-1.9279,-1.9279,-1.9279,-1.9279,-1.9279,-1.9279,-1.9279,-1.9279,-1.9389,-1.9603,-1.9808,-1.9989,-2.0303,-2.072,-2.105,-2.1211,-2.1211,-2.1211,-2.1211,-2.1211,-2.1211,-2.1211,-2.1211,-2.1211,-2.1211,-2.1211,-2.1211,-2.1211,-2.1211,-2.1211,-2.1211,-2.1211,-2.1211,-2.171,-2.2425,-2.2869,-2.4058,-2.5555,-2.6355,-2.7754,-2.9231,-2.951,-3.0216,-3.0889,-3.0889,-3.0889,-3.0889,-3.0889,-3.0889,-3.1025,-3.1582,-3.1943,-3.2393,-3.3242,-3.3418,-3.3418,-3.3418,-3.3418,-3.3418,-3.3418,-3.3418,-3.3418,-3.3418,-3.3418,-3.3418,-3.3418,-3.3418,-3.3418,-3.3418,-3.3672,-3.3906,-3.4062,-3.459,-3.5059,-3.5371,-3.5644,-3.5859,-3.6016,-3.6016,-3.6016,-3.6016,-3.6016,-3.6016,-3.6016,-3.6016,-3.6016,-3.6016,-3.6016,-3.6016,0.0,0.0,0.0,0.0,0.0,0.0,0.0,0.0,0.0,-1.7106,-1.7172,-1.7267,-1.7589,-1.783,-1.8116,-1.8555,-1.8716,-1.8869,-1.9081,-1.9206,-1.9279,-1.9279,-1.9279,-1.9279,-1.9279,-1.9279,-1.9279,-1.9279,-1.9279,0.0,-1.9279,-1.9279,-1.9425,-1.9808,-1.9815,-2.0069,-2.0713,-2.094,-2.1101,-2.1211,-2.1211,-2.1211,-2.1211,-2.1211,-2.1211,-2.1211,-2.1211,-2.1211,-2.1211,-2.1211,-2.1211,-2.1211,-2.1211,-2.1211,-2.1211,-2.1211,-2.1987,-2.303,-2.3416,-2.4578,-2.6034,-2.6879,-2.8003,-2.9097,-2.9463,-3.0216,-3.0889,-3.0889,-3.0889,-3.0889,-3.0889,-3.0889,-3.1103,-3.1963,-3.2229,-3.2393,-3.3242,-3.3418,-3.3418,-3.3418,-3.3418,-3.3418,-3.3418,-3.3418,-3.3418,-3.3418,-3.3418,-3.3418,-3.3418,-3.3418,-3.3418,-3.3418,-3.3809,-3.4131,-3.4267,-3.4971,-3.5459,-3.5596,-3.5869,-3.6016,-3.6016,-3.6016,-3.6016,-3.6016,-3.6016,-3.6016,-3.6016,-3.6016,-3.6016,-3.6016,-3.6016,-3.6016,0.0,0.0,0.0,0.0,0.0,0.0,0.0,0.0,0.0,0.0,-1.6895,-1.6998,-1.726,-1.7271,-1.749,-1.8174,-1.8547,-1.8767,-1.8774,-1.906,-1.9309,-1.9309,-1.9272,-1.9279,-1.9279,-1.9279,-1.9279,-1.9279,-1.9279,-1.9279,-1.9279,-1.9279,-1.9478,-1.9793,-1.9808,-2.0069,-2.0706,-2.072,-2.0889,-2.1211,-2.1211,-2.1211,-2.1211,-2.1211,-2.1211,-2.1211,-2.1211,-2.1211,-2.1211,-2.1211,-2.1211,-2.1211,-2.1211,-2.1211,-2.1211,-2.1211,-2.1987,-2.3199,-2.4339,-2.4727,-2.5363,-2.8546,-2.8831,-2.8245,-3.0267,-3.0889,-3.0889,-3.0889,-3.0889,-3.0889,-3.0889,-3.0889,-3.1103,-3.1963,-3.2229,-3.2393,-3.3242,-3.3418,-3.3418,-3.3418,-3.3418,-3.3418,-3.3418,-3.3418,-3.3418,-3.3418,-3.3418,-3.3418,-3.3418,-3.3418,-3.3428,-3.3437,-3.3828,-3.4258,-3.4687,-3.5146,-3.5586,-3.5996,-3.6016,-3.6016,-3.6016,-3.6016,-3.6016,-3.6016,-3.6016,-3.6016,-3.6016,-3.6016,-3.6016,-3.6016,-3.6016,-3.6016,-1.5389,0.0,0.0,0.0,0.0,0.0,0.0,0.0,0.0,0.0,-1.6734,-1.6925,-1.7013,-1.7172,-1.7344,-1.7567,-1.7874,-1.8167,-1.8401,-1.8716,-1.8921,-1.8921,-1.9133,-1.9279,-1.9279,-1.9279,-1.9279,0.0,-1.9279,-1.9279,-1.9279,-1.9279,-1.9316,-1.9456,-1.9691,-1.9959,-2.0307,-2.0603,-2.0889,-2.1211,-2.1211,-2.1211,-2.1211,-2.1211,-2.1211,-2.1211,-2.1211,-2.1211,-2.1211,-2.1211,-2.1211,-2.1211,-2.1211,-2.1211,-2.1211,-2.1211,-2.2474,-2.4292,-2.4616,-2.6015,-2.7924,-2.9218,-2.9597,-2.9718,-3.0597,-3.0889,-3.0889,-3.0889,-3.0889,-3.0889,-3.0889,-3.0889,-3.1103,-3.1963,-3.2229,-3.2393,-3.3242,-3.3418,-3.3418,-3.3418,-3.3418,-3.3418,-3.3418,-3.3418,-3.3418,-3.3418,-3.3418,-3.3418,-3.3418,-3.3418,-3.3545,-3.3857,-3.4277,-3.4707,-3.5166,-3.5596,-3.5898,-3.6016,-3.6016,-3.6016,-3.6016,-3.6016,-3.6016,-3.6016,-3.6016,-3.6016,-3.6016,-3.6016,-3.6016,-3.6016,-3.6016,-3.6016,0.0,0.0,0.0,0.0,0.0,0.0,-1.5672,-1.5673,-1.5804,0.0,-1.633,-1.6587,-1.6851,-1.7049,-1.7172,-1.7264,-1.7439,-1.7728,-1.8057,-1.8379,-1.8635,-1.8774,-1.8957,-1.9125,-1.9264,-1.9279,-1.9279,-1.9279,-1.9279,-1.9279,-1.9279,-1.9279,-1.9279,-1.9279,-1.9514,-1.9777,-2.0176,-2.0373,-2.075,-2.1211,-2.1211,-2.1211,-2.1211,-2.1211,-2.1211,-2.1211,-2.1211,-2.1211,-2.1211,-2.1211,-2.1211,-2.1211,-2.1211,-2.1211,-2.1268,-2.1767,-2.3135,-2.4727,-2.4727,-2.6536,-2.8875,-2.8847,-2.9448,-3.0283,-3.0752,-3.0889,-3.0889,-3.0889,-3.0889,-3.0889,-3.0889,-3.0889,-3.1103,-3.1963,-3.2229,-3.2393,-3.3242,-3.3418,-3.3418,-3.3418,-3.3418,-3.3418,-3.3418,-3.3418,-3.3418,-3.3418,-3.3418,-3.3418,-3.3418,-3.3418,-3.3584,-3.4023,-3.4453,-3.4892,-3.5351,-3.5781,-3.6016,-3.6016,-3.6016,-3.6016,-3.6016,-3.6016,-3.6016,-3.6016,-3.6016,-3.6016,-3.6016,-3.6016,-3.6016,-3.6016,-3.6016,-3.6016,0.0,0.0,0.0,0.0,0.0,0.0,-1.5431,-1.5548,-1.5713,-1.5804,-1.5934,-1.6212,-1.669,-1.6822,-1.6947,-1.7223,-1.7274,-1.7391,-1.7713,-1.8043,-1.8357,-1.865,-1.8708,-1.8862,-1.9191,-1.922,-1.9235,-1.9324,-1.9279,-1.9279,-1.9279,-1.9279,-1.9279,-1.9279,-1.9279,-1.9586,-2.0176,-2.0183,-2.0567,-2.1211,-2.1211,-2.1211,-2.1211,-2.1211,-2.1211,-2.1211,-2.1211,-2.1211,-2.1211,-2.1211,-2.1211,-2.1211,-2.1211,-2.1268,-2.1546,-2.2595,-2.3799,-2.4893,-2.4893,-2.6683,-2.8888,-2.823,-2.9013,-3.0351,-3.0762,-3.0889,-3.0889,-3.0889,-3.0889,-3.0889,-3.0889,-3.0889,-3.1103,-3.1963,-3.2229,-3.2393,-3.3242,-3.3418,-3.3418,-3.3418,-3.3418,-3.3418,-3.3418,-3.3418,-3.3418,-3.3418,-3.3418,-3.3418,-3.3418,-3.3418,-3.3603,-3.4092,-3.4482,-3.4912,-3.542,-3.5801,-3.6016,-3.6016,-3.6016,-3.6016,-3.6016,-3.6016,-3.6016,-3.6016,-3.6016,-3.6016,-3.6016,-3.6016,-3.6016,-3.6016,-3.6016,-3.6016,0.0,0.0,0.0,0.0,0.0,0.0,-1.5707,-1.6476,-1.7098,0.0,-1.6258,-1.6769,-1.6197,-1.6345,-1.6617,-1.6939,-1.6991,-1.7062,-1.7377,-1.7706,-1.7933,-1.7999,-1.824,-1.8525,-1.8855,-1.8884,-1.8994,-1.9257,-1.9279,-1.9279,-1.9279,-1.9279,-1.9279,-1.9279,-1.9279,-1.9586,-2.0176,-2.0183,-2.0567,-2.1211,-2.1211,-2.1211,-2.1211,-2.1211,-2.1211,-2.1211,-2.1211,-2.1211,-2.1211,-2.1211,-2.1211,-2.1211,-2.1211,-2.1816,-2.27,-2.2918,-2.4364,-2.6136,-2.6136,-2.7611,-2.9453,-2.9308,-2.9927,-3.0771,-3.0859,-3.0889,-3.0889,-3.0889,-3.0889,-3.0889,-3.0889,-3.0889,-3.1103,-3.1963,-3.2229,-3.2393,-3.3242,-3.3418,-3.3418,-3.3418,-3.3418,-3.3418,-3.3418,-3.3418,-3.3418,-3.3418,-3.3418,-3.3418,-3.3418,-3.3418,-3.3721,-3.4492,-3.4648,-3.5029,-3.583,-3.5976,-3.6016,-3.6016,-3.6016,-3.6016,-3.6016,-3.6016,-3.6016,-3.6016,-3.6016,-3.6016,-3.6016,-3.6016,-3.6016,-3.6016,-3.6016,-3.6016,0.0,0.0,0.0,-1.7472,0.0,0.0,0.0,-1.7359,-1.7755,-1.6878,-1.6841,-1.6857,0.0,0.0,-1.6243,-1.6609,-1.6793,-1.6954,-1.7069,-1.7369,-1.7633,-1.7794,-1.7962,-1.8189,-1.8511,-1.8694,-1.8921,-1.925,-1.9279,-1.9279,-1.9279,-1.9279,-1.9279,-1.9279,-1.9279,-1.9513,-1.9996,-2.0157,-2.0431,-2.0969,-2.113,-2.1211,-2.1211,-2.1211,-2.1211,-2.1211,-2.1211,-2.1211,-2.1211,-2.1211,-2.1211,-2.1211,-2.1211,-2.193,-2.3087,-2.3631,-2.4965,-2.6554,-2.6756,-2.8067,-2.9544,-2.9117,-2.9863,-3.0889,-3.0889,-3.0889,-3.0889,-3.0889,-3.0889,-3.0889,-3.0889,-3.0889,-3.1103,-3.1963,-3.2229,-3.2393,-3.3242,-3.3418,-3.3418,-3.3418,-3.3418,-3.3418,-3.3418,-3.3418,-3.3418,-3.3418,-3.3418,-3.3418,-3.3418,-3.3418,-3.375,-3.4609,-3.4697,-3.5059,-3.5947,-3.6016,-3.6016,-3.6016,-3.6016,-3.6016,-3.6016,-3.6016,-3.6016,-3.6016,-3.6016,-3.6016,-3.6016,-3.6016,-3.6016,-3.6016,-3.6016,-3.6016,0.0,0.0,0.0,0.0,0.0,-1.8399,0.0,0.0,0.0,0.0,0.0,0.0,0.0,0.0,0.0,0.0,0.0,0.0,0.0,-1.7077,0.0,-1.7684,-1.7721,-1.7845,-1.8174,-1.8562,-1.8899,-1.9162,-1.9242,-1.9279,-1.9279,-1.9279,-1.9279,-1.9279,-1.9279,-1.9433,-1.9815,-2.0077,-2.0343,-2.0728,-2.1057,-2.1211,-2.1211,-2.1211,-2.1211,-2.1211,-2.1211,-2.1211,-2.1211,-2.1211,-2.1211,-2.1211,-2.1211,-2.2093,-2.3416,-2.4339,-2.5617,-2.6918,-2.7381,-2.8414,-2.9527,-2.8945,-2.9736,-3.0889,-3.0889,-3.0889,-3.0889,-3.0889,-3.0889,-3.0889,-3.0889,-3.0889,-3.1103,-3.1963,-3.2229,-3.2393,-3.3242,-3.3418,-3.3418,-3.3418,-3.3418,-3.3418,-3.3418,-3.3418,-3.3418,-3.3418,-3.3418,-3.3418,-3.3418,-3.3418,-3.375,-3.4609,-3.4697,-3.5059,-3.5947,-3.6016,-3.6016,-3.6016,-3.6016,-3.6016,-3.6016,-3.6103,-3.6182,-3.626,-3.6182,-3.6142,-3.6142,-3.6064,-3.6016,-3.6016,-3.6016,-3.6016,0.0,0.0,0.0,0.0,-1.9736,0.0,-1.8359,0.0,-1.9883,-1.8318,0.0,0.0,0.0,0.0,0.0,0.0,0.0,0.0,-1.6822,-1.6932,-1.7071,-1.7301,-1.7337,-1.7508,-1.7838,-1.843,-1.8803,-1.884,-1.9111,-1.9279,-1.9279,-1.9279,-1.9279,-1.9279,-1.9279,-1.9433,-1.9815,-2.0077,-2.0343,-2.0728,-2.1057,-2.1211,-2.1211,-2.1211,-2.1211,-2.1211,-2.1211,-2.1211,-2.1211,-2.1211,-2.1211,-2.1211,-2.1211,-2.2531,-2.4505,-2.4671,-2.6118,-2.8135,-2.8552,-2.9089,-2.9639,-2.9888,-3.0392,-3.0889,-3.0889,-3.0889,-3.0889,-3.0889,-3.0889,-3.0889,-3.0889,-3.0889,-3.1103,-3.1963,-3.2229,-3.2393,-3.3242,-3.3418,-3.3418,-3.3418,-3.3418,-3.3418,-3.3418,-3.3418,-3.3418,-3.3418,-3.3418,-3.3418,-3.3418,-3.3418,-3.375,-3.4609,-3.4697,-3.5059,-3.5947,-3.6016,-3.6016,-3.6016,-3.6016,-3.6016,-3.6016,-3.6396,-3.6767,-3.7148,-3.6787,-3.6601,-3.6592,-3.6211,-3.6016,-3.6016,-3.6016,-3.6016,0.0,0.0,0.0,0.0,0.0,0.0,-1.9678,0.0,-2.0401,0.0,0.0,0.0,0.0,0.0,0.0,0.0,-1.5754,0.0,0.0,0.0,-1.702,0.0,0.0,0.0,-1.7786,-1.8064,-1.8379,-1.876,-1.8913,-1.9074,-1.9264,-1.9279,-1.9279,-1.9279,-1.9279,-1.9397,-1.9529,-1.9981,-2.0249,-2.045,-2.0962,-2.1211,-2.1211,-2.1211,-2.1211,-2.1211,-2.1211,-2.1211,-2.1211,-2.1211,-2.1211,-2.1268,-2.1979,-2.3247,-2.4616,-2.3958,-2.5823,-2.8602,-2.8347,-2.9,-3.001,-3.0449,-3.0732,-3.0889,-3.0889,-3.0889,-3.0889,-3.0889,-3.0889,-3.0889,-3.0889,-3.1074,-3.1406,-3.2021,-3.2353,-3.2695,-3.3291,-3.3418,-3.3418,-3.3418,-3.3418,-3.3418,-3.3418,-3.3418,-3.3418,-3.3418,-3.3418,-3.3418,-3.3418,-3.3418,-3.375,-3.4609,-3.4697,-3.5059,-3.5947,-3.6016,-3.6133,-3.6377,-3.6631,-3.6758,-3.6758,-3.6699,-3.6758,-3.6934,-3.6514,-3.6289,-3.6289,-3.6113,-3.6016,-3.6016,-3.6016,-3.6016,-2.0033,0.0,0.0,0.0,0.0,0.0,0.0,0.0,0.0,0.0,0.0,0.0,0.0,0.0,0.0,0.0,0.0,-1.6137,0.0,0.0,0.0,0.0,0.0,0.0,0.0,-1.7765,-1.8013,-1.8482,-1.8686,-1.8891,-1.9133,-1.9228,-1.9279,-1.9279,-1.9279,-1.9279,-1.9279,-1.9916,-2.0183,-2.019,-2.0896,-2.1211,-2.1211,-2.1211,-2.1211,-2.1211,-2.1211,-2.1211,-2.1211,-2.1211,-2.1211,-2.1318,-2.2539,-2.3687,-2.4616,-2.3799,-2.5754,-2.881,-2.8042,-2.8937,-3.0449,-3.0781,-3.0889,-3.0889,-3.0889,-3.0889,-3.0889,-3.0889,-3.0889,-3.0889,-3.0889,-3.1201,-3.1631,-3.206,-3.249,-3.291,-3.333,-3.3418,-3.3418,-3.3418,-3.3418,-3.3418,-3.3418,-3.3418,-3.3418,-3.3418,-3.3418,-3.3418,-3.3418,-3.3418,-3.375,-3.4609,-3.4697,-3.5059,-3.5947,-3.6133,-3.6387,-3.6816,-3.7129,-3.7295,-3.7295,-3.7002,-3.6846,-3.6846,-3.6416,-3.6201,-3.6201,-3.6074,-3.6016,-3.6016,-3.6016,-3.6016,0.0,0.0,0.0,-2.0304,0.0,0.0,0.0,0.0,-1.9902,0.0,0.0,0.0,0.0,0.0,0.0,0.0,0.0,0.0,0.0,0.0,0.0,0.0,0.0,0.0,0.0,-1.7625,-1.7823,-1.7845,-1.843,-1.8789,-1.8803,-1.9103,-1.9279,-1.9279,-1.9279,-1.9279,-1.9279,-1.9916,-2.0183,-2.019,-2.0896,-2.1211,-2.1211,-2.1211,-2.1211,-2.1211,-2.1211,-2.1211,-2.1211,-2.1211,-2.1211,-2.1318,-2.2539,-2.3687,-2.4727,-2.4671,-2.6472,-2.881,-2.8042,-2.9145,-3.0869,-3.0889,-3.0889,-3.0889,-3.0889,-3.0889,-3.0889,-3.0889,-3.0889,-3.0889,-3.0889,-3.1201,-3.1631,-3.206,-3.249,-3.291,-3.333,-3.3418,-3.3418,-3.3418,-3.3418,-3.3418,-3.3418,-3.3418,-3.3418,-3.3418,-3.3418,-3.3418,-3.3418,-3.3418,-3.375,-3.4609,-3.4697,-3.5059,-3.5947,-3.6406,-3.6826,-3.7256,-3.7295,-3.7295,-3.7295,-3.7285,-3.7275,-3.7275,-3.6865,-3.665,-3.665,-3.623,-3.6016,-3.6016,-3.6016,-3.6016,0.0,0.0,-1.8676,-1.974,0.0,0.0,0.0,0.0,0.0,0.0,0.0,0.0,0.0,0.0,0.0,0.0,0.0,0.0,0.0,0.0,0.0,0.0,0.0,0.0,0.0,0.0,-1.7582,-1.7801,-1.8218,-1.8562,-1.8774,-1.9096,-1.9279,-1.9279,-1.9279,-1.9279,-1.9279,-1.9916,-2.0183,-2.019,-2.0896,-2.1211,-2.1211,-2.1211,-2.1211,-2.1211,-2.1211,-2.1211,-2.1211,-2.1211,-2.1211,-2.1375,-2.3359,-2.4339,-2.4727,-2.4727,-2.67,-2.9397,-2.9718,-3.0335,-3.0889,-3.0889,-3.0889,-3.0889,-3.0889,-3.0889,-3.0889,-3.0889,-3.0889,-3.0957,-3.123,-3.1631,-3.2051,-3.248,-3.29,-3.3252,-3.3389,-3.3418,-3.3418,-3.3418,-3.3418,-3.3418,-3.3418,-3.3418,-3.3418,-3.3418,-3.3418,-3.3418,-3.3418,-3.3418,-3.375,-3.4609,-3.498,-3.5508,-3.6377,-3.71,-3.7559,-3.7705,-3.7715,-3.7715,-3.7715,-3.7178,-3.6885,-3.6885,-3.6455,-3.624,-3.624,-3.6094,-3.6016,-3.6016,-3.6016,-3.6016,-1.7652,-1.77,0.0,-1.8926,-1.9135,0.0,-2.0268,0.0,-2.049,0.0,0.0,0.0,0.0,0.0,0.0,0.0,0.0,0.0,0.0,-1.6207,0.0,0.0,0.0,0.0,0.0,0.0,-1.7366,-1.7625,-1.7947,-1.8269,-1.8599,-1.8928,-1.9155,-1.9324,-1.9279,-1.9279,-1.9279,-1.9916,-2.0183,-2.019,-2.0896,-2.1211,-2.1211,-2.1211,-2.1211,-2.1211,-2.1653,-2.1596,-2.1211,-2.1653,-2.1816,-2.2036,-2.3958,-2.4948,-2.536,-2.5555,-2.7121,-2.9316,-3.0519,-3.0889,-3.0889,-3.0889,-3.0889,-3.0889,-3.0889,-3.0889,-3.0918,-3.1074,-3.1113,-3.1211,-3.1641,-3.207,-3.2461,-3.2734,-3.3115,-3.3418,-3.3418,-3.3418,-3.3418,-3.3418,-3.3418,-3.3418,-3.3418,-3.3418,-3.3418,-3.3418,-3.3418,-3.3418,-3.3418,-3.3418,-3.3809,-3.4834,-3.5215,-3.5859,-3.7021,-3.7607,-3.792,-3.792,-3.792,-3.7783,-3.749,-3.6953,-3.6738,-3.6894,-3.6318,-3.6172,-3.6475,-3.6172,-3.6016,-3.6016,-3.6016,-3.6016]},{"header":{"parameterUnit":"m.s-1","parameterCategory":1,"la1":30.6,"la2":29.2853,"lo1":-89.7004,"lo2":-87.6739,"dx":0.0162,"dy":0.0183,"nx":112,"ny":82,"refTime":"2023-02-03T06:00:00:Z","depth":0,"parameterNumber":3,"parameterNumberName":"V-component_of_WINDS"},"data":[0.0,0.0,0.0,0.0,0.0,0.0,0.0,0.0,0.0,0.0,0.0,0.0,0.0,0.0,0.0,0.0,0.0,0.0,0.0,0.0,0.0,0.0,0.0,0.0,0.0,0.0,0.0,0.0,0.0,0.0,0.0,0.0,0.0,0.0,0.0,0.0,0.0,0.0,0.0,0.0,0.0,0.0,0.0,0.0,0.0,0.0,0.0,0.0,0.0,0.0,0.0,0.0,0.0,0.0,0.0,0.0,0.0,0.0,0.0,0.0,0.0,0.0,0.0,0.0,0.0,0.0,0.0,0.0,0.0,0.0,0.0,0.0,0.0,0.0,0.0,0.0,0.0,0.0,0.0,0.0,0.0,0.0,0.0,0.0,0.0,0.0,0.0,0.0,0.0,0.0,3.7447,3.7519,3.7549,3.7549,3.7549,3.7549,3.7767,3.8266,0.0,0.0,0.0,0.0,0.0,0.0,0.0,0.0,0.0,0.0,0.0,0.0,0.0,0.0,0.0,0.0,0.0,0.0,0.0,0.0,0.0,0.0,0.0,0.0,0.0,0.0,0.0,0.0,0.0,0.0,0.0,0.0,0.0,0.0,0.0,0.0,0.0,0.0,0.0,0.0,0.0,0.0,0.0,0.0,0.0,0.0,0.0,0.0,0.0,0.0,0.0,0.0,0.0,0.0,0.0,0.0,0.0,0.0,0.0,0.0,0.0,0.0,0.0,0.0,0.0,0.0,0.0,0.0,0.0,0.0,0.0,0.0,0.0,0.0,0.0,0.0,0.0,0.0,0.0,0.0,0.0,0.0,0.0,0.0,0.0,0.0,0.0,0.0,0.0,0.0,0.0,0.0,0.0,0.0,0.0,0.0,0.0,0.0,0.0,0.0,0.0,0.0,0.0,0.0,3.7608,3.8124,3.8165,3.8165,3.8165,3.8165,3.8193,3.8278,0.0,0.0,0.0,0.0,0.0,0.0,0.0,0.0,0.0,0.0,0.0,0.0,0.0,0.0,0.0,0.0,0.0,0.0,0.0,0.0,0.0,0.0,0.0,0.0,0.0,0.0,0.0,0.0,0.0,0.0,0.0,0.0,0.0,0.0,0.0,0.0,0.0,0.0,0.0,0.0,0.0,0.0,0.0,0.0,0.0,0.0,0.0,0.0,0.0,0.0,0.0,0.0,0.0,0.0,0.0,0.0,0.0,0.0,0.0,0.0,0.0,0.0,0.0,0.0,0.0,0.0,0.0,0.0,0.0,0.0,0.0,0.0,0.0,0.0,0.0,0.0,0.0,0.0,0.0,0.0,0.0,0.0,0.0,0.0,0.0,0.0,0.0,0.0,0.0,0.0,0.0,0.0,0.0,0.0,0.0,0.0,0.0,0.0,0.0,0.0,0.0,0.0,0.0,3.8986,3.8463,3.8767,3.881,3.881,3.881,3.9155,3.9506,3.9866,3.9661,0.0,0.0,0.0,0.0,0.0,0.0,0.0,0.0,0.0,0.0,0.0,0.0,0.0,0.0,0.0,0.0,0.0,0.0,0.0,0.0,0.0,0.0,0.0,0.0,0.0,0.0,0.0,0.0,0.0,0.0,0.0,0.0,0.0,0.0,0.0,0.0,0.0,0.0,0.0,0.0,0.0,0.0,0.0,0.0,0.0,0.0,0.0,0.0,0.0,0.0,0.0,0.0,0.0,0.0,0.0,0.0,0.0,0.0,0.0,0.0,0.0,0.0,0.0,0.0,0.0,0.0,0.0,0.0,0.0,0.0,0.0,0.0,0.0,0.0,0.0,0.0,0.0,0.0,0.0,0.0,0.0,0.0,0.0,0.0,0.0,0.0,0.0,0.0,0.0,0.0,0.0,0.0,0.0,0.0,0.0,0.0,0.0,0.0,0.0,0.0,0.0,0.0,4.0186,3.9934,3.9934,3.9934,3.9934,3.9934,4.0434,4.0956,4.1431,4.1758,0.0,0.0,0.0,0.0,0.0,0.0,0.0,0.0,0.0,0.0,0.0,0.0,0.0,0.0,0.0,0.0,0.0,0.0,0.0,0.0,0.0,0.0,0.0,0.0,0.0,0.0,0.0,0.0,0.0,0.0,0.0,0.0,0.0,0.0,0.0,0.0,0.0,0.0,0.0,0.0,0.0,0.0,0.0,0.0,0.0,0.0,0.0,0.0,0.0,0.0,0.0,0.0,0.0,0.0,0.0,0.0,0.0,0.0,0.0,0.0,0.0,0.0,0.0,0.0,0.0,0.0,0.0,0.0,0.0,0.0,0.0,0.0,0.0,0.0,0.0,0.0,0.0,0.0,0.0,0.0,0.0,0.0,0.0,0.0,0.0,0.0,0.0,0.0,0.0,0.0,0.0,0.0,0.0,0.0,0.0,0.0,0.0,0.0,0.0,0.0,0.0,0.0,4.1758,4.2081,4.2081,4.2081,4.2081,4.2081,4.2115,4.2175,4.2219,4.3054,0.0,0.0,0.0,0.0,0.0,0.0,0.0,0.0,0.0,0.0,0.0,0.0,0.0,0.0,0.0,0.0,0.0,0.0,0.0,0.0,0.0,0.0,0.0,0.0,0.0,0.0,0.0,0.0,0.0,0.0,0.0,0.0,0.0,0.0,0.0,0.0,0.0,0.0,0.0,0.0,0.0,0.0,0.0,0.0,0.0,0.0,0.0,0.0,0.0,0.0,0.0,0.0,0.0,0.0,0.0,0.0,0.0,0.0,0.0,0.0,0.0,0.0,0.0,0.0,0.0,0.0,0.0,0.0,0.0,0.0,0.0,0.0,0.0,0.0,0.0,0.0,0.0,0.0,0.0,0.0,0.0,0.0,0.0,0.0,0.0,0.0,0.0,0.0,0.0,0.0,0.0,0.0,0.0,0.0,0.0,0.0,0.0,0.0,0.0,0.0,0.0,0.0,4.2439,4.2286,0.0,4.2286,4.2286,4.2286,4.2726,4.2997,4.2997,0.0,0.0,0.0,0.0,0.0,0.0,0.0,0.0,0.0,0.0,0.0,0.0,0.0,0.0,0.0,0.0,0.0,0.0,0.0,0.0,0.0,0.0,0.0,0.0,0.0,0.0,0.0,0.0,0.0,0.0,0.0,0.0,0.0,0.0,0.0,0.0,0.0,0.0,0.0,0.0,0.0,0.0,0.0,0.0,0.0,0.0,0.0,0.0,0.0,0.0,0.0,0.0,0.0,0.0,0.0,0.0,0.0,0.0,0.0,0.0,0.0,0.0,0.0,0.0,0.0,0.0,0.0,0.0,0.0,0.0,0.0,0.0,0.0,0.0,0.0,0.0,0.0,0.0,0.0,0.0,0.0,0.0,0.0,0.0,0.0,0.0,0.0,0.0,0.0,0.0,0.0,0.0,0.0,0.0,0.0,0.0,0.0,0.0,0.0,0.0,0.0,0.0,4.3792,4.3335,4.3041,0.0,4.3041,4.3041,4.3041,4.3487,4.3792,4.3792,0.0,0.0,0.0,0.0,0.0,0.0,0.0,0.0,0.0,0.0,0.0,0.0,0.0,0.0,0.0,0.0,0.0,0.0,0.0,0.0,0.0,0.0,0.0,0.0,0.0,0.0,0.0,0.0,0.0,0.0,0.0,0.0,0.0,0.0,0.0,0.0,0.0,0.0,0.0,0.0,0.0,0.0,0.0,0.0,0.0,0.0,0.0,0.0,0.0,0.0,0.0,0.0,0.0,0.0,0.0,0.0,0.0,0.0,0.0,0.0,0.0,0.0,0.0,0.0,0.0,0.0,0.0,0.0,0.0,0.0,0.0,0.0,0.0,0.0,0.0,0.0,0.0,0.0,0.0,0.0,0.0,0.0,0.0,0.0,0.0,0.0,0.0,0.0,0.0,0.0,0.0,0.0,0.0,0.0,0.0,0.0,0.0,0.0,0.0,0.0,0.0,0.0,4.4615,4.4615,4.4615,4.4615,4.4615,4.4615,4.4615,4.4615,4.4615,0.0,0.0,0.0,0.0,0.0,0.0,0.0,0.0,0.0,0.0,0.0,0.0,0.0,0.0,0.0,0.0,0.0,0.0,0.0,0.0,0.0,0.0,0.0,0.0,0.0,0.0,0.0,0.0,0.0,0.0,0.0,0.0,0.0,0.0,0.0,0.0,0.0,0.0,0.0,0.0,0.0,0.0,0.0,0.0,0.0,0.0,0.0,0.0,0.0,0.0,0.0,0.0,0.0,0.0,0.0,0.0,0.0,0.0,0.0,0.0,0.0,0.0,0.0,0.0,0.0,0.0,0.0,0.0,0.0,0.0,0.0,0.0,0.0,0.0,0.0,0.0,0.0,0.0,0.0,0.0,0.0,0.0,0.0,0.0,0.0,0.0,0.0,0.0,0.0,0.0,0.0,0.0,0.0,0.0,0.0,0.0,0.0,0.0,0.0,0.0,0.0,0.0,0.0,4.4615,4.4615,4.4615,4.4615,4.4615,4.4615,4.4615,4.4615,4.4615,4.4615,0.0,0.0,0.0,0.0,0.0,0.0,0.0,0.0,0.0,0.0,0.0,0.0,0.0,0.0,0.0,0.0,0.0,0.0,0.0,0.0,0.0,0.0,0.0,0.0,0.0,0.0,0.0,0.0,0.0,0.0,0.0,0.0,0.0,0.0,0.0,0.0,0.0,0.0,0.0,0.0,0.0,0.0,0.0,0.0,0.0,0.0,0.0,0.0,0.0,0.0,0.0,0.0,0.0,0.0,0.0,0.0,0.0,0.0,0.0,0.0,0.0,0.0,0.0,0.0,0.0,0.0,0.0,0.0,0.0,0.0,0.0,0.0,0.0,0.0,0.0,0.0,0.0,0.0,0.0,0.0,0.0,0.0,0.0,0.0,0.0,0.0,0.0,0.0,0.0,0.0,0.0,0.0,0.0,0.0,0.0,0.0,0.0,0.0,0.0,0.0,0.0,0.0,4.4615,4.4615,4.4615,4.4615,4.4615,4.4682,4.4852,4.4879,4.4971,4.5169,0.0,0.0,0.0,0.0,0.0,0.0,0.0,0.0,0.0,0.0,0.0,0.0,0.0,0.0,0.0,0.0,0.0,0.0,0.0,0.0,0.0,0.0,0.0,0.0,0.0,0.0,0.0,0.0,0.0,0.0,0.0,0.0,0.0,0.0,0.0,0.0,0.0,0.0,0.0,0.0,0.0,0.0,0.0,0.0,0.0,0.0,0.0,0.0,0.0,0.0,0.0,0.0,0.0,0.0,0.0,0.0,0.0,0.0,0.0,0.0,0.0,0.0,0.0,0.0,0.0,0.0,0.0,0.0,0.0,0.0,0.0,0.0,0.0,0.0,0.0,0.0,0.0,0.0,0.0,0.0,0.0,0.0,0.0,0.0,0.0,0.0,0.0,0.0,0.0,0.0,0.0,0.0,0.0,0.0,0.0,0.0,0.0,0.0,0.0,0.0,0.0,0.0,4.4665,4.4692,4.4748,4.4748,4.4748,4.4906,4.5329,4.5381,4.5588,4.6074,0.0,0.0,0.0,0.0,0.0,0.0,0.0,0.0,0.0,0.0,0.0,0.0,0.0,0.0,0.0,0.0,0.0,0.0,0.0,0.0,0.0,0.0,0.0,0.0,0.0,0.0,0.0,0.0,0.0,0.0,0.0,0.0,0.0,0.0,0.0,0.0,0.0,0.0,0.0,0.0,0.0,0.0,0.0,0.0,0.0,0.0,0.0,0.0,0.0,0.0,0.0,0.0,0.0,0.0,0.0,0.0,0.0,0.0,0.0,0.0,3.87,0.0,0.0,0.0,0.0,0.0,0.0,0.0,0.0,0.0,0.0,0.0,0.0,0.0,0.0,0.0,0.0,0.0,0.0,0.0,0.0,0.0,0.0,0.0,0.0,0.0,0.0,0.0,0.0,0.0,0.0,0.0,0.0,0.0,0.0,0.0,0.0,0.0,0.0,0.0,0.0,0.0,4.5152,4.5528,4.5767,4.5767,4.5767,4.5817,4.5925,4.5925,4.5975,4.6098,4.6,0.0,0.0,0.0,0.0,0.0,0.0,0.0,0.0,0.0,0.0,0.0,0.0,0.0,0.0,0.0,0.0,0.0,0.0,0.0,0.0,0.0,0.0,0.0,0.0,0.0,0.0,0.0,0.0,0.0,0.0,0.0,0.0,0.0,0.0,0.0,0.0,0.0,0.0,0.0,0.0,0.0,0.0,0.0,0.0,0.0,0.0,0.0,0.0,0.0,0.0,0.0,0.0,0.0,0.0,0.0,0.0,0.0,0.0,0.0,0.0,3.9757,0.0,0.0,0.0,0.0,0.0,0.0,0.0,0.0,0.0,0.0,0.0,0.0,0.0,0.0,0.0,0.0,0.0,0.0,0.0,0.0,0.0,0.0,0.0,0.0,0.0,0.0,0.0,0.0,0.0,0.0,0.0,0.0,0.0,0.0,0.0,0.0,0.0,0.0,0.0,0.0,4.5303,4.5775,4.6098,4.6098,4.6098,4.6196,4.6454,4.6478,4.6572,4.6845,4.6637,0.0,0.0,0.0,0.0,0.0,0.0,0.0,0.0,0.0,0.0,0.0,0.0,0.0,0.0,0.0,0.0,0.0,0.0,0.0,0.0,0.0,0.0,0.0,0.0,0.0,0.0,0.0,0.0,0.0,0.0,0.0,0.0,0.0,0.0,0.0,0.0,0.0,0.0,0.0,0.0,0.0,0.0,0.0,0.0,0.0,0.0,0.0,0.0,0.0,0.0,0.0,0.0,0.0,3.9056,3.9402,4.0096,4.0096,4.0096,4.0096,4.0096,4.0096,4.0096,4.0096,0.0,0.0,0.0,0.0,0.0,0.0,0.0,0.0,0.0,0.0,0.0,0.0,0.0,0.0,0.0,0.0,0.0,0.0,0.0,0.0,0.0,0.0,0.0,0.0,4.6098,4.5868,4.5042,0.0,0.0,0.0,0.0,0.0,0.0,0.0,0.0,0.0,0.0,0.0,4.5588,4.6067,4.6382,4.6382,4.6382,4.6548,4.6999,4.7039,4.7236,4.7657,4.728,4.7039,0.0,0.0,0.0,0.0,0.0,0.0,0.0,0.0,0.0,0.0,0.0,0.0,0.0,0.0,0.0,0.0,0.0,0.0,0.0,0.0,0.0,0.0,0.0,0.0,0.0,0.0,0.0,0.0,0.0,0.0,0.0,0.0,3.56,3.56,0.0,0.0,0.0,0.0,0.0,0.0,0.0,0.0,0.0,0.0,0.0,0.0,0.0,3.6992,3.7753,3.7753,3.8497,3.996,3.9292,3.9402,4.0096,4.0096,4.0096,4.0096,4.0096,0.0,4.0096,4.0096,0.0,0.0,0.0,0.0,0.0,0.0,0.0,0.0,0.0,0.0,0.0,0.0,0.0,0.0,0.0,0.0,0.0,0.0,0.0,0.0,0.0,0.0,4.6,4.6074,4.6098,4.6049,0.0,4.5968,4.5992,4.5918,4.5968,0.0,0.0,0.0,0.0,0.0,0.0,0.0,4.6683,4.7169,4.749,4.749,4.749,4.7511,4.7593,4.7575,4.7636,4.7696,4.7636,4.7575,4.7575,4.7575,0.0,0.0,0.0,0.0,0.0,0.0,0.0,0.0,0.0,0.0,0.0,0.0,0.0,0.0,0.0,0.0,0.0,0.0,0.0,0.0,0.0,0.0,0.0,0.0,0.0,0.0,0.0,0.0,0.0,3.56,3.56,3.56,3.56,3.56,0.0,0.0,0.0,0.0,0.0,0.0,0.0,0.0,0.0,3.6867,3.7229,3.777,3.8514,3.892,3.9665,4.0713,4.0798,4.1018,4.1348,4.1348,4.1348,4.1348,4.1348,4.1348,4.128,4.0451,4.0096,4.0096,0.0,0.0,0.0,0.0,4.062,4.1382,4.1593,4.2685,4.4023,4.428,0.0,0.0,0.0,0.0,0.0,0.0,0.0,0.0,0.0,0.0,4.6637,4.6931,4.6999,4.6999,4.6999,4.6999,4.684,0.0,4.6358,4.6454,4.6165,0.0,0.0,0.0,0.0,4.6908,4.6908,4.7363,4.7717,4.7717,4.7717,4.7717,4.7717,4.7717,4.7717,4.7717,4.7717,4.7717,4.7717,4.7717,4.7717,0.0,0.0,0.0,0.0,0.0,0.0,0.0,0.0,0.0,0.0,0.0,0.0,0.0,0.0,0.0,0.0,0.0,0.0,0.0,0.0,0.0,0.0,0.0,0.0,0.0,0.0,0.0,0.0,3.56,3.56,3.56,3.56,3.56,0.0,0.0,0.0,0.0,0.0,0.0,3.7026,3.7083,3.7415,3.8159,3.8362,3.8819,3.9563,4.0299,4.0933,4.1491,4.2033,4.2286,4.2286,4.2286,4.2286,4.2286,4.2286,4.2286,4.2202,4.1128,4.0671,4.0671,4.0671,4.0671,4.0671,4.0832,4.1554,4.2482,4.2253,4.3503,4.5165,4.4801,4.5322,4.6098,4.6098,0.0,0.0,0.0,0.0,4.6406,4.6817,4.6999,4.7214,4.7615,4.7717,4.7717,4.7717,4.7717,4.745,0.0,4.684,4.6976,4.659,0.0,0.0,0.0,0.0,4.7107,4.7107,4.745,4.7717,4.7717,4.7717,4.7717,4.7717,4.7717,4.7717,4.7717,4.7717,4.7717,4.7717,4.7717,4.7717,4.7717,0.0,0.0,0.0,0.0,0.0,0.0,0.0,0.0,0.0,0.0,0.0,0.0,0.0,0.0,0.0,0.0,0.0,0.0,0.0,0.0,0.0,0.0,0.0,0.0,0.0,0.0,0.0,0.0,0.0,3.56,3.56,0.0,0.0,0.0,0.0,3.6694,3.6745,3.7043,3.7821,3.7838,3.8176,3.892,3.9622,4.035,4.1085,4.1813,4.2202,4.2236,4.2269,4.2286,4.2286,4.2286,4.2286,4.2286,4.2286,4.2286,4.2286,4.2202,4.2185,4.2185,4.2185,4.2185,4.2247,4.2756,4.2992,4.3222,4.4408,4.4892,4.5126,4.5786,4.6056,4.6098,4.6098,4.6098,0.0,0.0,4.6454,4.6863,4.6886,4.728,4.7675,4.7678,4.7717,4.7717,4.7717,4.7717,4.7678,0.0,4.7636,4.7657,4.7636,0.0,4.7615,4.7615,4.7636,4.7657,4.7657,4.7678,4.7717,4.7717,4.7717,4.7717,4.7717,4.7717,4.7717,4.7717,4.7717,4.7717,4.7717,4.7717,4.7717,4.7717,4.7717,0.0,0.0,0.0,0.0,0.0,0.0,0.0,0.0,0.0,0.0,0.0,0.0,0.0,0.0,0.0,0.0,0.0,0.0,0.0,0.0,0.0,0.0,0.0,0.0,0.0,0.0,0.0,0.0,3.56,3.6062,0.0,3.6366,3.6806,3.7212,3.7483,3.7499,3.8041,3.9242,3.9334,3.9868,4.1085,4.1399,4.1627,4.1897,4.2642,4.3267,4.3802,4.4248,4.4739,4.5196,4.5196,4.5196,4.5162,4.4688,4.4485,4.4451,4.3961,4.3408,4.2834,4.3192,4.3118,4.2885,4.3412,4.3701,4.3921,4.4701,4.5547,4.6328,4.6927,4.7129,4.7129,4.7129,4.7129,4.7129,4.7129,4.7258,4.7533,4.8055,4.8331,4.8583,4.9112,4.9238,4.9238,4.9238,4.9238,4.9238,4.9238,4.8405,4.7717,4.7717,4.7717,4.7717,4.7717,4.7717,4.7717,4.7717,4.7717,4.7717,4.7717,4.7717,4.7717,4.7717,4.7717,4.7717,4.7717,4.7717,4.7717,4.7717,4.7717,4.7717,4.7717,4.7717,4.7717,0.0,0.0,0.0,0.0,0.0,0.0,0.0,0.0,0.0,0.0,0.0,0.0,0.0,0.0,0.0,0.0,0.0,0.0,0.0,0.0,0.0,0.0,0.0,0.0,0.0,0.0,3.6056,3.6179,3.6763,3.7161,3.7161,3.7838,3.8379,3.8608,3.887,3.9546,4.079,4.084,4.139,4.2625,4.2929,4.321,4.3436,4.4181,4.4807,4.5359,4.6017,4.6607,4.7084,4.7267,4.738,4.7335,4.6641,4.6464,4.6625,4.6093,4.5615,4.5138,4.4589,4.4153,4.3929,4.4636,4.5152,4.5635,4.6448,4.7265,4.8026,4.8388,4.8514,4.8514,4.8514,4.8514,4.8514,4.8514,4.8514,4.8623,4.9166,4.9311,4.9438,4.9963,5.0112,5.0112,5.0112,5.0112,5.0112,5.0112,4.9238,4.8514,4.8514,4.8514,4.8514,4.8514,4.8514,4.8514,4.8514,4.8514,4.8514,4.8514,4.8279,4.8094,4.8094,4.7859,4.7717,4.7717,4.7717,4.7717,4.7717,4.7717,4.7717,4.7717,4.7717,4.7717,4.7717,0.0,0.0,0.0,0.0,0.0,0.0,0.0,0.0,0.0,0.0,0.0,0.0,0.0,0.0,0.0,0.0,0.0,0.0,0.0,0.0,0.0,0.0,0.0,3.636,3.6614,3.6962,3.7369,3.7746,3.7973,3.7997,3.8674,3.9394,4.0138,4.0849,4.1559,4.2286,4.2354,4.2709,4.3443,4.4259,4.5021,4.5737,4.646,4.6832,4.6819,4.7352,4.7624,4.7658,4.8269,4.8529,4.8503,4.7923,4.8004,4.852,4.8441,4.8745,4.9013,4.6445,4.545,4.5555,4.6613,4.7484,4.834,4.9667,5.0112,5.0112,5.0112,5.0112,5.0112,5.0112,5.0112,5.0112,5.0112,5.0112,5.0112,5.013,5.0148,5.0148,5.0184,5.0184,5.0184,5.0184,5.0184,5.0184,5.0184,5.0184,5.0166,5.0112,5.0112,5.0112,5.0112,5.0112,0.0,5.0112,5.0112,5.0112,5.0112,4.9401,4.8927,4.8927,4.8224,4.7772,4.7732,4.7732,4.7735,4.7717,4.7717,4.7717,4.7717,4.7717,4.7717,4.7717,0.0,0.0,0.0,0.0,0.0,0.0,0.0,0.0,0.0,0.0,0.0,0.0,0.0,0.0,0.0,0.0,0.0,0.0,0.0,0.0,0.0,0.0,3.7515,3.6773,3.6989,3.7358,3.771,3.8798,3.9659,4.0051,4.0865,4.1639,4.2216,4.2082,4.232,4.3064,4.3639,4.4299,4.5043,4.6174,4.6697,4.6498,4.7079,4.7455,4.7614,4.7759,4.8103,4.866,4.9223,4.9507,4.95,4.9183,4.9135,4.9258,4.8713,4.8561,4.8728,4.8764,4.8538,4.828,4.8964,4.937,4.9609,4.9977,5.0112,5.0112,5.0112,5.0112,5.0112,5.0112,5.0112,5.0112,5.0112,5.0112,5.0238,5.0836,5.0981,5.1126,5.1701,5.1828,5.1828,5.1828,5.1828,5.1828,5.1828,5.1828,5.1466,5.0311,5.0112,5.0112,5.0112,5.0112,0.0,5.0112,5.0112,5.0112,5.0112,4.989,4.9764,4.9764,4.9564,4.9184,4.8623,4.8565,4.8294,4.7735,4.7717,4.7717,4.7717,4.7717,4.7717,0.0,0.0,0.0,0.0,0.0,0.0,0.0,0.0,0.0,0.0,0.0,0.0,0.0,0.0,0.0,0.0,0.0,0.0,0.0,0.0,0.0,0.0,3.866,3.9042,3.8839,3.9015,3.9215,3.9365,4.0741,4.1726,4.1805,4.2586,4.3314,4.385,4.4001,4.4241,4.4674,4.5418,4.606,4.6476,4.7544,4.8051,4.7967,4.8361,4.8615,4.8733,4.8733,4.8954,4.9424,5.0226,5.0614,5.0624,5.0471,5.0586,5.0745,5.0082,4.9955,0.0,0.0,0.0,0.0,0.0,5.0619,5.0655,5.0977,5.1104,5.1104,5.1104,5.1104,5.1104,5.1104,5.1104,5.1104,5.1104,5.1104,5.1194,5.1665,5.1792,5.1919,5.2389,5.2498,5.2498,5.2498,5.2498,5.2498,5.2498,5.2498,0.0,5.1267,5.1104,5.1104,5.1104,5.1104,5.1104,5.1104,5.1104,5.1104,5.1104,5.0818,5.0619,5.0619,5.0293,0.0,0.0,0.0,4.9184,4.8713,4.8387,0.0,0.0,0.0,4.7717,4.7717,4.7717,0.0,0.0,4.7977,4.8055,0.0,0.0,0.0,0.0,0.0,0.0,0.0,0.0,0.0,0.0,0.0,0.0,0.0,0.0,0.0,0.0,3.9781,4.103,4.1771,4.2057,4.204,4.1718,4.3067,4.3821,4.3356,4.4067,4.4746,4.5214,4.6109,4.665,4.6729,0.0,0.0,0.0,0.0,4.9301,4.9723,4.9962,5.0045,4.9988,4.9988,4.9988,5.0017,5.1096,5.1601,5.1601,5.1669,5.2,5.2475,5.1909,5.2024,5.2307,5.0395,4.9657,4.9793,5.1004,5.143,5.1538,5.2245,0.0,0.0,5.2498,5.2498,5.2498,5.2498,5.2498,5.2498,5.2498,5.2498,5.2498,5.2498,5.2498,5.2498,5.2498,5.2498,5.2498,5.2498,5.2498,5.2498,5.2498,5.2498,5.2498,5.2498,5.2498,5.2498,5.2498,5.2498,5.2498,5.2498,5.2498,5.2498,5.2498,0.0,0.0,5.143,5.0782,5.0347,5.0257,5.0166,5.0112,5.0112,4.942,4.9036,4.9036,4.8333,4.7971,4.7971,4.7971,4.7971,4.7971,4.8,4.8031,0.0,0.0,0.0,0.0,0.0,0.0,0.0,0.0,0.0,0.0,0.0,0.0,0.0,0.0,0.0,4.0833,4.1811,4.2718,4.352,4.4725,4.5011,4.3585,4.4232,4.4764,4.4627,4.5887,4.6743,4.686,4.7186,4.7582,4.8093,4.839,4.8761,4.9196,5.0408,5.0875,5.0496,5.1008,5.1026,5.0552,0.0,0.0,5.0562,5.1278,5.1601,5.1644,5.2096,5.2387,5.2498,5.2387,5.2387,5.2462,5.2043,5.1894,5.1912,5.2167,5.2263,5.2281,5.2444,5.2498,5.2498,5.2498,5.2498,5.2498,5.2498,5.2498,0.0,5.2498,5.2498,5.2498,5.2498,5.2498,5.2498,5.2498,5.2498,5.2498,5.2498,5.2498,5.2498,5.2498,5.2498,5.2498,5.2498,5.2498,5.2498,5.2498,5.2498,5.2498,5.2498,5.2498,5.2498,5.2498,5.2353,5.2263,5.2263,5.2118,5.1756,5.1104,5.0474,5.0112,5.0112,4.9945,4.9854,4.9854,4.9709,4.9637,4.9637,4.9637,4.9637,4.9619,4.9006,4.8698,0.0,0.0,0.0,0.0,0.0,0.0,0.0,0.0,0.0,0.0,0.0,3.9025,0.0,0.0,4.0944,4.2103,4.2973,4.3914,4.5128,4.5997,4.6074,4.4933,4.5726,4.6389,4.6548,4.7251,4.7968,4.8639,4.8912,4.9176,4.9422,4.9925,5.033,5.059,5.1236,5.1601,5.1583,5.1601,5.1449,5.1157,5.0832,5.0697,5.0724,5.1312,5.1601,5.1626,5.2251,5.2498,5.2498,5.2498,5.2498,5.2498,5.2498,5.2498,5.2498,5.2498,5.2498,5.2498,5.2498,5.2498,5.2498,5.2498,5.2498,5.2498,5.2498,5.2498,5.2498,5.2498,5.2498,5.2498,5.2498,5.2498,5.2498,5.2498,5.2498,5.2498,5.2498,5.2498,5.2498,5.2498,5.2498,5.2498,5.2498,5.2498,5.2498,5.2498,5.2498,5.2498,5.2498,5.2498,5.2498,5.2498,5.2498,5.2498,5.2498,5.2498,5.2317,5.1919,5.1502,5.1285,5.1285,5.0904,5.0709,5.0709,5.0311,5.0112,5.0112,5.0112,5.0112,5.0112,5.009,4.9894,0.0,0.0,0.0,0.0,0.0,0.0,0.0,0.0,4.0908,4.156,4.06,3.9894,4.08,4.1488,4.2248,4.3208,4.4041,4.5019,4.6323,4.6631,4.663,4.6354,4.7284,4.7977,4.8079,4.8483,4.9116,5.0101,5.0492,5.0729,5.082,5.1312,5.1669,5.1768,5.1768,5.2,5.2498,5.2024,5.1768,5.1768,5.1286,5.1061,5.1061,5.1551,5.1768,5.1811,5.2298,5.2498,5.2498,5.2498,5.2498,5.2498,5.2498,5.2498,5.2498,5.2498,5.2498,5.2498,5.2498,5.2498,5.2498,5.2498,5.2498,5.2498,5.2498,5.2498,5.2498,5.2498,5.2498,5.2498,5.2498,5.2498,5.2498,5.2498,5.2498,5.2498,5.2498,5.2498,5.2498,5.2498,5.2498,5.2498,5.2498,5.2498,5.2498,5.2498,5.2498,5.2498,5.2498,5.2498,5.2498,5.2498,5.2498,5.2498,5.2498,5.2498,5.2498,5.2498,5.2498,5.2498,5.2498,5.1864,5.152,5.152,5.0909,5.0583,5.0583,5.0583,5.0583,5.0583,5.1212,5.1112,4.2901,4.2901,4.2901,4.2901,4.2901,4.2901,0.0,0.0,4.1596,4.1687,4.0981,4.0854,4.2339,4.2701,4.3262,4.4784,4.5707,4.6287,4.6468,4.712,4.7823,4.8464,4.867,4.859,4.8133,4.9829,5.0826,5.0468,5.1079,5.171,5.2242,5.1831,5.186,5.2387,5.241,5.2434,5.2498,5.2434,5.241,5.241,5.2322,5.2298,5.2298,5.2364,5.241,5.241,5.2475,5.2498,5.2498,5.2498,5.2498,5.2498,5.2498,5.2498,5.2498,5.2498,5.2498,5.2498,5.2498,5.2498,5.2498,5.2498,5.2498,5.2498,5.2498,5.2498,5.2498,5.2498,5.2498,5.2498,5.2498,5.2498,5.2498,5.2498,5.2498,5.2498,5.2498,5.2498,5.2498,5.2498,5.2498,5.2498,5.2498,5.2498,5.2498,5.2498,5.2498,5.2498,5.2498,5.2498,5.2498,5.2498,5.2498,5.2498,5.2498,5.2498,5.2498,5.2498,5.2498,5.2498,5.2498,5.2408,5.2371,5.2371,5.2281,5.2226,5.2226,5.2226,5.2226,5.2226,5.2317,5.196,4.2901,4.2901,4.2901,0.0,4.2901,4.2901,4.2901,4.2285,4.1831,4.2303,4.2122,4.2248,4.3389,4.3969,4.4675,0.0,4.6287,4.6667,4.7138,4.7877,4.8511,4.8855,4.9727,5.0222,4.9982,5.0773,5.1398,5.1663,5.194,5.2233,5.2498,5.2275,5.2251,5.2498,5.2498,5.2498,5.2498,5.2498,5.2498,5.2498,5.2498,5.2498,5.2498,5.2498,5.2498,5.2498,5.2498,5.2498,5.2498,5.2498,5.2498,5.2498,5.2498,5.2498,5.2498,5.2498,5.2498,5.2498,5.2498,5.2498,5.2498,5.2498,5.2498,5.2498,5.2498,5.2498,5.2498,5.2498,5.2498,5.2498,5.2498,5.2498,5.2498,5.2498,5.2498,5.2498,5.2498,5.2498,5.2498,5.2498,5.2498,5.2498,5.2498,5.2498,5.2498,5.2498,5.2498,5.2498,5.2498,5.2498,5.2498,5.2498,5.2498,5.2498,5.2498,5.2498,5.2498,5.2498,5.2498,5.2498,5.2498,5.2498,5.2498,5.2498,5.2498,5.2498,5.2498,5.2498,5.2498,5.2498,5.2498,5.2317,4.2901,0.0,0.0,4.2901,4.2901,4.2901,4.2901,4.2448,4.2212,4.2774,4.3082,4.3462,4.4277,4.5091,4.5888,4.6703,4.683,4.712,4.7935,4.8529,4.9054,4.9528,5.0578,5.1375,5.1611,5.1629,5.1864,5.2462,5.2498,5.2498,5.2498,5.2498,5.2498,5.2498,5.2498,5.2498,5.2498,5.2498,5.2498,5.2498,5.2498,5.2498,5.2498,5.2498,5.2498,5.2498,5.2498,5.2498,5.2498,5.2498,5.2498,5.2498,5.2498,5.2498,5.2498,5.2498,5.2498,5.2498,5.2498,5.2498,5.2498,5.2498,5.2498,5.2498,5.2498,5.2498,5.2498,5.2498,5.2498,5.2498,5.2498,5.2498,5.2498,5.2498,5.2498,5.2498,5.2498,5.2498,5.2498,5.2498,5.2498,5.2498,5.2498,5.2498,5.2498,5.2498,5.2498,5.2498,5.2498,5.2498,5.2498,5.2498,5.2498,5.2498,5.2498,5.2498,5.2498,5.2498,5.2498,5.2498,5.2498,5.2498,5.2498,5.2498,5.2498,5.2498,5.2498,5.2498,5.2498,5.2498,5.2498,5.2498,0.0,0.0,4.2901,4.2901,4.2901,4.2901,4.2901,4.2883,4.2883,4.2901,4.3516,4.4313,4.511,4.5924,4.6739,4.7536,4.7663,4.7932,4.8746,4.8873,4.9492,5.1031,5.1267,5.1611,0.0,5.2462,5.2462,5.2498,5.2498,5.2498,5.2498,5.2498,5.2498,5.2498,5.2498,5.2498,5.2498,5.2498,5.2498,5.2498,5.2498,5.2498,5.2498,5.2498,5.2498,5.2498,5.2498,5.2498,5.2498,5.2498,5.2498,5.2498,5.2498,5.2498,5.2498,5.2498,5.2498,5.2498,5.2498,5.2498,5.2498,5.2498,5.2498,5.2498,5.2498,5.2498,5.2498,5.2498,5.2498,5.2498,5.2498,5.2498,5.2498,5.2498,5.2498,5.2498,5.2498,5.2498,5.2498,5.2498,5.2498,5.2498,5.2498,5.2498,5.2498,5.2498,5.2498,5.2498,5.2498,5.2498,5.2498,5.2498,5.2498,5.2498,5.2498,5.2498,5.2498,5.2498,5.2498,5.2498,5.2498,5.2498,5.2498,5.2498,5.2498,5.2498,5.2498,5.2498,5.2498,5.2498,5.2498,5.2498,0.0,0.0,4.2901,4.2901,4.2901,4.2901,4.2901,4.2901,4.2901,4.2901,4.3951,4.4983,4.5254,4.6395,4.7391,4.7663,4.7717,4.7968,4.8782,4.9365,5.009,5.1158,5.1756,0.0,0.0,0.0,0.0,5.2498,5.2498,5.2498,5.2498,5.2498,5.2498,5.2498,5.2498,5.2498,5.2498,5.2498,5.2498,5.2498,5.2498,5.2498,5.2498,5.2498,5.2498,5.2498,5.2498,5.2498,5.2498,5.2498,5.2498,5.2498,5.2498,5.2498,5.2498,5.2498,5.2498,5.2498,5.2498,5.2498,5.2498,5.2498,5.2498,5.2498,5.2498,5.2498,5.2498,5.2498,5.2498,5.2498,5.2498,5.2498,5.2498,5.2498,5.2498,5.2498,5.2498,5.2498,5.2498,5.2498,5.2498,5.2498,5.2498,5.2498,5.2498,5.2498,5.2498,5.2498,5.2498,5.2498,5.2498,5.2498,5.2498,5.2498,5.2498,5.2498,5.2498,5.2498,5.2498,5.2498,5.2498,5.2498,5.2498,5.2498,5.2498,5.2498,5.2498,5.2498,5.2498,5.2498,5.2498,5.2498,0.0,4.2901,4.2901,4.2901,4.2901,4.2901,4.2901,4.2901,4.2901,4.2901,4.3951,4.4965,4.5254,4.6377,4.7373,4.7663,4.7717,4.8079,4.9184,4.9764,5.051,5.1593,5.219,5.2498,0.0,0.0,0.0,5.2498,5.2498,5.2498,5.2498,5.2498,5.2498,5.2498,5.2498,5.2498,5.2498,5.2498,5.2498,5.2498,5.2498,5.2498,5.2498,5.2498,5.2498,5.2498,5.2498,5.2498,5.2498,5.2498,5.2498,5.2498,5.2498,5.2498,5.2498,5.2498,5.2498,5.2498,5.2498,5.2498,5.2498,5.2498,5.2498,5.2498,5.2498,5.2498,5.2498,5.2498,5.2498,5.2498,5.2498,5.2498,5.2498,5.2498,5.2498,5.2498,5.2498,5.2498,5.2498,5.2498,5.2498,5.2498,5.2498,5.2498,5.2498,5.2498,5.2498,5.2498,5.2498,5.2498,5.2498,5.2498,5.2498,5.2498,5.2498,5.2498,5.2498,5.2498,5.2498,5.2498,5.2498,5.2498,5.2498,5.2498,5.2498,5.2498,5.2498,5.2498,5.2498,5.2498,5.2498,5.2498,4.2901,4.2901,4.2919,4.2955,4.2955,4.2955,4.2955,4.2955,4.2955,4.2919,4.3534,4.4349,0.0,0.0,4.6757,4.7551,4.7717,4.8261,4.9854,5.0112,5.0709,0.0,0.0,0.0,0.0,0.0,0.0,5.2498,0.0,5.2498,5.2498,5.2498,5.2498,5.2498,5.2498,5.2498,5.2498,5.2498,5.2498,5.2498,5.2498,5.2498,5.2498,5.2498,5.2498,5.2498,5.2498,5.2498,5.2498,5.2498,5.2498,5.2498,5.2498,5.2498,5.2498,5.2498,5.2498,5.2498,5.2498,5.2498,5.2498,5.2498,5.2498,5.2498,5.2498,5.2498,5.2498,5.2498,5.2498,5.2498,5.2498,5.2498,5.2498,5.2498,5.2498,5.2498,5.2498,5.2498,5.2498,5.2498,5.2498,5.2498,5.2498,5.2498,5.2498,5.2498,5.2498,5.2498,5.2498,5.2498,5.2498,5.2498,5.2498,5.2498,5.2498,5.2498,5.2498,5.2498,5.2498,5.2498,5.2498,5.2498,5.2498,5.2498,5.2498,5.2498,5.2498,5.2498,5.2498,5.2498,5.2534,5.2552,4.2901,4.2901,4.3046,4.3625,4.3788,4.3788,4.3788,4.3788,4.3607,4.3028,4.3534,4.4349,0.0,0.0,0.0,4.7551,4.7717,0.0,4.9854,5.0112,0.0,5.2299,0.0,5.2498,5.2498,5.2498,0.0,0.0,5.2498,5.2498,5.2498,5.2498,5.2498,5.2498,5.2498,5.2498,5.2498,5.2498,5.2498,5.2498,5.2498,5.2498,5.2498,5.2498,5.2498,5.2498,5.2498,5.2498,5.2498,5.2498,5.2498,5.2498,5.2498,5.2498,5.2498,5.2498,5.2498,5.2498,5.2498,5.2498,5.2498,5.2498,5.2498,5.2498,5.2498,5.2498,5.2498,5.2498,5.2498,5.2498,5.2498,5.2498,5.2498,5.2498,5.2498,5.2498,5.2498,5.2498,5.2498,5.2498,5.2498,5.2498,5.2498,5.2498,5.2498,5.2498,5.2498,5.2498,5.2498,5.2498,5.2498,5.2498,5.2498,5.2498,5.2498,5.2498,5.2498,5.2498,5.2498,5.2498,5.2498,5.2498,5.2498,5.2498,5.2498,5.2498,5.2498,5.2498,5.2498,5.2516,5.3114,5.3385,4.2901,4.3173,4.3553,4.3987,4.4095,4.4095,4.4095,4.3824,4.3444,4.2992,4.3263,0.0,4.4621,0.0,0.0,0.0,0.0,0.0,4.9854,5.0112,5.0709,0.0,5.2498,0.0,5.2498,5.2498,5.2498,0.0,5.2498,5.2498,5.2498,5.2498,5.2498,5.2498,5.2498,5.2498,5.2498,5.2498,5.2498,5.2498,5.2498,5.2498,5.2498,5.2498,5.2498,5.2498,0.0,5.2498,5.2498,5.2498,5.2498,5.2498,5.2498,5.2498,5.2498,5.2498,5.2498,5.2498,5.2498,5.2498,5.2498,5.2498,5.2498,5.2498,5.2498,5.2498,5.2498,5.2498,5.2498,5.2498,5.2498,5.2498,5.2498,5.2498,5.2498,5.2498,5.2498,5.2498,5.2498,5.2498,5.2498,5.2498,5.2498,5.2498,5.2498,5.2498,5.2498,5.2498,5.2498,5.2498,5.2498,5.2498,5.2498,5.2498,5.2498,5.2498,5.2498,5.2498,5.2498,5.2498,5.2498,5.2498,5.2498,5.2498,5.2498,5.2661,5.3023,5.3023,5.3204,5.3566,5.4019,5.4237,4.2901,4.3499,4.4095,4.4095,4.4168,4.4222,4.4114,4.3552,4.3028,4.2919,0.0,4.3155,4.3951,4.4747,4.5562,4.6377,0.0,4.8261,4.9854,5.0112,5.0709,5.2299,5.2498,5.2498,5.2498,5.2498,5.2498,5.2498,5.2498,5.2498,5.2498,5.2498,5.2498,5.2498,5.2498,5.2498,5.2498,5.2498,5.2498,5.2498,5.2498,5.2498,5.2498,5.2498,5.2498,5.2498,5.2498,5.2498,5.2498,5.2498,5.2498,5.2498,5.2498,5.2498,5.2498,5.2498,5.2498,5.2498,5.2498,5.2498,5.2498,5.2498,5.2498,5.2498,5.2498,5.2498,5.2498,5.2498,5.2498,5.2498,5.2498,5.2498,5.2498,5.2498,5.2498,5.2498,5.2498,5.2498,5.2498,5.2498,5.2498,5.2498,5.2498,5.2498,5.2498,5.2498,5.2498,5.2498,5.2498,5.2498,5.2498,5.2498,5.2498,5.2498,5.2498,5.2498,5.2498,5.2498,5.2498,5.2498,5.2498,5.2589,5.2661,5.2661,5.2752,5.3168,5.3856,5.3856,5.4218,5.4907,5.5015,5.5051,4.2901,4.3499,4.4095,4.4095,4.4603,4.491,4.424,4.3987,0.0,0.0,4.2901,4.3155,4.3951,4.4747,4.5562,4.6377,0.0,0.0,0.0,0.0,5.0709,0.0,0.0,0.0,0.0,0.0,0.0,0.0,0.0,5.2498,5.2498,5.2498,5.2498,5.2498,5.2498,5.2498,5.2498,5.2498,5.2498,5.2498,5.2498,5.2498,5.2498,5.2498,5.2498,5.2498,5.2498,0.0,5.2498,5.2498,5.2498,5.2498,5.2498,5.2498,5.2498,5.2498,5.2498,5.2498,5.2498,5.2498,5.2498,5.2498,5.2498,5.2498,5.2498,5.2498,5.2498,5.2498,5.2498,5.2498,5.2498,5.2498,5.2498,5.2498,5.2498,5.2498,5.2498,5.2498,5.2498,5.2498,5.2498,5.2498,5.2498,5.2498,5.2498,5.2498,5.2498,5.2498,5.2498,5.2498,5.2498,5.2498,5.2498,5.2498,5.2498,5.2498,5.2498,5.2498,5.2498,5.2498,5.2498,5.3132,5.3494,5.3494,5.4146,5.4562,5.4689,5.4689,5.4762,5.4925,5.5522,5.5812,4.2901,4.3499,4.4095,4.4095,4.4385,4.4566,4.4186,0.0,0.0,0.0,4.2901,4.3028,4.3389,0.0,0.0,0.0,0.0,0.0,0.0,0.0,0.0,0.0,0.0,0.0,0.0,0.0,0.0,0.0,0.0,5.2498,5.2498,5.2498,5.2498,5.2498,5.2498,5.2498,5.2498,5.2498,5.2498,5.2498,5.2498,5.2498,5.2498,5.2498,5.2498,5.2498,5.2498,5.2498,5.2498,5.2498,5.2498,5.2498,5.2498,5.2498,5.2498,5.2498,5.2498,5.2498,5.2498,5.2498,5.2498,5.2498,5.2498,5.2498,5.2498,5.2498,5.2498,5.2498,5.2498,5.2498,5.2498,5.2498,5.2498,5.2498,5.2498,5.2498,5.2498,5.2498,5.2498,5.2498,5.2498,5.2498,5.2498,5.2498,5.2498,5.2498,5.2498,5.2498,5.2498,5.2498,5.2498,5.2498,5.2498,5.2498,5.2498,5.2498,5.2679,5.3096,5.3114,5.3313,5.3729,5.4128,5.4327,5.4327,5.4707,5.5088,5.5468,5.5468,5.5685,5.6102,5.6464,5.6609,4.2865,4.3499,4.4059,4.3878,4.3969,4.4041,4.3878,4.3335,0.0,0.0,4.2901,4.2901,4.2901,0.0,4.4349,0.0,0.0,0.0,0.0,0.0,0.0,0.0,0.0,0.0,0.0,0.0,0.0,0.0,0.0,0.0,5.2498,5.2498,5.2498,5.2498,5.2498,5.2498,5.2498,5.2498,5.2498,5.2498,5.2498,5.2498,5.2498,5.2498,5.2498,5.2498,5.2498,5.2498,5.2498,5.2498,5.2498,5.2498,5.2498,5.2498,5.2498,5.2498,5.2498,5.2498,5.2498,5.2498,5.2498,5.2498,5.2498,5.2498,5.2498,5.2498,5.2498,5.2498,5.2498,5.2498,5.2498,5.2498,5.2498,5.2498,5.2498,5.2498,5.2498,5.2498,5.2498,5.2498,5.2498,5.2552,5.2733,5.2752,5.2824,5.2987,5.3005,5.3005,5.3005,5.3005,5.3005,5.3005,5.2715,5.257,5.2733,5.2752,5.3096,5.3911,5.3965,5.4237,5.487,5.5051,5.5142,5.5142,5.5305,5.5685,5.6247,5.6247,5.6573,5.7188,5.7188,5.7188,4.2701,4.3499,4.3914,4.3191,4.3571,4.3896,4.3172,0.0,0.0,4.2901,4.2901,4.2901,4.2901,4.3571,4.4349,0.0,0.0,4.7102,0.0,0.0,0.0,0.0,0.0,0.0,0.0,0.0,0.0,0.0,0.0,0.0,5.2498,5.2498,5.2498,5.2498,5.2498,5.2498,5.2498,5.2498,5.2498,5.2498,5.2498,5.2498,5.2498,5.2498,5.2498,5.2498,5.2498,5.2498,0.0,5.2498,5.2498,5.2498,5.2498,5.2498,5.2498,5.2498,5.2498,5.2498,5.2498,5.2498,5.2498,5.2498,5.2498,5.2498,5.2498,5.2498,5.2498,5.2498,5.2498,5.2498,5.2498,5.2498,5.2498,5.2498,5.2498,5.2498,5.2498,5.2498,5.2498,5.2498,5.2498,5.2733,5.3458,5.3585,5.3838,5.4581,5.4689,5.4689,5.4689,5.4689,5.4689,5.4689,5.3367,5.2788,5.353,5.3585,5.3929,5.4744,5.4798,5.4834,5.4907,5.554,5.5884,5.5884,5.6609,5.7025,5.708,5.708,5.7134,5.7188,5.7188,5.7188,4.2103,4.2774,4.3299,4.2992,4.3155,4.33,4.2973,0.0,4.2901,4.2901,4.2901,4.2901,4.2901,4.3173,4.3788,0.0,0.0,0.0,0.0,0.0,0.0,0.0,0.0,0.0,0.0,0.0,0.0,0.0,0.0,0.0,5.2498,5.2498,5.2498,5.2498,5.2498,5.2498,5.2498,5.2498,5.2498,5.2498,5.2498,5.2498,5.2498,5.2498,5.2498,5.2498,5.2498,5.2498,0.0,5.2498,5.2498,5.2498,5.2498,5.2498,5.2498,5.2498,5.2498,5.2498,5.2498,5.2498,5.2498,5.2498,5.2498,5.2498,5.2498,5.2498,5.2498,5.2498,5.2498,5.2498,5.2498,5.286,5.3222,5.3222,5.3585,5.3947,5.3947,5.3947,5.3947,5.3947,5.3947,5.4055,5.4381,5.4418,5.4544,5.4852,5.4907,5.4907,5.4907,5.4907,5.4907,5.4907,5.4327,5.4074,5.4399,5.4418,5.4762,5.5504,5.5558,5.5776,5.6265,5.6573,5.6717,5.6717,5.7043,5.7188,5.7188,5.7188,5.7188,5.7188,5.7188,5.7188,4.1578,4.2122,4.2592,4.2847,4.2901,4.2901,0.0,0.0,4.2901,4.2901,4.2901,4.2901,4.2901,4.2901,4.3425,0.0,0.0,4.6069,4.8242,0.0,0.0,0.0,0.0,0.0,0.0,0.0,0.0,0.0,0.0,0.0,5.2498,5.2498,5.2498,5.2498,5.2498,5.2498,5.2498,5.2498,5.2498,5.2498,5.2498,5.2498,5.2498,5.2498,5.2498,5.2498,5.2498,5.2498,0.0,5.2498,5.2498,5.2498,5.2498,5.2498,5.2498,5.2498,5.2498,5.2498,5.2498,5.2498,5.2498,5.2498,5.2498,5.2498,5.2498,5.2498,5.2498,5.2498,5.2498,5.2552,5.2788,5.3277,5.3766,5.4001,5.449,5.4907,5.4907,5.4907,5.4907,5.4907,5.4907,5.4979,5.5196,5.5233,5.5305,5.554,5.5577,5.5577,5.5577,5.5577,5.5577,5.5577,5.5577,5.5486,5.5251,5.5233,5.554,5.6301,5.6337,5.6609,5.717,5.7188,5.7188,5.7188,5.7188,5.7188,5.7188,5.7188,5.7188,5.7188,5.7188,5.7213,4.1288,4.1705,4.1904,4.2701,4.2901,4.2901,0.0,0.0,4.2901,4.2901,4.2901,4.2901,4.2901,4.2901,4.3425,4.5037,4.5291,0.0,4.7482,0.0,0.0,0.0,0.0,0.0,0.0,0.0,0.0,0.0,0.0,0.0,5.2498,5.2498,5.2498,5.2498,5.2498,5.2498,5.2498,5.2498,5.2498,5.2498,5.2498,5.2498,5.2498,5.2498,5.2498,5.2498,5.2498,5.2498,0.0,5.2498,5.2498,5.2498,5.2498,5.2498,5.2498,5.2498,5.2498,5.2498,5.2498,5.2498,5.2498,5.2498,5.2498,5.2498,5.2498,5.2498,5.2498,5.2498,5.2498,5.2679,5.3476,5.3693,5.3892,5.4707,5.4907,5.4907,5.4907,5.4907,5.4907,5.4907,5.4907,5.5124,5.5848,5.5975,5.6247,5.7062,5.717,5.717,5.717,5.717,5.717,5.717,5.717,5.6844,5.6047,5.5975,5.6319,5.7134,5.7188,5.7188,5.7188,5.7188,5.7188,5.7188,5.7188,5.7188,5.7188,5.7188,5.7188,5.7188,5.7188,5.7277,4.0003,4.051,4.1071,4.1868,4.2067,4.223,4.2755,0.0,4.2901,4.2901,4.2901,4.2901,4.2901,4.2901,4.3263,4.4313,4.4928,0.0,0.0,0.0,0.0,0.0,0.0,0.0,0.0,0.0,0.0,0.0,5.2498,5.2498,5.2498,5.2498,5.2498,5.2498,5.2498,5.2498,5.2498,5.2498,5.2498,5.2498,5.2498,5.2498,5.2498,5.2498,5.2498,5.2498,5.2498,5.2498,5.2498,5.2498,5.2498,5.2498,5.2498,5.2498,5.2498,5.2498,5.2498,5.2498,5.2498,5.2498,5.2498,5.2498,5.2498,5.2498,5.2498,5.2498,5.2498,5.2498,5.2896,5.3385,5.3639,5.4472,5.5341,5.5595,5.6066,5.6464,5.6464,5.6464,5.6464,5.6464,5.6464,5.6554,5.6772,5.6808,5.6899,5.7152,5.7188,5.7188,5.7188,5.7188,5.7188,5.7188,5.6837,5.665,5.6819,5.6808,5.6765,5.659,5.6966,5.6837,5.6017,5.6366,5.6393,5.5989,5.5961,5.6209,5.6723,5.6723,5.6978,5.7464,5.7464,5.7488,0.0,3.9731,4.0274,4.1053,4.1252,0.0,0.0,0.0,4.252,4.2847,4.2901,4.2901,4.2901,4.2901,4.3263,4.4367,4.4965,0.0,0.0,0.0,0.0,0.0,0.0,0.0,0.0,0.0,5.2498,5.2498,5.2498,5.2498,5.2498,5.2498,5.2498,5.2498,5.2498,5.2498,5.2498,5.2498,5.2498,5.2498,5.2498,5.2498,5.2498,5.2498,5.2498,5.2498,5.2498,5.2498,0.0,5.2498,5.2498,5.2498,5.2498,5.2498,5.2498,5.2498,5.2498,5.2498,5.2498,5.2498,5.2498,5.2498,5.2498,5.2498,5.2498,5.2498,5.2552,5.286,5.3313,5.3838,5.4418,5.5269,5.6066,5.6373,5.6826,5.7188,5.7188,5.7188,5.7188,5.7188,5.7188,5.7188,5.7188,5.7188,5.7188,5.7188,5.701,5.6863,5.6863,5.6661,5.651,5.651,5.6184,5.6101,5.6483,5.651,5.6348,5.5989,5.6321,5.6308,5.5836,5.6157,5.6328,5.6215,5.6232,5.646,5.6934,5.6934,5.7149,5.7592,5.7622,5.7634,0.0,0.0,0.0,0.0,0.0,0.0,0.0,0.0,0.0,4.2719,4.2901,4.2901,4.2901,4.2901,4.3426,4.4965,4.5254,4.5852,0.0,4.7772,0.0,0.0,0.0,0.0,5.2498,5.2498,5.2498,5.2498,5.2498,5.2498,5.2498,5.2498,5.2498,5.2498,5.2498,5.2498,5.2498,5.2498,5.2498,5.2498,5.2498,5.2498,5.2498,5.2498,5.2498,0.0,5.2498,5.2498,5.2498,5.2498,5.2498,5.2498,5.2498,5.2498,5.2498,5.2498,5.2498,5.2498,5.2498,5.2498,5.2498,5.2498,5.2498,5.2498,5.2498,5.2534,5.2733,5.3494,5.3784,5.4182,5.5613,5.6029,5.6265,5.7025,5.7188,5.7188,5.7188,5.7188,5.7188,5.7188,5.7188,5.7188,5.7188,5.7163,5.7138,5.7138,5.6608,5.6229,5.6229,5.5733,5.5385,5.5385,5.5408,5.5413,5.5413,5.539,5.542,5.5413,5.5443,5.5776,5.6427,5.6475,5.6808,5.745,5.752,5.7538,5.7538,5.7608,5.7625,5.7611,5.768,5.7706,0.0,0.0,0.0,0.0,0.0,0.0,0.0,0.0,0.0,0.0,0.0,0.0,0.0,4.2901,4.3226,4.4222,4.4892,4.5653,4.6649,0.0,0.0,5.0057,5.1502,5.2498,5.2498,5.2498,5.2498,5.2498,5.2498,5.2498,5.2498,5.2498,5.2498,5.2498,5.2498,5.2498,5.2498,5.2498,5.2498,5.2498,5.2498,5.2498,5.2498,5.2498,5.2498,5.2498,5.2498,5.2498,5.2498,5.2498,5.2498,5.2498,5.2498,5.2498,5.2498,5.2498,5.2498,5.2498,5.2498,5.2498,5.2498,5.2498,5.2498,5.2498,5.2498,5.2933,5.3458,5.3657,5.4544,5.554,5.5903,5.6446,5.6971,5.7152,5.7188,5.7188,5.7188,5.7188,5.7188,5.7188,5.7188,5.7188,5.7188,5.6811,5.6501,5.6501,5.5989,5.5618,5.5618,5.5473,5.5385,5.5385,5.5458,5.5493,5.5493,5.5418,5.5422,5.5473,5.5942,5.6154,5.5911,5.6343,5.6445,5.6133,5.6696,5.6986,5.6986,5.7549,5.7822,5.7822,5.7833,5.7846,0.0,0.0,0.0,0.0,0.0,0.0,0.0,0.0,0.0,0.0,0.0,0.0,0.0,0.0,0.0,0.0,4.5019,0.0,0.0,0.0,0.0,5.0619,5.1737,5.2498,0.0,5.2498,5.2498,5.2498,5.2498,5.2498,5.2498,5.2498,5.2498,5.2498,5.2498,5.2498,5.2498,5.2498,5.2498,5.2498,5.2498,5.2498,5.2498,5.2498,5.2498,5.2498,5.2498,5.2498,5.2498,5.2498,5.2498,5.2498,5.2498,5.2498,5.2498,5.2498,5.2498,5.2498,5.2498,5.2498,5.2498,5.2498,5.2498,5.257,5.2933,5.3603,5.4255,5.4255,5.5088,5.6084,5.6446,5.6862,5.7188,5.7188,5.7188,5.7188,5.7188,5.6966,5.6785,5.6785,5.6785,5.6688,5.6402,5.6339,5.6201,5.5932,5.5337,5.4948,5.4948,5.5001,5.5038,5.5038,5.5389,5.5586,5.5586,5.5556,5.5553,5.5585,5.5917,5.6146,5.6208,5.6507,5.6694,5.6697,5.7103,5.7306,5.7306,5.7695,5.7881,5.7881,5.7881,5.7881,0.0,0.0,0.0,0.0,0.0,0.0,0.0,0.0,0.0,0.0,0.0,0.0,0.0,4.301,0.0,0.0,0.0,0.0,4.8583,4.9582,5.0401,5.1194,5.2009,0.0,5.2498,5.2498,5.2498,5.2498,5.2498,5.2498,5.2498,5.2498,5.2498,5.2498,5.2498,5.2498,5.2498,5.2498,5.2498,5.2498,5.2498,5.2498,5.2498,5.2498,5.2498,5.2498,0.0,0.0,5.2498,5.2498,5.2498,5.2498,5.2498,5.2498,5.2498,5.2498,5.2498,5.2498,5.2498,5.2498,5.2498,5.2498,5.257,5.2806,5.3494,5.4345,5.507,5.507,5.5613,5.6337,5.7025,5.7188,5.7188,5.7188,5.7138,5.7061,5.7061,5.6582,5.6174,5.6174,5.6174,5.5989,5.5473,5.5733,5.5848,5.5325,5.4776,5.4421,5.4421,5.4617,5.4769,5.4769,5.5446,5.5886,5.5886,5.5987,5.6055,5.6055,5.5953,5.6207,5.6934,5.6968,5.7256,5.7881,5.7881,5.7881,5.7881,5.7881,5.7881,5.7881,5.7881,5.7881,3.8209,3.8209,3.8209,3.8209,0.0,0.0,0.0,0.0,0.0,0.0,0.0,0.0,0.0,4.3463,4.4222,0.0,0.0,4.7717,0.0,0.0,5.0401,5.1194,0.0,5.2498,5.2498,5.2498,5.2498,5.2498,5.2498,5.2498,5.2498,5.2498,5.2498,5.2498,5.2498,5.2498,5.2498,5.2498,5.2498,5.2498,5.2498,5.2498,5.2498,5.2498,5.2498,5.2498,0.0,5.2498,5.2498,5.2498,5.2498,5.2498,5.2498,5.2498,5.2498,5.2498,5.2498,5.2498,5.2498,5.2498,5.2498,5.2498,5.2951,5.3548,5.3657,5.4689,5.583,5.583,5.6391,5.7043,5.717,5.7188,5.7188,5.7188,5.6811,5.6447,5.6447,5.5961,5.5531,5.5531,5.5531,5.5502,5.5432,5.5009,5.4655,5.4579,5.4574,5.4568,5.4568,5.5143,5.5547,5.5547,5.619,5.663,5.663,5.7205,5.756,5.756,5.6985,5.6968,5.7695,5.7729,5.7763,5.7881,5.7881,5.7881,5.7881,5.7881,5.7881,5.7881,5.7881,5.7881,3.8209,3.8209,3.8209,3.8209,0.0,3.9134,4.0239,0.0,0.0,0.0,0.0,0.0,0.0,0.0,4.4512,4.5743,0.0,4.8134,4.9365,4.9854,5.0565,0.0,0.0,5.2498,5.2498,5.2498,5.2498,5.2498,5.2498,5.2498,5.2498,5.2498,5.2498,5.2498,5.2498,5.2498,5.2498,5.2498,5.2498,5.2498,5.2498,5.2498,5.2498,5.2498,5.2498,5.2498,0.0,5.2498,5.2498,5.2498,5.2498,5.2498,5.2498,5.2498,5.2498,5.2498,5.2498,5.2498,5.2498,5.2498,5.2498,5.2498,5.3041,5.3784,5.4218,5.5124,5.6084,5.6518,5.6899,5.7188,5.7188,5.6959,5.6714,5.6714,5.6239,5.5819,5.5819,5.5308,5.4857,5.4857,5.4857,5.4751,5.4411,5.4738,5.4883,5.4577,5.489,5.5192,5.5192,5.5852,5.6292,5.6292,5.6951,5.7391,5.7391,5.7695,5.7881,5.7881,5.7577,5.7543,5.7881,5.7881,5.7881,5.7881,5.7881,5.7881,5.7881,5.7881,5.7881,5.7881,5.7881,5.7881,3.8209,3.8209,3.8263,0.0,0.0,3.9586,4.0329,0.0,0.0,0.0,0.0,0.0,0.0,4.4403,0.0,4.6558,4.7301,4.8261,4.9854,5.0112,5.0709,5.2299,5.2498,5.2498,5.2498,5.2498,5.2498,5.2498,5.2498,5.2498,5.2498,5.2498,5.2498,5.2498,5.2498,5.2498,5.2498,5.2498,5.2498,5.2498,5.2498,5.2498,5.2498,5.2498,5.2498,5.2498,5.2498,5.2498,5.2498,5.2498,5.2498,5.2498,5.2498,5.2498,5.2498,5.2498,5.2498,5.2498,5.2498,5.2498,5.2516,5.2715,5.3331,5.4128,5.4925,5.5685,5.641,5.7025,5.7087,5.6984,5.6984,5.6653,5.6257,5.6101,5.5618,5.5177,5.5177,5.4658,5.4203,5.4203,5.4203,5.4078,5.3822,5.4598,5.5174,5.4889,5.5497,5.597,5.597,5.6613,5.7053,5.7053,5.756,5.7881,5.7881,5.7881,5.7881,5.7881,5.7881,5.7881,5.7881,5.7881,5.7881,5.7881,5.7881,5.7881,5.7881,5.7881,5.7881,5.7881,5.7881,5.7881,3.8209,3.8209,3.839,3.9115,3.9351,0.0,4.0329,4.1126,0.0,4.2719,0.0,0.0,0.0,4.5327,4.6613,4.7461,4.7663,4.8261,4.9854,0.0,5.0709,5.2299,5.2498,5.2498,5.2498,5.2498,5.2498,5.2498,5.2498,5.2498,5.2498,5.2498,5.2498,5.2498,5.2498,5.2498,5.2498,5.2498,5.2498,5.2498,5.2498,5.2498,5.2498,5.2498,5.2498,5.2498,5.2498,5.2498,5.2498,5.2498,5.2498,5.2498,5.2498,5.2498,5.2498,5.2498,5.2498,5.2498,5.2498,5.2498,5.2625,5.3367,5.4164,5.4961,5.5703,5.6482,5.7134,5.717,5.6811,5.6366,5.6366,5.6339,5.6174,5.5589,5.4948,5.4485,5.4485,5.4011,5.3551,5.3551,5.3551,5.3771,5.4397,5.4618,5.4889,5.553,5.6258,5.6731,5.6731,5.7357,5.7814,5.7814,5.7865,5.7881,5.7881,5.7881,5.7881,5.7881,5.7881,5.7881,5.7881,5.7881,5.7881,5.7881,5.7881,5.7881,5.7881,5.7881,5.7881,5.7881,5.7881,5.7881,3.8209,3.8209,3.839,3.9188,3.9749,0.0,0.0,4.1886,4.252,4.2847,4.3534,0.0,0.0,0.0,4.7355,4.7663,4.8134,4.884,4.9949,5.0546,5.1249,5.2371,5.2498,5.2498,5.2498,5.2498,5.2498,5.2498,5.2498,5.2498,5.2498,5.2498,5.2498,5.2498,5.2498,5.2498,5.2498,5.2498,5.2498,5.2498,5.2498,5.2498,5.2498,5.2498,5.2498,5.2498,5.2498,5.2498,5.2498,5.2498,5.2498,5.2498,5.2498,5.2498,5.2498,5.2498,5.2498,5.2498,5.2498,5.2498,5.2625,5.344,5.4237,5.5051,5.5776,5.6554,5.7112,5.6758,5.6474,5.6311,5.6311,5.5716,5.5052,5.4826,5.4299,5.3832,5.3832,5.3668,5.3501,5.3501,5.3873,5.4262,5.4532,5.5361,5.6055,5.6342,5.7019,5.7476,5.7476,5.7729,5.7881,5.7881,5.7881,5.7881,5.7881,5.7881,5.7881,5.7881,5.7881,5.7881,5.7881,5.7881,5.7881,5.7881,5.7881,5.7881,5.7881,5.7881,5.7881,5.7881,5.7881,5.7881,3.8209,3.8209,3.8462,0.0,0.0,0.0,4.185,4.2502,4.2973,4.3226,4.4114,0.0,0.0,0.0,0.0,0.0,4.8149,4.8894,4.9945,5.056,5.1303,5.2371,5.2498,5.2498,5.2498,5.2498,5.2498,5.2498,5.2498,5.2498,5.2498,5.2498,5.2498,5.2498,5.2498,5.2498,5.2498,5.2498,5.2498,5.2498,5.2498,5.2498,5.2498,5.2498,5.2498,5.2498,5.2498,5.2498,5.2498,5.2498,5.2498,5.2498,5.2498,5.2498,5.2498,5.2498,5.2498,5.2498,5.2498,5.2661,5.3005,5.382,5.4617,5.5395,5.6138,5.6628,5.6837,5.642,5.6017,5.5716,5.5716,5.5052,5.4359,5.4171,5.3816,5.3501,5.3501,5.3501,5.3568,5.3805,5.4245,5.4735,5.5209,5.6139,5.6884,5.7103,5.7577,5.7881,5.7881,5.7881,5.7881,5.7881,5.7881,5.7881,5.7881,5.7881,5.7881,5.7881,5.7881,5.7881,5.7881,5.7881,5.7881,5.7881,5.7881,5.7881,5.7881,5.7881,5.7881,5.7881,5.7881,5.7881,3.8209,3.8209,0.0,0.0,0.0,0.0,4.252,4.2919,4.3155,4.3951,0.0,4.6757,4.7554,0.0,0.0,4.7717,4.7717,4.8279,4.9876,5.0112,5.0709,5.2299,5.2498,5.2498,5.2498,5.2498,5.2498,5.2498,5.2498,5.2498,5.2498,5.2498,5.2498,5.2498,5.2498,5.2498,5.2498,5.2498,5.2498,5.2498,5.2498,5.2498,5.2498,5.2498,5.2498,5.2498,5.2498,5.2498,5.2498,5.2498,5.2498,5.2498,5.2498,5.2498,5.2498,5.2498,5.2498,5.2498,5.2498,5.3023,5.3838,5.4653,5.5395,5.6138,5.6953,5.6785,5.6284,5.6284,5.5379,5.4391,5.4391,5.4391,5.4249,5.3634,5.3501,5.3501,5.3501,5.3501,5.3721,5.4448,5.46,5.5074,5.6545,5.6816,5.7053,5.778,5.7881,5.7881,5.7881,5.7881,5.7881,5.7881,5.7881,5.7881,5.7881,5.7881,5.7881,5.7881,5.7881,5.7881,5.7881,5.7881,5.7881,5.7881,5.7881,5.7881,5.7881,5.7881,5.7881,5.7881,5.7881,5.7881,3.8209,3.8209,0.0,4.0111,0.0,0.0,0.0,4.3354,0.0,0.0,0.0,4.6757,4.7554,0.0,0.0,4.7717,4.8167,4.8713,4.9202,5.0216,5.1104,5.1593,5.2154,5.2498,5.2498,5.2498,5.2498,5.2498,5.2498,5.2498,5.2498,5.2498,5.2498,5.2498,5.2498,5.2498,5.2498,5.2498,5.2498,5.2498,5.2498,5.2498,5.2498,5.2498,5.2498,5.2498,5.2498,5.2498,5.2498,5.2498,5.2498,5.2498,5.2498,5.2498,5.2498,5.2498,5.2498,5.2498,5.2498,5.3023,5.3838,5.4653,5.5395,5.6063,5.6454,5.6447,5.6101,5.5201,5.4686,5.4313,5.3865,5.375,5.3734,5.3534,5.3501,5.3501,5.3501,5.3501,5.3721,5.4448,5.5023,5.5683,5.6647,5.7222,5.7645,5.7865,5.7881,5.7881,5.7881,5.7881,5.7881,5.7881,5.7881,5.7881,5.7881,5.7881,5.7881,5.7881,5.7881,5.7881,5.7881,5.7881,5.7881,5.7881,5.7881,5.7881,5.7881,5.7881,5.7881,5.7881,5.7881,5.7881,3.8241,0.0,0.0,4.0111,4.0492,4.1089,4.3335,0.0,0.0,0.0,0.0,4.712,4.7627,4.7717,0.0,4.7717,4.8094,4.8529,4.8855,4.9745,5.047,5.0778,5.1249,5.1665,5.1991,5.2009,5.2154,5.248,5.2498,5.2498,5.2498,5.2498,5.2498,5.2498,5.2498,5.2498,5.2498,5.2498,5.2498,5.2498,5.2498,5.2498,5.2498,5.2498,5.2498,5.2498,5.2498,5.2498,5.2498,5.2498,5.2498,5.2498,5.2498,5.2498,5.2498,5.2498,5.2498,5.2498,5.2498,5.3241,5.4255,5.4744,5.5446,5.6155,5.6277,5.5961,5.5379,5.4641,5.4218,5.3946,5.3584,5.3501,5.3501,5.3501,5.3501,5.3501,5.3501,5.3737,5.416,5.4888,5.5632,5.6376,5.7103,5.7594,5.7881,5.7881,5.7881,5.7881,5.7881,5.7881,5.7881,5.7881,5.7881,5.7881,5.7881,5.7881,5.7881,5.7881,5.7881,5.7881,5.7881,5.7881,5.7881,5.7881,5.7881,5.7881,5.7881,5.7881,5.7881,5.7881,5.7881,5.7881,3.829,0.0,0.0,4.0111,4.0601,0.0,4.4603,4.5291,4.5544,4.6432,0.0,4.7717,4.7717,4.7717,4.7717,4.7717,4.7717,4.795,4.8674,4.8837,4.9184,4.989,5.0075,5.0401,5.1126,5.1176,5.1502,5.2317,5.2389,5.2426,5.2498,5.2498,5.2498,5.2498,5.2498,5.2498,5.2498,5.2498,5.2498,5.2498,5.2498,5.2498,5.2498,5.2498,5.2498,5.2498,5.2498,5.2498,5.2498,5.2498,5.2498,5.2498,5.2498,5.2498,5.2498,5.2498,5.2498,5.2498,5.2498,5.3548,5.4882,5.4816,5.5492,5.6284,5.6156,5.532,5.4391,5.4328,5.3913,5.3501,5.3501,5.3501,5.3501,5.3501,5.3501,5.3518,5.3602,5.4126,5.4837,5.5649,5.6342,5.7036,5.7763,5.7881,5.7881,5.7881,5.7881,5.7881,5.7881,5.7881,5.7881,5.7881,5.7881,5.7881,5.7881,5.7881,5.7881,5.7881,5.7881,5.7881,5.7881,5.7881,5.7881,5.7881,5.7881,5.7881,5.7881,5.7881,5.7881,5.7881,5.7881,5.7881,0.0,3.8209,0.0,0.0,4.1452,4.29,4.4856,4.5291,4.5707,4.7156,4.7591,4.7717,4.7717,4.7717,4.7717,4.7717,4.7717,4.7751,4.7913,4.8493,4.8945,4.9148,4.9709,5.0184,5.0347,5.0365,5.0687,5.1484,5.1556,5.1828,5.2462,5.2498,5.2498,5.2498,5.2498,5.2498,5.2498,5.2498,5.2498,5.2498,5.2498,5.2498,5.2498,5.2498,5.2498,5.2498,5.2498,5.2498,5.2498,5.2498,5.2498,5.2498,5.2498,5.2498,5.2498,5.2498,5.2498,5.2498,5.2498,5.3548,5.4816,5.4276,5.5107,5.6101,5.5112,5.4641,5.4313,5.3832,5.3584,5.3501,5.3501,5.3501,5.3501,5.3501,5.3501,5.367,5.4228,5.4482,5.4989,5.6308,5.6697,5.7036,5.7763,5.7881,5.7881,5.7881,5.7881,5.7881,5.7881,5.7881,5.7881,5.7881,5.7881,5.7881,5.7881,5.7881,5.7881,5.7881,5.7881,5.7881,5.7881,5.7881,5.7881,5.7881,5.7881,5.7881,5.7881,5.7881,5.7881,5.7881,5.7881,5.7881,0.0,0.0,0.0,4.0111,0.0,0.0,4.444,4.5019,4.5653,4.6884,4.7446,4.7717,4.7717,4.7717,4.7717,4.7717,4.7717,4.7717,4.7717,4.8058,4.8312,4.8312,4.8695,4.9094,4.9492,4.9528,4.9854,5.0651,5.0746,5.1067,5.1864,5.1919,5.21,5.248,5.2498,5.2498,5.2498,5.2498,5.2498,5.2498,5.2498,5.2498,5.2498,5.2498,5.2498,5.2498,5.2498,5.2498,5.2498,5.2498,5.2498,5.2498,5.2498,5.2498,5.2498,5.2498,5.2498,5.2498,5.2498,5.3548,5.4791,5.413,5.4793,5.5705,5.4686,5.4203,5.3881,5.3584,5.3501,5.3501,5.3501,5.3501,5.3501,5.3501,5.3501,5.3704,5.4431,5.4871,5.5463,5.6579,5.7087,5.7442,5.7814,5.7881,5.7881,5.7881,5.7881,5.7881,5.7881,5.7881,5.7881,5.7881,5.7881,5.7881,5.7881,5.7881,5.7881,5.7881,5.7881,5.7881,5.7881,5.8237,5.8254,5.7898,5.7881,5.7881,5.7881,5.7881,5.7881,5.7881,5.7881,5.7881,0.0,0.0,3.8898,4.0166,4.1705,0.0,4.3914,4.4603,4.5327,4.6124,4.7047,4.7717,4.7717,4.7717,4.7717,4.7717,4.7717,4.7717,4.7717,4.7717,4.7717,4.7717,4.7717,4.795,4.8619,4.8674,4.9039,4.9818,4.9872,5.0234,5.1049,5.1212,5.1611,5.2263,5.2426,5.2498,5.2498,5.2498,5.2498,5.2498,5.2498,5.2498,5.2498,5.2498,5.2498,5.2498,5.2498,5.2498,5.2498,5.2498,5.2498,5.2498,5.2498,5.2498,5.2498,5.2498,5.2498,5.2498,5.2498,5.3477,5.4607,5.3956,5.4416,5.5117,5.444,5.3898,5.3501,5.3501,5.3501,5.3501,5.3501,5.3501,5.3501,5.3501,5.3602,5.389,5.4617,5.5378,5.6122,5.685,5.7476,5.7881,5.7881,5.7881,5.7881,5.7881,5.7881,5.7881,5.7881,5.7881,5.7881,5.7881,5.7881,5.7881,5.7881,5.7881,5.7932,5.8068,5.8084,5.8135,5.8254,5.8879,5.8913,5.8287,5.8271,5.8271,5.8271,5.8271,5.8271,5.8271,5.8271,5.8271,0.0,0.0,4.0239,0.0,4.1705,4.3118,0.0,0.0,4.4476,0.0,4.6649,4.7717,4.7717,4.7717,4.7717,4.7717,4.7717,4.7717,4.7717,4.7717,4.7717,4.7717,4.7717,4.7732,4.7862,4.7859,4.8206,4.8981,4.9075,4.942,5.022,5.0927,5.1339,5.1448,5.2136,5.2498,5.2498,5.2498,5.2498,5.2498,5.2498,5.2498,5.2498,5.2498,5.2498,5.2498,5.2498,5.2498,5.2498,5.2498,5.2498,5.2498,5.2498,5.2498,5.2498,5.2498,5.2498,5.2498,5.2498,5.3164,5.393,5.3301,5.3783,5.444,5.3816,5.3551,5.3501,5.3501,5.3501,5.3501,5.3501,5.3501,5.3501,5.3501,5.3991,5.4651,5.5395,5.6139,5.6867,5.7594,5.7814,5.7881,5.7881,5.7881,5.7881,5.7881,5.7881,5.7881,5.7881,5.7881,5.7881,5.7881,5.7881,5.7881,5.7881,5.7881,5.8169,5.8829,5.8863,5.915,5.9776,5.9911,5.9911,5.981,5.981,5.981,5.981,5.981,5.981,5.981,5.981,5.981,3.8257,3.9059,3.9985,0.0,0.0,0.0,0.0,0.0,4.4186,4.4548,4.5544,4.6504,4.6957,4.7409,4.7717,4.7717,4.7717,4.7717,4.7717,4.7717,4.7717,4.7717,4.7717,4.7717,4.7717,4.7717,4.7862,4.8185,4.8221,4.8586,4.9383,4.9764,5.0361,5.1267,5.1629,5.2027,5.2498,5.2498,5.2498,5.2498,5.2498,5.2498,5.2498,5.2498,5.2498,5.2498,5.2498,5.2498,5.2498,5.2498,5.2498,5.2498,5.2498,5.2498,5.2498,5.2498,5.2498,5.2498,5.2498,5.2827,5.3315,5.3477,5.3632,5.3825,5.3954,5.3783,5.3501,5.3501,5.3501,5.3501,5.3501,5.3501,5.3501,5.3501,5.438,5.531,5.5614,5.6292,5.7019,5.7746,5.7881,5.7881,5.7881,5.7881,5.7881,5.7881,5.7881,5.7881,5.7881,5.7881,5.7881,5.7881,5.7881,5.7881,5.7881,5.8271,5.866,5.8998,5.9404,5.9776,6.008,6.0537,6.0774,6.0774,6.0334,6.0097,6.0097,6.0097,6.0097,6.0097,6.0097,6.0097,0.0,0.0,0.0,0.0,0.0,0.0,0.0,0.0,4.3788,0.0,4.444,4.5182,4.578,4.6721,4.7464,4.7681,4.7717,4.7717,4.7717,4.7717,4.7717,4.7717,4.7717,4.7717,4.7717,4.7717,4.7717,4.7717,4.7717,4.795,4.8547,4.8782,4.9456,5.0651,5.1086,5.1574,5.219,5.2389,5.2498,5.2498,5.2498,5.2498,5.2498,5.2498,5.2498,5.2498,5.2498,5.2498,5.2498,5.2498,5.2498,5.2498,5.2498,5.2498,5.2498,5.2498,5.2498,5.2475,5.2322,5.2496,5.2852,5.3299,5.3375,5.3394,5.3994,5.3865,5.3501,5.3501,5.3501,5.3501,5.3501,5.3501,5.3501,5.3501,5.4651,5.5783,5.619,5.6697,5.7239,5.778,5.7881,5.7881,5.7881,5.7881,5.7881,5.7881,5.7881,5.7881,5.7881,5.7881,5.7881,5.7881,5.7881,5.7966,5.8152,5.8693,5.9184,5.9573,6.0097,6.0486,6.0672,6.1264,6.1586,6.1586,6.0994,6.0672,6.0672,6.0672,6.0672,6.0672,6.0672,6.0672,0.0,0.0,0.0,0.0,0.0,0.0,0.0,0.0,0.0,0.0,4.3588,4.4168,4.4222,4.5508,4.6812,4.7591,4.7717,4.7717,4.7717,4.7717,4.7717,4.7717,4.7717,4.7717,4.7717,4.7717,4.7717,4.7717,4.7717,4.7735,4.7751,4.8475,4.8927,4.9018,5.0506,5.1303,5.1357,5.2118,5.2498,5.2498,5.2498,5.2498,5.2498,5.2498,5.2498,5.2498,5.2498,5.2498,5.2498,5.2498,5.2498,5.2498,5.2498,5.2498,5.2498,5.2498,5.2498,5.241,5.186,5.2118,5.2634,5.2317,5.2632,5.3252,5.3463,5.3534,5.3501,5.3501,5.3501,5.3501,5.3501,5.3501,5.3501,5.3501,5.4651,5.6089,5.7476,5.7814,5.7831,5.7881,5.7881,5.7881,5.7881,5.7881,5.7881,5.7881,5.7881,5.7881,5.7881,5.7881,5.7881,5.7881,5.7881,5.8169,5.8896,5.8998,5.9641,6.1095,6.1214,6.1552,6.2245,6.2313,6.233,6.233,6.2279,6.2262,6.2262,6.2262,6.2262,6.2262,6.2262,6.2262,0.0,0.0,0.0,0.0,0.0,0.0,0.0,0.0,0.0,4.2792,4.3118,4.3499,4.3987,4.4983,4.5997,4.6812,4.6939,4.712,4.7645,4.7717,4.7717,4.7717,4.7717,4.7717,4.7717,4.7717,4.7717,4.7717,4.7717,4.7717,4.7717,4.7989,4.8366,4.8873,4.9474,5.0253,5.1285,5.21,5.2498,5.2498,5.2498,5.2498,5.2498,5.2498,5.2498,5.2498,5.2498,5.2498,5.2498,5.2498,5.2498,5.2498,5.2498,5.2498,5.2498,5.2498,5.2251,5.1884,5.1669,5.1299,5.1116,5.2288,5.2334,5.2196,5.365,5.3816,5.3501,5.3501,5.3501,5.3501,5.3501,5.3501,5.3737,5.4702,5.5327,5.6105,5.7577,5.7881,5.7881,5.7881,5.7881,5.7881,5.7881,5.7881,5.7881,5.7881,5.7881,5.7881,5.7881,5.7881,5.7881,5.7881,5.8321,5.8727,5.8998,5.9911,6.0723,6.1264,6.1738,6.211,6.2381,6.2381,6.2381,6.2381,6.2381,6.2381,6.2381,6.2381,6.2381,6.2381,6.2381,6.2381,0.0,0.0,0.0,0.0,0.0,0.0,0.0,0.0,0.0,4.2339,4.2502,4.2737,4.3534,4.4132,4.4838,4.5924,4.6323,4.6703,4.7228,4.7536,4.7717,4.7717,4.7717,4.7717,4.7717,4.7717,4.7717,4.7717,4.7717,0.0,4.7717,4.7717,4.8079,4.8873,4.8891,4.9673,5.1267,5.1828,5.2226,5.2498,5.2498,5.2498,5.2498,5.2498,5.2498,5.2498,5.2498,5.2498,5.2498,5.2498,5.2498,5.2498,5.2498,5.2498,5.2498,5.2498,5.2114,5.1576,5.1381,5.0813,5.0413,5.1911,5.198,5.1824,5.3565,5.3816,5.3501,5.3501,5.3501,5.3501,5.3501,5.3501,5.3873,5.5361,5.5681,5.6105,5.7577,5.7881,5.7881,5.7881,5.7881,5.7881,5.7881,5.7881,5.7881,5.7881,5.7881,5.7881,5.7881,5.7881,5.7881,5.7881,5.8558,5.9116,5.9353,6.0571,6.1417,6.1653,6.2127,6.2381,6.2381,6.2381,6.2381,6.2381,6.2381,6.2381,6.2381,6.2381,6.2381,6.2381,6.2381,6.2381,0.0,0.0,0.0,0.0,0.0,0.0,0.0,0.0,0.0,0.0,4.1687,4.194,4.2719,4.2883,4.3426,4.4983,4.5906,4.645,4.6468,4.7174,4.7642,4.7642,4.7699,4.7717,4.7717,4.7717,4.7717,4.7717,4.7717,4.7717,4.7717,4.7717,4.8058,4.8837,4.8873,4.9673,5.1249,5.1285,5.1701,5.2498,5.2498,5.2498,5.2498,5.2498,5.2498,5.2498,5.2498,5.2498,5.2498,5.2498,5.2498,5.2498,5.2498,5.2498,5.2498,5.2498,5.2114,5.15,5.0885,5.0697,5.0732,5.1103,5.1614,5.2293,5.3226,5.3501,5.3501,5.3501,5.3501,5.3501,5.3501,5.3501,5.3873,5.5361,5.5681,5.6105,5.7577,5.7881,5.7881,5.7881,5.7881,5.7881,5.7881,5.7881,5.7881,5.7881,5.7881,5.7881,5.7881,5.7881,5.7898,5.7915,5.8592,5.9336,6.008,6.0875,6.1637,6.2347,6.2381,6.2381,6.2381,6.2381,6.2381,6.2381,6.2381,6.2381,6.2381,6.2381,6.2381,6.2381,6.2381,6.2381,3.8209,0.0,0.0,0.0,0.0,0.0,0.0,0.0,0.0,0.0,4.1288,4.1759,4.1976,4.2502,4.3064,4.348,4.424,4.4965,4.5544,4.6323,4.683,4.683,4.7355,4.7717,4.7717,4.7717,4.7717,0.0,4.7717,4.7717,4.7717,4.7717,4.7808,4.8004,4.8583,4.9401,5.042,5.0995,5.1701,5.2498,5.2498,5.2498,5.2498,5.2498,5.2498,5.2498,5.2498,5.2498,5.2498,5.2498,5.2498,5.2498,5.2498,5.2498,5.2498,5.2498,5.1842,5.0929,5.0751,5.0511,5.0376,5.0992,5.1653,5.2393,5.3263,5.3501,5.3501,5.3501,5.3501,5.3501,5.3501,5.3501,5.3873,5.5361,5.5681,5.6105,5.7577,5.7881,5.7881,5.7881,5.7881,5.7881,5.7881,5.7881,5.7881,5.7881,5.7881,5.7881,5.7881,5.7881,5.8101,5.8643,5.937,6.0114,6.0909,6.1653,6.2178,6.2381,6.2381,6.2381,6.2381,6.2381,6.2381,6.2381,6.2381,6.2381,6.2381,6.2381,6.2381,6.2381,6.2381,6.2381,0.0,0.0,0.0,0.0,0.0,0.0,3.879,3.8915,3.9115,0.0,4.0419,4.0926,4.1578,4.2067,4.2502,4.2865,4.33,4.3878,4.4693,4.549,4.6124,4.6468,4.692,4.7337,4.7681,4.7717,4.7717,4.7717,4.7717,4.7717,4.7717,4.7717,4.7717,4.7717,4.8149,4.8949,5.0093,5.0583,5.1357,5.2498,5.2498,5.2498,5.2498,5.2498,5.2498,5.2498,5.2498,5.2498,5.2498,5.2498,5.2498,5.2498,5.2498,5.2498,5.2475,5.2228,5.1508,5.0697,5.0697,5.0437,5.0265,5.1247,5.1917,5.2452,5.3264,5.3501,5.3501,5.3501,5.3501,5.3501,5.3501,5.3501,5.3873,5.5361,5.5681,5.6105,5.7577,5.7881,5.7881,5.7881,5.7881,5.7881,5.7881,5.7881,5.7881,5.7881,5.7881,5.7881,5.7881,5.7881,5.8169,5.893,5.9674,6.0436,6.1231,6.1975,6.2381,6.2381,6.2381,6.2381,6.2381,6.2381,6.2381,6.2381,6.2381,6.2381,6.2381,6.2381,6.2381,6.2381,6.2381,6.2381,0.0,0.0,0.0,0.0,0.0,0.0,3.8192,3.8123,3.8288,3.9115,3.9315,3.9751,4.118,4.1506,4.1813,4.2629,4.2755,4.3045,4.3842,4.4657,4.5436,4.616,4.6305,4.6685,4.75,4.7572,4.7609,4.7678,4.7717,4.7717,4.7717,4.7717,4.7717,4.7717,4.7717,4.8478,5.0093,5.0112,5.0904,5.2498,5.2498,5.2498,5.2498,5.2498,5.2498,5.2498,5.2498,5.2498,5.2498,5.2498,5.2498,5.2498,5.2498,5.2475,5.234,5.1811,5.1183,5.0616,5.0616,5.0448,5.0415,5.159,5.2206,5.257,5.3281,5.3501,5.3501,5.3501,5.3501,5.3501,5.3501,5.3501,5.3873,5.5361,5.5681,5.6105,5.7577,5.7881,5.7881,5.7881,5.7881,5.7881,5.7881,5.7881,5.7881,5.7881,5.7881,5.7881,5.7881,5.7881,5.8203,5.9049,5.9725,6.0469,6.1349,6.2009,6.2381,6.2381,6.2381,6.2381,6.2381,6.2381,6.2381,6.2381,6.2381,6.2381,6.2381,6.2381,6.2381,6.2381,6.2381,6.2381,0.0,0.0,0.0,0.0,0.0,0.0,3.8037,3.7667,3.7411,0.0,3.8653,3.9031,3.9715,4.0329,4.0999,4.1795,4.1922,4.223,4.3009,4.3824,4.4385,4.4548,4.5146,4.5852,4.6667,4.6739,4.7011,4.7663,4.7717,4.7717,4.7717,4.7717,4.7717,4.7717,4.7717,4.8478,5.0093,5.0112,5.0904,5.2498,5.2498,5.2498,5.2498,5.2498,5.2498,5.2498,5.2498,5.2498,5.2498,5.2498,5.2498,5.2498,5.2498,5.2186,5.1743,5.1626,5.0938,5.0074,5.0074,5.0459,5.1014,5.1278,5.2229,5.3298,5.345,5.3501,5.3501,5.3501,5.3501,5.3501,5.3501,5.3501,5.3873,5.5361,5.5681,5.6105,5.7577,5.7881,5.7881,5.7881,5.7881,5.7881,5.7881,5.7881,5.7881,5.7881,5.7881,5.7881,5.7881,5.7881,5.8406,5.9742,6.0013,6.0672,6.2059,6.2313,6.2381,6.2381,6.2381,6.2381,6.2381,6.2381,6.2381,6.2381,6.2381,6.2381,6.2381,6.2381,6.2381,6.2381,6.2381,6.2381,0.0,0.0,0.0,3.7151,0.0,0.0,0.0,3.7226,3.7017,3.7468,3.7826,3.8311,0.0,0.0,4.0202,4.0981,4.1433,4.1831,4.2248,4.2991,4.3643,4.4041,4.4458,4.5019,4.5816,4.6269,4.683,4.7645,4.7717,4.7717,4.7717,4.7717,4.7717,4.7717,4.7717,4.8297,4.9492,4.989,5.0728,5.19,5.2299,5.2498,5.2498,5.2498,5.2498,5.2498,5.2498,5.2498,5.2498,5.2498,5.2498,5.2498,5.2498,5.2138,5.1551,5.126,5.0624,4.9942,5.0321,5.0765,5.13,5.1992,5.2782,5.3501,5.3501,5.3501,5.3501,5.3501,5.3501,5.3501,5.3501,5.3501,5.3873,5.5361,5.5681,5.6105,5.7577,5.7881,5.7881,5.7881,5.7881,5.7881,5.7881,5.7881,5.7881,5.7881,5.7881,5.7881,5.7881,5.7881,5.8457,5.9945,6.0097,6.0723,6.2262,6.2381,6.2381,6.2381,6.2381,6.2381,6.2381,6.2381,6.2381,6.2381,6.2381,6.2381,6.2381,6.2381,6.2381,6.2381,6.2381,6.2381,0.0,0.0,0.0,0.0,0.0,3.6701,0.0,0.0,0.0,0.0,0.0,0.0,0.0,0.0,0.0,0.0,0.0,0.0,0.0,4.2266,0.0,4.3769,4.386,4.4168,4.4983,4.5943,4.6776,4.7428,4.7627,4.7717,4.7717,4.7717,4.7717,4.7717,4.7717,4.8098,4.8891,4.9691,5.051,5.1303,5.2118,5.2498,5.2498,5.2498,5.2498,5.2498,5.2498,5.2498,5.2498,5.2498,5.2498,5.2498,5.2498,5.2048,5.1381,5.0885,5.0276,4.9835,5.0562,5.0997,5.14,5.2623,5.3234,5.3501,5.3501,5.3501,5.3501,5.3501,5.3501,5.3501,5.3501,5.3501,5.3873,5.5361,5.5681,5.6105,5.7577,5.7881,5.7881,5.7881,5.7881,5.7881,5.7881,5.7881,5.7881,5.7881,5.7881,5.7881,5.7881,5.7881,5.8457,5.9945,6.0097,6.0723,6.2262,6.2381,6.2381,6.2381,6.2381,6.2381,6.2381,6.2533,6.2668,6.2804,6.2668,6.2601,6.2601,6.2465,6.2381,6.2381,6.2381,6.2381,0.0,0.0,0.0,0.0,3.6067,0.0,3.6721,0.0,3.5963,3.6741,0.0,0.0,0.0,0.0,0.0,0.0,0.0,0.0,4.1506,4.1777,4.2121,4.2955,4.3046,4.3335,4.415,4.5617,4.654,4.6631,4.7301,4.7717,4.7717,4.7717,4.7717,4.7717,4.7717,4.8098,4.8891,4.9691,5.051,5.1303,5.2118,5.2498,5.2498,5.2498,5.2498,5.2498,5.2498,5.2498,5.2498,5.2498,5.2498,5.2498,5.2498,5.1817,5.0805,5.0724,5.0039,4.9226,4.9955,5.0638,5.1336,5.2161,5.2907,5.3501,5.3501,5.3501,5.3501,5.3501,5.3501,5.3501,5.3501,5.3501,5.3873,5.5361,5.5681,5.6105,5.7577,5.7881,5.7881,5.7881,5.7881,5.7881,5.7881,5.7881,5.7881,5.7881,5.7881,5.7881,5.7881,5.7881,5.8457,5.9945,6.0097,6.0723,6.2262,6.2381,6.2381,6.2381,6.2381,6.2381,6.2381,6.304,6.3683,6.4343,6.3717,6.3396,6.3379,6.2719,6.2381,6.2381,6.2381,6.2381,0.0,0.0,0.0,0.0,0.0,0.0,3.6054,0.0,3.5694,0.0,0.0,0.0,0.0,0.0,0.0,0.0,3.9115,0.0,0.0,0.0,4.1994,0.0,0.0,0.0,4.4023,4.4711,4.549,4.6432,4.6812,4.721,4.7681,4.7717,4.7717,4.7717,4.7717,4.7859,4.8185,4.9456,5.0275,5.0615,5.1882,5.2498,5.2498,5.2498,5.2498,5.2498,5.2498,5.2498,5.2498,5.2498,5.2498,5.2475,5.2096,5.1457,5.0751,5.1087,5.0543,4.9791,5.0878,5.152,5.1978,5.2739,5.323,5.3501,5.3501,5.3501,5.3501,5.3501,5.3501,5.3501,5.3501,5.3822,5.4397,5.5463,5.6038,5.663,5.7662,5.7881,5.7881,5.7881,5.7881,5.7881,5.7881,5.7881,5.7881,5.7881,5.7881,5.7881,5.7881,5.7881,5.8457,5.9945,6.0097,6.0723,6.2262,6.2381,6.2584,6.3007,6.3446,6.3666,6.3666,6.3565,6.3666,6.3971,6.3243,6.2854,6.2854,6.255,6.2381,6.2381,6.2381,6.2381,3.6705,0.0,0.0,0.0,0.0,0.0,0.0,0.0,0.0,0.0,0.0,0.0,0.0,0.0,0.0,0.0,0.0,3.8958,0.0,0.0,0.0,0.0,0.0,0.0,0.0,4.3969,4.4584,4.5743,4.625,4.6757,4.7355,4.7591,4.7717,4.7717,4.7717,4.7717,4.7717,4.9293,5.0112,5.013,5.1719,5.2498,5.2498,5.2498,5.2498,5.2498,5.2498,5.2498,5.2498,5.2498,5.2498,5.2434,5.1835,5.1235,5.0751,5.1183,5.0819,5.028,5.1648,5.2338,5.2739,5.3315,5.3501,5.3501,5.3501,5.3501,5.3501,5.3501,5.3501,5.3501,5.3501,5.4042,5.4786,5.553,5.6275,5.7002,5.7729,5.7881,5.7881,5.7881,5.7881,5.7881,5.7881,5.7881,5.7881,5.7881,5.7881,5.7881,5.7881,5.7881,5.8457,5.9945,6.0097,6.0723,6.2262,6.2584,6.3024,6.3768,6.4309,6.4597,6.4597,6.4089,6.3818,6.3818,6.3074,6.2702,6.2702,6.2482,6.2381,6.2381,6.2381,6.2381,0.0,0.0,0.0,3.7202,0.0,0.0,0.0,0.0,3.5997,0.0,0.0,0.0,0.0,0.0,0.0,0.0,0.0,0.0,0.0,0.0,0.0,0.0,0.0,0.0,0.0,4.3625,4.4114,4.4168,4.5617,4.6504,4.654,4.7283,4.7717,4.7717,4.7717,4.7717,4.7717,4.9293,5.0112,5.013,5.1719,5.2498,5.2498,5.2498,5.2498,5.2498,5.2498,5.2498,5.2498,5.2498,5.2498,5.2434,5.1835,5.1235,5.0697,5.0724,5.0449,5.028,5.1648,5.2714,5.3467,5.3501,5.3501,5.3501,5.3501,5.3501,5.3501,5.3501,5.3501,5.3501,5.3501,5.4042,5.4786,5.553,5.6275,5.7002,5.7729,5.7881,5.7881,5.7881,5.7881,5.7881,5.7881,5.7881,5.7881,5.7881,5.7881,5.7881,5.7881,5.7881,5.8457,5.9945,6.0097,6.0723,6.2262,6.3057,6.3785,6.4529,6.4597,6.4597,6.4597,6.458,6.4563,6.4563,6.3852,6.348,6.348,6.2753,6.2381,6.2381,6.2381,6.2381,0.0,0.0,3.8936,3.843,0.0,0.0,0.0,0.0,0.0,0.0,0.0,0.0,0.0,0.0,0.0,0.0,0.0,0.0,0.0,0.0,0.0,0.0,0.0,0.0,0.0,0.0,4.3516,4.4059,4.5091,4.5943,4.6468,4.7265,4.7717,4.7717,4.7717,4.7717,4.7717,4.9293,5.0112,5.013,5.1719,5.2498,5.2498,5.2498,5.2498,5.2498,5.2498,5.2498,5.2498,5.2498,5.2498,5.241,5.1406,5.0885,5.0697,5.0697,5.0748,5.1046,5.2527,5.321,5.3501,5.3501,5.3501,5.3501,5.3501,5.3501,5.3501,5.3501,5.3501,5.3619,5.4093,5.4786,5.5513,5.6258,5.6985,5.7594,5.7831,5.7881,5.7881,5.7881,5.7881,5.7881,5.7881,5.7881,5.7881,5.7881,5.7881,5.7881,5.7881,5.7881,5.8457,5.9945,6.0588,6.1501,6.3007,6.4258,6.5053,6.5307,6.5324,6.5324,6.5324,6.4394,6.3886,6.3886,6.3142,6.277,6.277,6.2516,6.2381,6.2381,6.2381,6.2381,4.0841,4.0586,0.0,3.9791,3.9452,0.0,3.8728,0.0,3.8434,0.0,0.0,0.0,0.0,0.0,0.0,0.0,0.0,0.0,0.0,3.8887,0.0,0.0,0.0,0.0,0.0,0.0,4.3118,4.3625,4.4421,4.5218,4.6033,4.6848,4.7409,4.7678,4.7717,4.7717,4.7717,4.9293,5.0112,5.013,5.1719,5.2498,5.2498,5.2498,5.2498,5.2498,5.2275,5.2298,5.2498,5.2275,5.2186,5.2072,5.1087,5.0589,5.0449,5.0701,5.1277,5.2081,5.3128,5.3501,5.3501,5.3501,5.3501,5.3501,5.3501,5.3501,5.3551,5.3822,5.389,5.4059,5.4803,5.5547,5.6224,5.6697,5.7357,5.7881,5.7881,5.7881,5.7881,5.7881,5.7881,5.7881,5.7881,5.7881,5.7881,5.7881,5.7881,5.7881,5.7881,5.7881,5.8558,6.0334,6.0994,6.211,6.4123,6.5138,6.5679,6.5679,6.5679,6.5442,6.4935,6.4005,6.3632,6.3903,6.2905,6.2651,6.3176,6.2651,6.2381,6.2381,6.2381,6.2381]}]]